<?xml version="1.0" encoding="UTF-8" standalone="no" ?>
<gpx xmlns="http://www.topografix.com/GPX/1/1" xmlns:xsi="http://www.w3.org/2001/XMLSchema-instance" xsi:schemaLocation="http://www.topografix.com/GPX/1/1 http://www.topografix.com/GPX/1/1/gpx.xsd" version="1.1" creator="VisuGPX - https://www.visugpx.com">
  <metadata>
    <name>Saint Liguaire 9km</name>
  </metadata>
  <trk>
    <name><![CDATA[Saint Liguaire 9km_1]]></name>
    <trkseg>
      <trkpt lat="46.32289" lon="-0.51155">
        <ele>72</ele>
        <time>2011-12-01T14:05:51Z</time>
      </trkpt>
      <trkpt lat="46.32287" lon="-0.51158">
        <ele>70</ele>
        <time>2011-12-01T14:05:56Z</time>
      </trkpt>
      <trkpt lat="46.32285" lon="-0.51159">
        <ele>69</ele>
        <time>2011-12-01T14:06:01Z</time>
      </trkpt>
      <trkpt lat="46.32282" lon="-0.51162">
        <ele>65</ele>
        <time>2011-12-01T14:06:06Z</time>
      </trkpt>
      <trkpt lat="46.32283" lon="-0.51162">
        <ele>65</ele>
        <time>2011-12-01T14:06:21Z</time>
      </trkpt>
      <trkpt lat="46.32282" lon="-0.51164">
        <ele>64</ele>
        <time>2011-12-01T14:06:26Z</time>
      </trkpt>
      <trkpt lat="46.32282" lon="-0.51165">
        <ele>64</ele>
        <time>2011-12-01T14:06:31Z</time>
      </trkpt>
      <trkpt lat="46.32282" lon="-0.51165">
        <ele>64</ele>
        <time>2011-12-01T14:06:36Z</time>
      </trkpt>
      <trkpt lat="46.32282" lon="-0.51167">
        <ele>65</ele>
        <time>2011-12-01T14:06:46Z</time>
      </trkpt>
      <trkpt lat="46.32284" lon="-0.5117">
        <ele>65</ele>
        <time>2011-12-01T14:06:51Z</time>
      </trkpt>
      <trkpt lat="46.32285" lon="-0.51172">
        <ele>64</ele>
        <time>2011-12-01T14:06:56Z</time>
      </trkpt>
      <trkpt lat="46.32286" lon="-0.51179">
        <ele>63</ele>
        <time>2011-12-01T14:07:01Z</time>
      </trkpt>
      <trkpt lat="46.32285" lon="-0.51187">
        <ele>63</ele>
        <time>2011-12-01T14:07:06Z</time>
      </trkpt>
      <trkpt lat="46.32285" lon="-0.51196">
        <ele>62</ele>
        <time>2011-12-01T14:07:11Z</time>
      </trkpt>
      <trkpt lat="46.32289" lon="-0.51201">
        <ele>64</ele>
        <time>2011-12-01T14:07:16Z</time>
      </trkpt>
      <trkpt lat="46.32294" lon="-0.51206">
        <ele>62</ele>
        <time>2011-12-01T14:07:21Z</time>
      </trkpt>
      <trkpt lat="46.323" lon="-0.51204">
        <ele>65</ele>
        <time>2011-12-01T14:07:26Z</time>
      </trkpt>
      <trkpt lat="46.32306" lon="-0.51203">
        <ele>65</ele>
        <time>2011-12-01T14:07:31Z</time>
      </trkpt>
      <trkpt lat="46.32311" lon="-0.51203">
        <ele>65</ele>
        <time>2011-12-01T14:07:36Z</time>
      </trkpt>
      <trkpt lat="46.32316" lon="-0.51206">
        <ele>64</ele>
        <time>2011-12-01T14:07:41Z</time>
      </trkpt>
      <trkpt lat="46.3232" lon="-0.51208">
        <ele>64</ele>
        <time>2011-12-01T14:07:46Z</time>
      </trkpt>
      <trkpt lat="46.32321" lon="-0.51217">
        <ele>63</ele>
        <time>2011-12-01T14:07:51Z</time>
      </trkpt>
      <trkpt lat="46.32322" lon="-0.51222">
        <ele>62</ele>
        <time>2011-12-01T14:07:56Z</time>
      </trkpt>
      <trkpt lat="46.32324" lon="-0.51228">
        <ele>64</ele>
        <time>2011-12-01T14:08:01Z</time>
      </trkpt>
      <trkpt lat="46.32327" lon="-0.51234">
        <ele>64</ele>
        <time>2011-12-01T14:08:06Z</time>
      </trkpt>
      <trkpt lat="46.32331" lon="-0.51243">
        <ele>64</ele>
        <time>2011-12-01T14:08:11Z</time>
      </trkpt>
      <trkpt lat="46.32336" lon="-0.5125">
        <ele>63</ele>
        <time>2011-12-01T14:08:16Z</time>
      </trkpt>
      <trkpt lat="46.32341" lon="-0.51254">
        <ele>63</ele>
        <time>2011-12-01T14:08:21Z</time>
      </trkpt>
      <trkpt lat="46.32346" lon="-0.51258">
        <ele>62</ele>
        <time>2011-12-01T14:08:26Z</time>
      </trkpt>
      <trkpt lat="46.32351" lon="-0.51262">
        <ele>62</ele>
        <time>2011-12-01T14:08:31Z</time>
      </trkpt>
      <trkpt lat="46.32357" lon="-0.51267">
        <ele>62</ele>
        <time>2011-12-01T14:08:36Z</time>
      </trkpt>
      <trkpt lat="46.32362" lon="-0.5127">
        <ele>62</ele>
        <time>2011-12-01T14:08:41Z</time>
      </trkpt>
      <trkpt lat="46.32365" lon="-0.51274">
        <ele>60</ele>
        <time>2011-12-01T14:08:46Z</time>
      </trkpt>
      <trkpt lat="46.32369" lon="-0.51277">
        <ele>60</ele>
        <time>2011-12-01T14:08:51Z</time>
      </trkpt>
      <trkpt lat="46.32375" lon="-0.51275">
        <ele>60</ele>
        <time>2011-12-01T14:08:56Z</time>
      </trkpt>
      <trkpt lat="46.32379" lon="-0.51284">
        <ele>60</ele>
        <time>2011-12-01T14:09:01Z</time>
      </trkpt>
      <trkpt lat="46.32384" lon="-0.51287">
        <ele>61</ele>
        <time>2011-12-01T14:09:06Z</time>
      </trkpt>
      <trkpt lat="46.3239" lon="-0.51295">
        <ele>62</ele>
        <time>2011-12-01T14:09:11Z</time>
      </trkpt>
      <trkpt lat="46.32394" lon="-0.51294">
        <ele>61</ele>
        <time>2011-12-01T14:09:16Z</time>
      </trkpt>
      <trkpt lat="46.32399" lon="-0.51297">
        <ele>61</ele>
        <time>2011-12-01T14:09:21Z</time>
      </trkpt>
      <trkpt lat="46.32405" lon="-0.51293">
        <ele>59</ele>
        <time>2011-12-01T14:09:26Z</time>
      </trkpt>
      <trkpt lat="46.3241" lon="-0.51293">
        <ele>60</ele>
        <time>2011-12-01T14:09:31Z</time>
      </trkpt>
      <trkpt lat="46.32415" lon="-0.51304">
        <ele>60</ele>
        <time>2011-12-01T14:09:36Z</time>
      </trkpt>
      <trkpt lat="46.32418" lon="-0.51306">
        <ele>60</ele>
        <time>2011-12-01T14:09:41Z</time>
      </trkpt>
      <trkpt lat="46.32423" lon="-0.51303">
        <ele>58</ele>
        <time>2011-12-01T14:09:46Z</time>
      </trkpt>
      <trkpt lat="46.32429" lon="-0.51302">
        <ele>60</ele>
        <time>2011-12-01T14:09:51Z</time>
      </trkpt>
      <trkpt lat="46.32436" lon="-0.51304">
        <ele>61</ele>
        <time>2011-12-01T14:09:56Z</time>
      </trkpt>
      <trkpt lat="46.32439" lon="-0.51302">
        <ele>60</ele>
        <time>2011-12-01T14:10:01Z</time>
      </trkpt>
      <trkpt lat="46.32445" lon="-0.51299">
        <ele>62</ele>
        <time>2011-12-01T14:10:06Z</time>
      </trkpt>
      <trkpt lat="46.32449" lon="-0.51297">
        <ele>61</ele>
        <time>2011-12-01T14:10:11Z</time>
      </trkpt>
      <trkpt lat="46.32455" lon="-0.51293">
        <ele>61</ele>
        <time>2011-12-01T14:10:16Z</time>
      </trkpt>
      <trkpt lat="46.32459" lon="-0.51289">
        <ele>62</ele>
        <time>2011-12-01T14:10:21Z</time>
      </trkpt>
      <trkpt lat="46.32465" lon="-0.5129">
        <ele>59</ele>
        <time>2011-12-01T14:10:26Z</time>
      </trkpt>
      <trkpt lat="46.32469" lon="-0.51293">
        <ele>59</ele>
        <time>2011-12-01T14:10:31Z</time>
      </trkpt>
      <trkpt lat="46.32472" lon="-0.51292">
        <ele>58</ele>
        <time>2011-12-01T14:10:36Z</time>
      </trkpt>
      <trkpt lat="46.32478" lon="-0.51292">
        <ele>59</ele>
        <time>2011-12-01T14:10:41Z</time>
      </trkpt>
      <trkpt lat="46.32481" lon="-0.5129">
        <ele>60</ele>
        <time>2011-12-01T14:10:46Z</time>
      </trkpt>
      <trkpt lat="46.32487" lon="-0.5129">
        <ele>57</ele>
        <time>2011-12-01T14:10:51Z</time>
      </trkpt>
      <trkpt lat="46.32491" lon="-0.5129">
        <ele>57</ele>
        <time>2011-12-01T14:10:56Z</time>
      </trkpt>
      <trkpt lat="46.32494" lon="-0.5129">
        <ele>57</ele>
        <time>2011-12-01T14:11:01Z</time>
      </trkpt>
      <trkpt lat="46.32496" lon="-0.5129">
        <ele>57</ele>
        <time>2011-12-01T14:11:06Z</time>
      </trkpt>
      <trkpt lat="46.32506" lon="-0.51281">
        <ele>58</ele>
        <time>2011-12-01T14:11:11Z</time>
      </trkpt>
      <trkpt lat="46.3251" lon="-0.51271">
        <ele>58</ele>
        <time>2011-12-01T14:11:16Z</time>
      </trkpt>
      <trkpt lat="46.32514" lon="-0.51262">
        <ele>59</ele>
        <time>2011-12-01T14:11:21Z</time>
      </trkpt>
      <trkpt lat="46.32523" lon="-0.51267">
        <ele>60</ele>
        <time>2011-12-01T14:11:26Z</time>
      </trkpt>
      <trkpt lat="46.32531" lon="-0.51269">
        <ele>62</ele>
        <time>2011-12-01T14:11:31Z</time>
      </trkpt>
      <trkpt lat="46.32538" lon="-0.51268">
        <ele>64</ele>
        <time>2011-12-01T14:11:36Z</time>
      </trkpt>
      <trkpt lat="46.3254" lon="-0.51264">
        <ele>66</ele>
        <time>2011-12-01T14:11:41Z</time>
      </trkpt>
      <trkpt lat="46.32546" lon="-0.51261">
        <ele>66</ele>
        <time>2011-12-01T14:11:46Z</time>
      </trkpt>
      <trkpt lat="46.32552" lon="-0.51259">
        <ele>66</ele>
        <time>2011-12-01T14:11:51Z</time>
      </trkpt>
      <trkpt lat="46.32559" lon="-0.51257">
        <ele>68</ele>
        <time>2011-12-01T14:11:56Z</time>
      </trkpt>
      <trkpt lat="46.32565" lon="-0.51256">
        <ele>66</ele>
        <time>2011-12-01T14:12:01Z</time>
      </trkpt>
      <trkpt lat="46.32569" lon="-0.51254">
        <ele>65</ele>
        <time>2011-12-01T14:12:06Z</time>
      </trkpt>
      <trkpt lat="46.32574" lon="-0.51256">
        <ele>62</ele>
        <time>2011-12-01T14:12:11Z</time>
      </trkpt>
      <trkpt lat="46.32578" lon="-0.51257">
        <ele>61</ele>
        <time>2011-12-01T14:12:16Z</time>
      </trkpt>
      <trkpt lat="46.32584" lon="-0.5126">
        <ele>61</ele>
        <time>2011-12-01T14:12:21Z</time>
      </trkpt>
      <trkpt lat="46.32586" lon="-0.5127">
        <ele>61</ele>
        <time>2011-12-01T14:12:26Z</time>
      </trkpt>
      <trkpt lat="46.32592" lon="-0.51276">
        <ele>63</ele>
        <time>2011-12-01T14:12:31Z</time>
      </trkpt>
      <trkpt lat="46.32596" lon="-0.51275">
        <ele>62</ele>
        <time>2011-12-01T14:12:36Z</time>
      </trkpt>
      <trkpt lat="46.326" lon="-0.51277">
        <ele>62</ele>
        <time>2011-12-01T14:12:41Z</time>
      </trkpt>
      <trkpt lat="46.32606" lon="-0.5128">
        <ele>62</ele>
        <time>2011-12-01T14:12:46Z</time>
      </trkpt>
      <trkpt lat="46.32608" lon="-0.51283">
        <ele>63</ele>
        <time>2011-12-01T14:12:51Z</time>
      </trkpt>
      <trkpt lat="46.32612" lon="-0.51282">
        <ele>60</ele>
        <time>2011-12-01T14:12:56Z</time>
      </trkpt>
      <trkpt lat="46.32616" lon="-0.51282">
        <ele>61</ele>
        <time>2011-12-01T14:13:01Z</time>
      </trkpt>
      <trkpt lat="46.32622" lon="-0.51278">
        <ele>60</ele>
        <time>2011-12-01T14:13:06Z</time>
      </trkpt>
      <trkpt lat="46.32627" lon="-0.51279">
        <ele>60</ele>
        <time>2011-12-01T14:13:11Z</time>
      </trkpt>
      <trkpt lat="46.32632" lon="-0.51279">
        <ele>61</ele>
        <time>2011-12-01T14:13:16Z</time>
      </trkpt>
      <trkpt lat="46.32639" lon="-0.5128">
        <ele>62</ele>
        <time>2011-12-01T14:13:21Z</time>
      </trkpt>
      <trkpt lat="46.32643" lon="-0.51282">
        <ele>61</ele>
        <time>2011-12-01T14:13:26Z</time>
      </trkpt>
      <trkpt lat="46.32646" lon="-0.51289">
        <ele>60</ele>
        <time>2011-12-01T14:13:31Z</time>
      </trkpt>
      <trkpt lat="46.32648" lon="-0.51295">
        <ele>60</ele>
        <time>2011-12-01T14:13:36Z</time>
      </trkpt>
      <trkpt lat="46.32649" lon="-0.513">
        <ele>60</ele>
        <time>2011-12-01T14:13:41Z</time>
      </trkpt>
      <trkpt lat="46.32651" lon="-0.51305">
        <ele>60</ele>
        <time>2011-12-01T14:13:46Z</time>
      </trkpt>
      <trkpt lat="46.32656" lon="-0.51306">
        <ele>59</ele>
        <time>2011-12-01T14:13:51Z</time>
      </trkpt>
      <trkpt lat="46.32657" lon="-0.51312">
        <ele>58</ele>
        <time>2011-12-01T14:13:56Z</time>
      </trkpt>
      <trkpt lat="46.32658" lon="-0.51318">
        <ele>57</ele>
        <time>2011-12-01T14:14:01Z</time>
      </trkpt>
      <trkpt lat="46.32661" lon="-0.51323">
        <ele>57</ele>
        <time>2011-12-01T14:14:06Z</time>
      </trkpt>
      <trkpt lat="46.32664" lon="-0.51326">
        <ele>58</ele>
        <time>2011-12-01T14:14:11Z</time>
      </trkpt>
      <trkpt lat="46.32666" lon="-0.51331">
        <ele>57</ele>
        <time>2011-12-01T14:14:16Z</time>
      </trkpt>
      <trkpt lat="46.32671" lon="-0.51335">
        <ele>57</ele>
        <time>2011-12-01T14:14:21Z</time>
      </trkpt>
      <trkpt lat="46.32675" lon="-0.5134">
        <ele>56</ele>
        <time>2011-12-01T14:14:26Z</time>
      </trkpt>
      <trkpt lat="46.32679" lon="-0.51345">
        <ele>56</ele>
        <time>2011-12-01T14:14:31Z</time>
      </trkpt>
      <trkpt lat="46.32681" lon="-0.5135">
        <ele>55</ele>
        <time>2011-12-01T14:14:36Z</time>
      </trkpt>
      <trkpt lat="46.32686" lon="-0.51355">
        <ele>56</ele>
        <time>2011-12-01T14:14:41Z</time>
      </trkpt>
      <trkpt lat="46.32689" lon="-0.51359">
        <ele>58</ele>
        <time>2011-12-01T14:14:46Z</time>
      </trkpt>
      <trkpt lat="46.32693" lon="-0.51366">
        <ele>60</ele>
        <time>2011-12-01T14:14:51Z</time>
      </trkpt>
      <trkpt lat="46.32697" lon="-0.51372">
        <ele>59</ele>
        <time>2011-12-01T14:14:56Z</time>
      </trkpt>
      <trkpt lat="46.327" lon="-0.51378">
        <ele>58</ele>
        <time>2011-12-01T14:15:01Z</time>
      </trkpt>
      <trkpt lat="46.32703" lon="-0.51384">
        <ele>58</ele>
        <time>2011-12-01T14:15:06Z</time>
      </trkpt>
      <trkpt lat="46.32706" lon="-0.51389">
        <ele>58</ele>
        <time>2011-12-01T14:15:11Z</time>
      </trkpt>
      <trkpt lat="46.32707" lon="-0.51399">
        <ele>58</ele>
        <time>2011-12-01T14:15:16Z</time>
      </trkpt>
      <trkpt lat="46.32712" lon="-0.51405">
        <ele>60</ele>
        <time>2011-12-01T14:15:21Z</time>
      </trkpt>
      <trkpt lat="46.32714" lon="-0.51413">
        <ele>59</ele>
        <time>2011-12-01T14:15:26Z</time>
      </trkpt>
      <trkpt lat="46.32717" lon="-0.51419">
        <ele>58</ele>
        <time>2011-12-01T14:15:31Z</time>
      </trkpt>
      <trkpt lat="46.32718" lon="-0.51426">
        <ele>56</ele>
        <time>2011-12-01T14:15:36Z</time>
      </trkpt>
      <trkpt lat="46.3272" lon="-0.51432">
        <ele>56</ele>
        <time>2011-12-01T14:15:41Z</time>
      </trkpt>
      <trkpt lat="46.3272" lon="-0.51438">
        <ele>53</ele>
        <time>2011-12-01T14:15:46Z</time>
      </trkpt>
      <trkpt lat="46.32723" lon="-0.51448">
        <ele>53</ele>
        <time>2011-12-01T14:15:51Z</time>
      </trkpt>
      <trkpt lat="46.32725" lon="-0.51455">
        <ele>53</ele>
        <time>2011-12-01T14:15:56Z</time>
      </trkpt>
      <trkpt lat="46.32726" lon="-0.51461">
        <ele>54</ele>
        <time>2011-12-01T14:16:01Z</time>
      </trkpt>
      <trkpt lat="46.32729" lon="-0.51469">
        <ele>55</ele>
        <time>2011-12-01T14:16:06Z</time>
      </trkpt>
      <trkpt lat="46.32731" lon="-0.51478">
        <ele>56</ele>
        <time>2011-12-01T14:16:11Z</time>
      </trkpt>
      <trkpt lat="46.32733" lon="-0.51486">
        <ele>56</ele>
        <time>2011-12-01T14:16:16Z</time>
      </trkpt>
      <trkpt lat="46.32732" lon="-0.51494">
        <ele>55</ele>
        <time>2011-12-01T14:16:21Z</time>
      </trkpt>
      <trkpt lat="46.32736" lon="-0.51503">
        <ele>54</ele>
        <time>2011-12-01T14:16:26Z</time>
      </trkpt>
      <trkpt lat="46.32738" lon="-0.51509">
        <ele>54</ele>
        <time>2011-12-01T14:16:31Z</time>
      </trkpt>
      <trkpt lat="46.3274" lon="-0.51516">
        <ele>53</ele>
        <time>2011-12-01T14:16:36Z</time>
      </trkpt>
      <trkpt lat="46.3274" lon="-0.51524">
        <ele>54</ele>
        <time>2011-12-01T14:16:41Z</time>
      </trkpt>
      <trkpt lat="46.32744" lon="-0.51533">
        <ele>54</ele>
        <time>2011-12-01T14:16:46Z</time>
      </trkpt>
      <trkpt lat="46.32746" lon="-0.51541">
        <ele>55</ele>
        <time>2011-12-01T14:16:51Z</time>
      </trkpt>
      <trkpt lat="46.32748" lon="-0.51549">
        <ele>57</ele>
        <time>2011-12-01T14:16:56Z</time>
      </trkpt>
      <trkpt lat="46.32749" lon="-0.51556">
        <ele>56</ele>
        <time>2011-12-01T14:17:01Z</time>
      </trkpt>
      <trkpt lat="46.32751" lon="-0.51564">
        <ele>55</ele>
        <time>2011-12-01T14:17:06Z</time>
      </trkpt>
      <trkpt lat="46.32753" lon="-0.51572">
        <ele>54</ele>
        <time>2011-12-01T14:17:11Z</time>
      </trkpt>
      <trkpt lat="46.32755" lon="-0.51578">
        <ele>50</ele>
        <time>2011-12-01T14:17:16Z</time>
      </trkpt>
      <trkpt lat="46.32756" lon="-0.51586">
        <ele>52</ele>
        <time>2011-12-01T14:17:21Z</time>
      </trkpt>
      <trkpt lat="46.32757" lon="-0.51596">
        <ele>52</ele>
        <time>2011-12-01T14:17:26Z</time>
      </trkpt>
      <trkpt lat="46.32758" lon="-0.51604">
        <ele>49</ele>
        <time>2011-12-01T14:17:31Z</time>
      </trkpt>
      <trkpt lat="46.32758" lon="-0.51613">
        <ele>49</ele>
        <time>2011-12-01T14:17:36Z</time>
      </trkpt>
      <trkpt lat="46.32762" lon="-0.51621">
        <ele>49</ele>
        <time>2011-12-01T14:17:41Z</time>
      </trkpt>
      <trkpt lat="46.32762" lon="-0.51629">
        <ele>51</ele>
        <time>2011-12-01T14:17:46Z</time>
      </trkpt>
      <trkpt lat="46.32763" lon="-0.51642">
        <ele>55</ele>
        <time>2011-12-01T14:17:51Z</time>
      </trkpt>
      <trkpt lat="46.32763" lon="-0.51649">
        <ele>55</ele>
        <time>2011-12-01T14:17:56Z</time>
      </trkpt>
      <trkpt lat="46.32766" lon="-0.51655">
        <ele>54</ele>
        <time>2011-12-01T14:18:01Z</time>
      </trkpt>
      <trkpt lat="46.32767" lon="-0.51662">
        <ele>52</ele>
        <time>2011-12-01T14:18:06Z</time>
      </trkpt>
      <trkpt lat="46.32768" lon="-0.51669">
        <ele>52</ele>
        <time>2011-12-01T14:18:11Z</time>
      </trkpt>
      <trkpt lat="46.3277" lon="-0.51677">
        <ele>53</ele>
        <time>2011-12-01T14:18:16Z</time>
      </trkpt>
      <trkpt lat="46.32772" lon="-0.51683">
        <ele>51</ele>
        <time>2011-12-01T14:18:21Z</time>
      </trkpt>
      <trkpt lat="46.32775" lon="-0.51689">
        <ele>52</ele>
        <time>2011-12-01T14:18:26Z</time>
      </trkpt>
      <trkpt lat="46.32776" lon="-0.51697">
        <ele>52</ele>
        <time>2011-12-01T14:18:31Z</time>
      </trkpt>
      <trkpt lat="46.32778" lon="-0.51703">
        <ele>52</ele>
        <time>2011-12-01T14:18:36Z</time>
      </trkpt>
      <trkpt lat="46.32781" lon="-0.51714">
        <ele>53</ele>
        <time>2011-12-01T14:18:41Z</time>
      </trkpt>
      <trkpt lat="46.32782" lon="-0.51723">
        <ele>52</ele>
        <time>2011-12-01T14:18:46Z</time>
      </trkpt>
      <trkpt lat="46.32783" lon="-0.5173">
        <ele>53</ele>
        <time>2011-12-01T14:18:51Z</time>
      </trkpt>
      <trkpt lat="46.32785" lon="-0.51738">
        <ele>53</ele>
        <time>2011-12-01T14:18:56Z</time>
      </trkpt>
      <trkpt lat="46.32789" lon="-0.51743">
        <ele>53</ele>
        <time>2011-12-01T14:19:01Z</time>
      </trkpt>
      <trkpt lat="46.3279" lon="-0.51752">
        <ele>55</ele>
        <time>2011-12-01T14:19:06Z</time>
      </trkpt>
      <trkpt lat="46.32793" lon="-0.5176">
        <ele>57</ele>
        <time>2011-12-01T14:19:11Z</time>
      </trkpt>
      <trkpt lat="46.32795" lon="-0.51767">
        <ele>58</ele>
        <time>2011-12-01T14:19:16Z</time>
      </trkpt>
      <trkpt lat="46.32796" lon="-0.51776">
        <ele>59</ele>
        <time>2011-12-01T14:19:21Z</time>
      </trkpt>
      <trkpt lat="46.32797" lon="-0.51784">
        <ele>58</ele>
        <time>2011-12-01T14:19:26Z</time>
      </trkpt>
      <trkpt lat="46.32799" lon="-0.51791">
        <ele>58</ele>
        <time>2011-12-01T14:19:31Z</time>
      </trkpt>
      <trkpt lat="46.32802" lon="-0.518">
        <ele>57</ele>
        <time>2011-12-01T14:19:36Z</time>
      </trkpt>
      <trkpt lat="46.32803" lon="-0.51809">
        <ele>59</ele>
        <time>2011-12-01T14:19:41Z</time>
      </trkpt>
      <trkpt lat="46.32805" lon="-0.51817">
        <ele>60</ele>
        <time>2011-12-01T14:19:46Z</time>
      </trkpt>
      <trkpt lat="46.32807" lon="-0.51825">
        <ele>60</ele>
        <time>2011-12-01T14:19:51Z</time>
      </trkpt>
      <trkpt lat="46.32809" lon="-0.51833">
        <ele>61</ele>
        <time>2011-12-01T14:19:56Z</time>
      </trkpt>
      <trkpt lat="46.32809" lon="-0.5184">
        <ele>63</ele>
        <time>2011-12-01T14:20:01Z</time>
      </trkpt>
      <trkpt lat="46.32811" lon="-0.51847">
        <ele>62</ele>
        <time>2011-12-01T14:20:06Z</time>
      </trkpt>
      <trkpt lat="46.32812" lon="-0.51855">
        <ele>62</ele>
        <time>2011-12-01T14:20:11Z</time>
      </trkpt>
      <trkpt lat="46.32813" lon="-0.51861">
        <ele>61</ele>
        <time>2011-12-01T14:20:16Z</time>
      </trkpt>
      <trkpt lat="46.32815" lon="-0.5187">
        <ele>60</ele>
        <time>2011-12-01T14:20:21Z</time>
      </trkpt>
      <trkpt lat="46.32817" lon="-0.51876">
        <ele>59</ele>
        <time>2011-12-01T14:20:26Z</time>
      </trkpt>
      <trkpt lat="46.32821" lon="-0.51883">
        <ele>57</ele>
        <time>2011-12-01T14:20:31Z</time>
      </trkpt>
      <trkpt lat="46.32823" lon="-0.51892">
        <ele>58</ele>
        <time>2011-12-01T14:20:36Z</time>
      </trkpt>
      <trkpt lat="46.32826" lon="-0.51899">
        <ele>58</ele>
        <time>2011-12-01T14:20:41Z</time>
      </trkpt>
      <trkpt lat="46.32826" lon="-0.51909">
        <ele>60</ele>
        <time>2011-12-01T14:20:46Z</time>
      </trkpt>
      <trkpt lat="46.32828" lon="-0.51917">
        <ele>60</ele>
        <time>2011-12-01T14:20:51Z</time>
      </trkpt>
      <trkpt lat="46.32829" lon="-0.51924">
        <ele>60</ele>
        <time>2011-12-01T14:20:56Z</time>
      </trkpt>
      <trkpt lat="46.32832" lon="-0.5193">
        <ele>60</ele>
        <time>2011-12-01T14:21:01Z</time>
      </trkpt>
      <trkpt lat="46.32834" lon="-0.51935">
        <ele>59</ele>
        <time>2011-12-01T14:21:06Z</time>
      </trkpt>
      <trkpt lat="46.32835" lon="-0.51945">
        <ele>60</ele>
        <time>2011-12-01T14:21:11Z</time>
      </trkpt>
      <trkpt lat="46.32837" lon="-0.51951">
        <ele>60</ele>
        <time>2011-12-01T14:21:16Z</time>
      </trkpt>
      <trkpt lat="46.32838" lon="-0.51958">
        <ele>59</ele>
        <time>2011-12-01T14:21:21Z</time>
      </trkpt>
      <trkpt lat="46.32841" lon="-0.51965">
        <ele>58</ele>
        <time>2011-12-01T14:21:26Z</time>
      </trkpt>
      <trkpt lat="46.32843" lon="-0.5197">
        <ele>59</ele>
        <time>2011-12-01T14:21:31Z</time>
      </trkpt>
      <trkpt lat="46.32844" lon="-0.51977">
        <ele>59</ele>
        <time>2011-12-01T14:21:36Z</time>
      </trkpt>
      <trkpt lat="46.32847" lon="-0.51982">
        <ele>59</ele>
        <time>2011-12-01T14:21:41Z</time>
      </trkpt>
      <trkpt lat="46.32849" lon="-0.51986">
        <ele>58</ele>
        <time>2011-12-01T14:21:46Z</time>
      </trkpt>
      <trkpt lat="46.3285" lon="-0.51997">
        <ele>59</ele>
        <time>2011-12-01T14:21:51Z</time>
      </trkpt>
      <trkpt lat="46.32851" lon="-0.52001">
        <ele>59</ele>
        <time>2011-12-01T14:21:56Z</time>
      </trkpt>
      <trkpt lat="46.32852" lon="-0.52004">
        <ele>59</ele>
        <time>2011-12-01T14:22:01Z</time>
      </trkpt>
      <trkpt lat="46.32856" lon="-0.52013">
        <ele>59</ele>
        <time>2011-12-01T14:22:06Z</time>
      </trkpt>
      <trkpt lat="46.32856" lon="-0.52022">
        <ele>59</ele>
        <time>2011-12-01T14:22:11Z</time>
      </trkpt>
      <trkpt lat="46.32857" lon="-0.52031">
        <ele>59</ele>
        <time>2011-12-01T14:22:16Z</time>
      </trkpt>
      <trkpt lat="46.32859" lon="-0.52038">
        <ele>59</ele>
        <time>2011-12-01T14:22:21Z</time>
      </trkpt>
      <trkpt lat="46.32861" lon="-0.52046">
        <ele>59</ele>
        <time>2011-12-01T14:22:26Z</time>
      </trkpt>
      <trkpt lat="46.32864" lon="-0.52054">
        <ele>59</ele>
        <time>2011-12-01T14:22:31Z</time>
      </trkpt>
      <trkpt lat="46.32866" lon="-0.52059">
        <ele>59</ele>
        <time>2011-12-01T14:22:36Z</time>
      </trkpt>
      <trkpt lat="46.32871" lon="-0.52063">
        <ele>59</ele>
        <time>2011-12-01T14:22:41Z</time>
      </trkpt>
      <trkpt lat="46.32877" lon="-0.52068">
        <ele>59</ele>
        <time>2011-12-01T14:22:46Z</time>
      </trkpt>
      <trkpt lat="46.32883" lon="-0.52072">
        <ele>59</ele>
        <time>2011-12-01T14:22:51Z</time>
      </trkpt>
      <trkpt lat="46.32886" lon="-0.52066">
        <ele>62</ele>
        <time>2011-12-01T14:22:56Z</time>
      </trkpt>
      <trkpt lat="46.32893" lon="-0.52068">
        <ele>61</ele>
        <time>2011-12-01T14:23:01Z</time>
      </trkpt>
      <trkpt lat="46.32899" lon="-0.52068">
        <ele>61</ele>
        <time>2011-12-01T14:23:06Z</time>
      </trkpt>
      <trkpt lat="46.329" lon="-0.52068">
        <ele>62</ele>
        <time>2011-12-01T14:23:11Z</time>
      </trkpt>
      <trkpt lat="46.32905" lon="-0.52068">
        <ele>63</ele>
        <time>2011-12-01T14:23:16Z</time>
      </trkpt>
      <trkpt lat="46.3291" lon="-0.52069">
        <ele>63</ele>
        <time>2011-12-01T14:23:21Z</time>
      </trkpt>
      <trkpt lat="46.32917" lon="-0.52068">
        <ele>65</ele>
        <time>2011-12-01T14:23:26Z</time>
      </trkpt>
      <trkpt lat="46.32922" lon="-0.52069">
        <ele>65</ele>
        <time>2011-12-01T14:23:31Z</time>
      </trkpt>
      <trkpt lat="46.32924" lon="-0.52068">
        <ele>64</ele>
        <time>2011-12-01T14:23:36Z</time>
      </trkpt>
      <trkpt lat="46.32924" lon="-0.52069">
        <ele>65</ele>
        <time>2011-12-01T14:23:41Z</time>
      </trkpt>
      <trkpt lat="46.32927" lon="-0.52068">
        <ele>65</ele>
        <time>2011-12-01T14:23:46Z</time>
      </trkpt>
      <trkpt lat="46.32932" lon="-0.52073">
        <ele>63</ele>
        <time>2011-12-01T14:23:51Z</time>
      </trkpt>
      <trkpt lat="46.32934" lon="-0.52072">
        <ele>63</ele>
        <time>2011-12-01T14:23:56Z</time>
      </trkpt>
      <trkpt lat="46.32938" lon="-0.52072">
        <ele>63</ele>
        <time>2011-12-01T14:24:01Z</time>
      </trkpt>
      <trkpt lat="46.32942" lon="-0.52077">
        <ele>62</ele>
        <time>2011-12-01T14:24:06Z</time>
      </trkpt>
      <trkpt lat="46.32943" lon="-0.52078">
        <ele>61</ele>
        <time>2011-12-01T14:24:11Z</time>
      </trkpt>
      <trkpt lat="46.32942" lon="-0.5208">
        <ele>61</ele>
        <time>2011-12-01T14:24:16Z</time>
      </trkpt>
      <trkpt lat="46.32948" lon="-0.52088">
        <ele>60</ele>
        <time>2011-12-01T14:24:21Z</time>
      </trkpt>
      <trkpt lat="46.32951" lon="-0.52093">
        <ele>60</ele>
        <time>2011-12-01T14:24:26Z</time>
      </trkpt>
      <trkpt lat="46.32953" lon="-0.52101">
        <ele>60</ele>
        <time>2011-12-01T14:24:31Z</time>
      </trkpt>
      <trkpt lat="46.32955" lon="-0.52109">
        <ele>60</ele>
        <time>2011-12-01T14:24:36Z</time>
      </trkpt>
      <trkpt lat="46.32954" lon="-0.52112">
        <ele>59</ele>
        <time>2011-12-01T14:24:41Z</time>
      </trkpt>
      <trkpt lat="46.32954" lon="-0.52116">
        <ele>59</ele>
        <time>2011-12-01T14:24:46Z</time>
      </trkpt>
      <trkpt lat="46.32957" lon="-0.52123">
        <ele>60</ele>
        <time>2011-12-01T14:24:51Z</time>
      </trkpt>
      <trkpt lat="46.32959" lon="-0.5213">
        <ele>64</ele>
        <time>2011-12-01T14:24:56Z</time>
      </trkpt>
      <trkpt lat="46.32959" lon="-0.52137">
        <ele>65</ele>
        <time>2011-12-01T14:25:01Z</time>
      </trkpt>
      <trkpt lat="46.32962" lon="-0.52139">
        <ele>66</ele>
        <time>2011-12-01T14:25:06Z</time>
      </trkpt>
      <trkpt lat="46.32962" lon="-0.52145">
        <ele>66</ele>
        <time>2011-12-01T14:25:11Z</time>
      </trkpt>
      <trkpt lat="46.32963" lon="-0.52153">
        <ele>65</ele>
        <time>2011-12-01T14:25:16Z</time>
      </trkpt>
      <trkpt lat="46.32965" lon="-0.5216">
        <ele>65</ele>
        <time>2011-12-01T14:25:21Z</time>
      </trkpt>
      <trkpt lat="46.32965" lon="-0.52167">
        <ele>65</ele>
        <time>2011-12-01T14:25:26Z</time>
      </trkpt>
      <trkpt lat="46.32966" lon="-0.52178">
        <ele>66</ele>
        <time>2011-12-01T14:25:31Z</time>
      </trkpt>
      <trkpt lat="46.32968" lon="-0.52185">
        <ele>66</ele>
        <time>2011-12-01T14:25:36Z</time>
      </trkpt>
      <trkpt lat="46.32971" lon="-0.52193">
        <ele>65</ele>
        <time>2011-12-01T14:25:41Z</time>
      </trkpt>
      <trkpt lat="46.32972" lon="-0.52198">
        <ele>65</ele>
        <time>2011-12-01T14:25:46Z</time>
      </trkpt>
      <trkpt lat="46.32975" lon="-0.52207">
        <ele>64</ele>
        <time>2011-12-01T14:25:51Z</time>
      </trkpt>
      <trkpt lat="46.32975" lon="-0.52214">
        <ele>63</ele>
        <time>2011-12-01T14:25:56Z</time>
      </trkpt>
      <trkpt lat="46.32978" lon="-0.52218">
        <ele>63</ele>
        <time>2011-12-01T14:26:01Z</time>
      </trkpt>
      <trkpt lat="46.32982" lon="-0.52222">
        <ele>63</ele>
        <time>2011-12-01T14:26:06Z</time>
      </trkpt>
      <trkpt lat="46.32981" lon="-0.52229">
        <ele>63</ele>
        <time>2011-12-01T14:26:11Z</time>
      </trkpt>
      <trkpt lat="46.32983" lon="-0.52238">
        <ele>61</ele>
        <time>2011-12-01T14:26:16Z</time>
      </trkpt>
      <trkpt lat="46.32982" lon="-0.52246">
        <ele>64</ele>
        <time>2011-12-01T14:26:21Z</time>
      </trkpt>
      <trkpt lat="46.32984" lon="-0.52252">
        <ele>63</ele>
        <time>2011-12-01T14:26:26Z</time>
      </trkpt>
      <trkpt lat="46.32985" lon="-0.5226">
        <ele>64</ele>
        <time>2011-12-01T14:26:31Z</time>
      </trkpt>
      <trkpt lat="46.32987" lon="-0.52267">
        <ele>64</ele>
        <time>2011-12-01T14:26:36Z</time>
      </trkpt>
      <trkpt lat="46.32988" lon="-0.52274">
        <ele>61</ele>
        <time>2011-12-01T14:26:41Z</time>
      </trkpt>
      <trkpt lat="46.32991" lon="-0.52279">
        <ele>58</ele>
        <time>2011-12-01T14:26:46Z</time>
      </trkpt>
      <trkpt lat="46.32993" lon="-0.52286">
        <ele>57</ele>
        <time>2011-12-01T14:26:51Z</time>
      </trkpt>
      <trkpt lat="46.32995" lon="-0.52292">
        <ele>56</ele>
        <time>2011-12-01T14:26:56Z</time>
      </trkpt>
      <trkpt lat="46.32995" lon="-0.523">
        <ele>58</ele>
        <time>2011-12-01T14:27:01Z</time>
      </trkpt>
      <trkpt lat="46.32997" lon="-0.52307">
        <ele>57</ele>
        <time>2011-12-01T14:27:06Z</time>
      </trkpt>
      <trkpt lat="46.32999" lon="-0.52314">
        <ele>57</ele>
        <time>2011-12-01T14:27:11Z</time>
      </trkpt>
      <trkpt lat="46.33001" lon="-0.52322">
        <ele>58</ele>
        <time>2011-12-01T14:27:16Z</time>
      </trkpt>
      <trkpt lat="46.33003" lon="-0.5233">
        <ele>56</ele>
        <time>2011-12-01T14:27:21Z</time>
      </trkpt>
      <trkpt lat="46.33005" lon="-0.52338">
        <ele>54</ele>
        <time>2011-12-01T14:27:26Z</time>
      </trkpt>
      <trkpt lat="46.33006" lon="-0.52346">
        <ele>54</ele>
        <time>2011-12-01T14:27:31Z</time>
      </trkpt>
      <trkpt lat="46.33008" lon="-0.52352">
        <ele>54</ele>
        <time>2011-12-01T14:27:36Z</time>
      </trkpt>
      <trkpt lat="46.33011" lon="-0.52357">
        <ele>52</ele>
        <time>2011-12-01T14:27:41Z</time>
      </trkpt>
      <trkpt lat="46.33013" lon="-0.52364">
        <ele>51</ele>
        <time>2011-12-01T14:27:46Z</time>
      </trkpt>
      <trkpt lat="46.33019" lon="-0.52364">
        <ele>47</ele>
        <time>2011-12-01T14:27:51Z</time>
      </trkpt>
      <trkpt lat="46.3302" lon="-0.52371">
        <ele>47</ele>
        <time>2011-12-01T14:27:56Z</time>
      </trkpt>
      <trkpt lat="46.33021" lon="-0.5238">
        <ele>48</ele>
        <time>2011-12-01T14:28:01Z</time>
      </trkpt>
      <trkpt lat="46.33023" lon="-0.52388">
        <ele>48</ele>
        <time>2011-12-01T14:28:06Z</time>
      </trkpt>
      <trkpt lat="46.33024" lon="-0.52397">
        <ele>48</ele>
        <time>2011-12-01T14:28:11Z</time>
      </trkpt>
      <trkpt lat="46.33028" lon="-0.52403">
        <ele>47</ele>
        <time>2011-12-01T14:28:16Z</time>
      </trkpt>
      <trkpt lat="46.3303" lon="-0.52411">
        <ele>49</ele>
        <time>2011-12-01T14:28:21Z</time>
      </trkpt>
      <trkpt lat="46.33032" lon="-0.52417">
        <ele>48</ele>
        <time>2011-12-01T14:28:26Z</time>
      </trkpt>
      <trkpt lat="46.33035" lon="-0.52423">
        <ele>47</ele>
        <time>2011-12-01T14:28:31Z</time>
      </trkpt>
      <trkpt lat="46.33036" lon="-0.52432">
        <ele>47</ele>
        <time>2011-12-01T14:28:36Z</time>
      </trkpt>
      <trkpt lat="46.33039" lon="-0.5244">
        <ele>47</ele>
        <time>2011-12-01T14:28:41Z</time>
      </trkpt>
      <trkpt lat="46.33041" lon="-0.52451">
        <ele>50</ele>
        <time>2011-12-01T14:28:46Z</time>
      </trkpt>
      <trkpt lat="46.33043" lon="-0.52458">
        <ele>50</ele>
        <time>2011-12-01T14:28:51Z</time>
      </trkpt>
      <trkpt lat="46.33046" lon="-0.52464">
        <ele>50</ele>
        <time>2011-12-01T14:28:56Z</time>
      </trkpt>
      <trkpt lat="46.33048" lon="-0.52472">
        <ele>51</ele>
        <time>2011-12-01T14:29:01Z</time>
      </trkpt>
      <trkpt lat="46.33049" lon="-0.52477">
        <ele>50</ele>
        <time>2011-12-01T14:29:06Z</time>
      </trkpt>
      <trkpt lat="46.33053" lon="-0.52485">
        <ele>51</ele>
        <time>2011-12-01T14:29:11Z</time>
      </trkpt>
      <trkpt lat="46.33054" lon="-0.52495">
        <ele>51</ele>
        <time>2011-12-01T14:29:16Z</time>
      </trkpt>
      <trkpt lat="46.33056" lon="-0.52504">
        <ele>52</ele>
        <time>2011-12-01T14:29:21Z</time>
      </trkpt>
      <trkpt lat="46.33058" lon="-0.52511">
        <ele>53</ele>
        <time>2011-12-01T14:29:26Z</time>
      </trkpt>
      <trkpt lat="46.33059" lon="-0.5252">
        <ele>56</ele>
        <time>2011-12-01T14:29:31Z</time>
      </trkpt>
      <trkpt lat="46.33061" lon="-0.52529">
        <ele>56</ele>
        <time>2011-12-01T14:29:36Z</time>
      </trkpt>
      <trkpt lat="46.33065" lon="-0.52535">
        <ele>59</ele>
        <time>2011-12-01T14:29:41Z</time>
      </trkpt>
      <trkpt lat="46.33067" lon="-0.52542">
        <ele>59</ele>
        <time>2011-12-01T14:29:46Z</time>
      </trkpt>
      <trkpt lat="46.33069" lon="-0.52551">
        <ele>61</ele>
        <time>2011-12-01T14:29:51Z</time>
      </trkpt>
      <trkpt lat="46.33072" lon="-0.52558">
        <ele>60</ele>
        <time>2011-12-01T14:29:56Z</time>
      </trkpt>
      <trkpt lat="46.33075" lon="-0.52568">
        <ele>59</ele>
        <time>2011-12-01T14:30:01Z</time>
      </trkpt>
      <trkpt lat="46.33076" lon="-0.52578">
        <ele>59</ele>
        <time>2011-12-01T14:30:06Z</time>
      </trkpt>
      <trkpt lat="46.3308" lon="-0.5258">
        <ele>58</ele>
        <time>2011-12-01T14:30:11Z</time>
      </trkpt>
      <trkpt lat="46.33084" lon="-0.52586">
        <ele>58</ele>
        <time>2011-12-01T14:30:16Z</time>
      </trkpt>
      <trkpt lat="46.33086" lon="-0.52592">
        <ele>56</ele>
        <time>2011-12-01T14:30:21Z</time>
      </trkpt>
      <trkpt lat="46.33087" lon="-0.526">
        <ele>55</ele>
        <time>2011-12-01T14:30:26Z</time>
      </trkpt>
      <trkpt lat="46.3309" lon="-0.52607">
        <ele>55</ele>
        <time>2011-12-01T14:30:31Z</time>
      </trkpt>
      <trkpt lat="46.33091" lon="-0.52615">
        <ele>56</ele>
        <time>2011-12-01T14:30:36Z</time>
      </trkpt>
      <trkpt lat="46.33093" lon="-0.52622">
        <ele>55</ele>
        <time>2011-12-01T14:30:41Z</time>
      </trkpt>
      <trkpt lat="46.33095" lon="-0.52628">
        <ele>54</ele>
        <time>2011-12-01T14:30:46Z</time>
      </trkpt>
      <trkpt lat="46.33098" lon="-0.52636">
        <ele>53</ele>
        <time>2011-12-01T14:30:51Z</time>
      </trkpt>
      <trkpt lat="46.331" lon="-0.52645">
        <ele>53</ele>
        <time>2011-12-01T14:30:56Z</time>
      </trkpt>
      <trkpt lat="46.33102" lon="-0.52652">
        <ele>54</ele>
        <time>2011-12-01T14:31:01Z</time>
      </trkpt>
      <trkpt lat="46.33105" lon="-0.52661">
        <ele>53</ele>
        <time>2011-12-01T14:31:06Z</time>
      </trkpt>
      <trkpt lat="46.33107" lon="-0.5267">
        <ele>54</ele>
        <time>2011-12-01T14:31:11Z</time>
      </trkpt>
      <trkpt lat="46.33109" lon="-0.52678">
        <ele>53</ele>
        <time>2011-12-01T14:31:16Z</time>
      </trkpt>
      <trkpt lat="46.33112" lon="-0.52684">
        <ele>53</ele>
        <time>2011-12-01T14:31:21Z</time>
      </trkpt>
      <trkpt lat="46.33114" lon="-0.52691">
        <ele>54</ele>
        <time>2011-12-01T14:31:26Z</time>
      </trkpt>
      <trkpt lat="46.33115" lon="-0.527">
        <ele>55</ele>
        <time>2011-12-01T14:31:31Z</time>
      </trkpt>
      <trkpt lat="46.33117" lon="-0.52706">
        <ele>55</ele>
        <time>2011-12-01T14:31:36Z</time>
      </trkpt>
      <trkpt lat="46.33119" lon="-0.52715">
        <ele>56</ele>
        <time>2011-12-01T14:31:41Z</time>
      </trkpt>
      <trkpt lat="46.33121" lon="-0.52721">
        <ele>56</ele>
        <time>2011-12-01T14:31:46Z</time>
      </trkpt>
      <trkpt lat="46.33123" lon="-0.52729">
        <ele>57</ele>
        <time>2011-12-01T14:31:51Z</time>
      </trkpt>
      <trkpt lat="46.33126" lon="-0.52737">
        <ele>56</ele>
        <time>2011-12-01T14:31:56Z</time>
      </trkpt>
      <trkpt lat="46.33128" lon="-0.52745">
        <ele>56</ele>
        <time>2011-12-01T14:32:01Z</time>
      </trkpt>
      <trkpt lat="46.3313" lon="-0.52752">
        <ele>56</ele>
        <time>2011-12-01T14:32:06Z</time>
      </trkpt>
      <trkpt lat="46.33135" lon="-0.52764">
        <ele>56</ele>
        <time>2011-12-01T14:32:11Z</time>
      </trkpt>
      <trkpt lat="46.33138" lon="-0.52767">
        <ele>54</ele>
        <time>2011-12-01T14:32:16Z</time>
      </trkpt>
      <trkpt lat="46.33139" lon="-0.52775">
        <ele>54</ele>
        <time>2011-12-01T14:32:21Z</time>
      </trkpt>
      <trkpt lat="46.3314" lon="-0.52782">
        <ele>57</ele>
        <time>2011-12-01T14:32:26Z</time>
      </trkpt>
      <trkpt lat="46.33145" lon="-0.52782">
        <ele>51</ele>
        <time>2011-12-01T14:32:31Z</time>
      </trkpt>
      <trkpt lat="46.33148" lon="-0.5279">
        <ele>51</ele>
        <time>2011-12-01T14:32:36Z</time>
      </trkpt>
      <trkpt lat="46.3315" lon="-0.52796">
        <ele>51</ele>
        <time>2011-12-01T14:32:41Z</time>
      </trkpt>
      <trkpt lat="46.33153" lon="-0.52806">
        <ele>51</ele>
        <time>2011-12-01T14:32:46Z</time>
      </trkpt>
      <trkpt lat="46.33155" lon="-0.52814">
        <ele>51</ele>
        <time>2011-12-01T14:32:51Z</time>
      </trkpt>
      <trkpt lat="46.33157" lon="-0.5282">
        <ele>49</ele>
        <time>2011-12-01T14:32:56Z</time>
      </trkpt>
      <trkpt lat="46.33161" lon="-0.52824">
        <ele>50</ele>
        <time>2011-12-01T14:33:01Z</time>
      </trkpt>
      <trkpt lat="46.33164" lon="-0.52833">
        <ele>48</ele>
        <time>2011-12-01T14:33:06Z</time>
      </trkpt>
      <trkpt lat="46.33166" lon="-0.52839">
        <ele>48</ele>
        <time>2011-12-01T14:33:11Z</time>
      </trkpt>
      <trkpt lat="46.33167" lon="-0.52848">
        <ele>48</ele>
        <time>2011-12-01T14:33:16Z</time>
      </trkpt>
      <trkpt lat="46.33167" lon="-0.52856">
        <ele>48</ele>
        <time>2011-12-01T14:33:21Z</time>
      </trkpt>
      <trkpt lat="46.33165" lon="-0.52859">
        <ele>50</ele>
        <time>2011-12-01T14:33:26Z</time>
      </trkpt>
      <trkpt lat="46.33163" lon="-0.52869">
        <ele>51</ele>
        <time>2011-12-01T14:33:31Z</time>
      </trkpt>
      <trkpt lat="46.3316" lon="-0.52877">
        <ele>52</ele>
        <time>2011-12-01T14:33:36Z</time>
      </trkpt>
      <trkpt lat="46.33155" lon="-0.52881">
        <ele>49</ele>
        <time>2011-12-01T14:33:41Z</time>
      </trkpt>
      <trkpt lat="46.33151" lon="-0.52885">
        <ele>48</ele>
        <time>2011-12-01T14:33:46Z</time>
      </trkpt>
      <trkpt lat="46.33147" lon="-0.52889">
        <ele>49</ele>
        <time>2011-12-01T14:33:51Z</time>
      </trkpt>
      <trkpt lat="46.33144" lon="-0.52896">
        <ele>49</ele>
        <time>2011-12-01T14:33:56Z</time>
      </trkpt>
      <trkpt lat="46.33139" lon="-0.52901">
        <ele>48</ele>
        <time>2011-12-01T14:34:01Z</time>
      </trkpt>
      <trkpt lat="46.33135" lon="-0.52906">
        <ele>48</ele>
        <time>2011-12-01T14:34:06Z</time>
      </trkpt>
      <trkpt lat="46.33131" lon="-0.52912">
        <ele>48</ele>
        <time>2011-12-01T14:34:11Z</time>
      </trkpt>
      <trkpt lat="46.33126" lon="-0.52916">
        <ele>48</ele>
        <time>2011-12-01T14:34:16Z</time>
      </trkpt>
      <trkpt lat="46.33121" lon="-0.52922">
        <ele>48</ele>
        <time>2011-12-01T14:34:21Z</time>
      </trkpt>
      <trkpt lat="46.33117" lon="-0.52926">
        <ele>47</ele>
        <time>2011-12-01T14:34:26Z</time>
      </trkpt>
      <trkpt lat="46.33113" lon="-0.52932">
        <ele>47</ele>
        <time>2011-12-01T14:34:31Z</time>
      </trkpt>
      <trkpt lat="46.33108" lon="-0.52938">
        <ele>47</ele>
        <time>2011-12-01T14:34:36Z</time>
      </trkpt>
      <trkpt lat="46.33105" lon="-0.52947">
        <ele>47</ele>
        <time>2011-12-01T14:34:41Z</time>
      </trkpt>
      <trkpt lat="46.33104" lon="-0.52953">
        <ele>49</ele>
        <time>2011-12-01T14:34:46Z</time>
      </trkpt>
      <trkpt lat="46.33108" lon="-0.52956">
        <ele>50</ele>
        <time>2011-12-01T14:34:51Z</time>
      </trkpt>
      <trkpt lat="46.33112" lon="-0.52962">
        <ele>50</ele>
        <time>2011-12-01T14:34:56Z</time>
      </trkpt>
      <trkpt lat="46.33116" lon="-0.52966">
        <ele>50</ele>
        <time>2011-12-01T14:35:01Z</time>
      </trkpt>
      <trkpt lat="46.33119" lon="-0.52968">
        <ele>50</ele>
        <time>2011-12-01T14:35:06Z</time>
      </trkpt>
      <trkpt lat="46.33123" lon="-0.52975">
        <ele>51</ele>
        <time>2011-12-01T14:35:11Z</time>
      </trkpt>
      <trkpt lat="46.33128" lon="-0.52986">
        <ele>54</ele>
        <time>2011-12-01T14:35:16Z</time>
      </trkpt>
      <trkpt lat="46.33131" lon="-0.52993">
        <ele>56</ele>
        <time>2011-12-01T14:35:21Z</time>
      </trkpt>
      <trkpt lat="46.33135" lon="-0.52998">
        <ele>56</ele>
        <time>2011-12-01T14:35:26Z</time>
      </trkpt>
      <trkpt lat="46.33139" lon="-0.53004">
        <ele>56</ele>
        <time>2011-12-01T14:35:31Z</time>
      </trkpt>
      <trkpt lat="46.33143" lon="-0.5301">
        <ele>55</ele>
        <time>2011-12-01T14:35:36Z</time>
      </trkpt>
      <trkpt lat="46.33146" lon="-0.53017">
        <ele>56</ele>
        <time>2011-12-01T14:35:41Z</time>
      </trkpt>
      <trkpt lat="46.3315" lon="-0.53024">
        <ele>56</ele>
        <time>2011-12-01T14:35:46Z</time>
      </trkpt>
      <trkpt lat="46.33153" lon="-0.53032">
        <ele>57</ele>
        <time>2011-12-01T14:35:51Z</time>
      </trkpt>
      <trkpt lat="46.33157" lon="-0.53038">
        <ele>57</ele>
        <time>2011-12-01T14:35:56Z</time>
      </trkpt>
      <trkpt lat="46.33161" lon="-0.53046">
        <ele>57</ele>
        <time>2011-12-01T14:36:01Z</time>
      </trkpt>
      <trkpt lat="46.33164" lon="-0.53052">
        <ele>57</ele>
        <time>2011-12-01T14:36:06Z</time>
      </trkpt>
      <trkpt lat="46.33168" lon="-0.53058">
        <ele>57</ele>
        <time>2011-12-01T14:36:11Z</time>
      </trkpt>
      <trkpt lat="46.33174" lon="-0.53066">
        <ele>58</ele>
        <time>2011-12-01T14:36:16Z</time>
      </trkpt>
      <trkpt lat="46.33177" lon="-0.53069">
        <ele>57</ele>
        <time>2011-12-01T14:36:21Z</time>
      </trkpt>
      <trkpt lat="46.33181" lon="-0.53075">
        <ele>57</ele>
        <time>2011-12-01T14:36:26Z</time>
      </trkpt>
      <trkpt lat="46.33185" lon="-0.53082">
        <ele>56</ele>
        <time>2011-12-01T14:36:31Z</time>
      </trkpt>
      <trkpt lat="46.33187" lon="-0.53086">
        <ele>57</ele>
        <time>2011-12-01T14:36:36Z</time>
      </trkpt>
      <trkpt lat="46.3319" lon="-0.53091">
        <ele>56</ele>
        <time>2011-12-01T14:36:41Z</time>
      </trkpt>
      <trkpt lat="46.33192" lon="-0.531">
        <ele>59</ele>
        <time>2011-12-01T14:36:46Z</time>
      </trkpt>
      <trkpt lat="46.33195" lon="-0.53108">
        <ele>58</ele>
        <time>2011-12-01T14:36:51Z</time>
      </trkpt>
      <trkpt lat="46.33201" lon="-0.53114">
        <ele>58</ele>
        <time>2011-12-01T14:36:56Z</time>
      </trkpt>
      <trkpt lat="46.33203" lon="-0.53118">
        <ele>58</ele>
        <time>2011-12-01T14:37:01Z</time>
      </trkpt>
      <trkpt lat="46.33205" lon="-0.53125">
        <ele>56</ele>
        <time>2011-12-01T14:37:06Z</time>
      </trkpt>
      <trkpt lat="46.33207" lon="-0.53131">
        <ele>55</ele>
        <time>2011-12-01T14:37:11Z</time>
      </trkpt>
      <trkpt lat="46.3321" lon="-0.53133">
        <ele>53</ele>
        <time>2011-12-01T14:37:16Z</time>
      </trkpt>
      <trkpt lat="46.33211" lon="-0.53145">
        <ele>54</ele>
        <time>2011-12-01T14:37:21Z</time>
      </trkpt>
      <trkpt lat="46.33213" lon="-0.53154">
        <ele>54</ele>
        <time>2011-12-01T14:37:26Z</time>
      </trkpt>
      <trkpt lat="46.33216" lon="-0.5316">
        <ele>53</ele>
        <time>2011-12-01T14:37:31Z</time>
      </trkpt>
      <trkpt lat="46.33217" lon="-0.53167">
        <ele>54</ele>
        <time>2011-12-01T14:37:36Z</time>
      </trkpt>
      <trkpt lat="46.33219" lon="-0.53175">
        <ele>55</ele>
        <time>2011-12-01T14:37:41Z</time>
      </trkpt>
      <trkpt lat="46.33222" lon="-0.53181">
        <ele>55</ele>
        <time>2011-12-01T14:37:46Z</time>
      </trkpt>
      <trkpt lat="46.33224" lon="-0.53188">
        <ele>55</ele>
        <time>2011-12-01T14:37:51Z</time>
      </trkpt>
      <trkpt lat="46.33226" lon="-0.53201">
        <ele>55</ele>
        <time>2011-12-01T14:37:56Z</time>
      </trkpt>
      <trkpt lat="46.33229" lon="-0.53208">
        <ele>54</ele>
        <time>2011-12-01T14:38:01Z</time>
      </trkpt>
      <trkpt lat="46.33233" lon="-0.53208">
        <ele>52</ele>
        <time>2011-12-01T14:38:06Z</time>
      </trkpt>
      <trkpt lat="46.33238" lon="-0.53214">
        <ele>49</ele>
        <time>2011-12-01T14:38:11Z</time>
      </trkpt>
      <trkpt lat="46.33241" lon="-0.53222">
        <ele>50</ele>
        <time>2011-12-01T14:38:16Z</time>
      </trkpt>
      <trkpt lat="46.33241" lon="-0.53232">
        <ele>52</ele>
        <time>2011-12-01T14:38:21Z</time>
      </trkpt>
      <trkpt lat="46.33245" lon="-0.53239">
        <ele>53</ele>
        <time>2011-12-01T14:38:26Z</time>
      </trkpt>
      <trkpt lat="46.33248" lon="-0.53246">
        <ele>55</ele>
        <time>2011-12-01T14:38:31Z</time>
      </trkpt>
      <trkpt lat="46.33253" lon="-0.53252">
        <ele>55</ele>
        <time>2011-12-01T14:38:36Z</time>
      </trkpt>
      <trkpt lat="46.33255" lon="-0.53263">
        <ele>56</ele>
        <time>2011-12-01T14:38:41Z</time>
      </trkpt>
      <trkpt lat="46.33258" lon="-0.53269">
        <ele>55</ele>
        <time>2011-12-01T14:38:46Z</time>
      </trkpt>
      <trkpt lat="46.33262" lon="-0.53275">
        <ele>55</ele>
        <time>2011-12-01T14:38:51Z</time>
      </trkpt>
      <trkpt lat="46.33264" lon="-0.53282">
        <ele>55</ele>
        <time>2011-12-01T14:38:56Z</time>
      </trkpt>
      <trkpt lat="46.33267" lon="-0.53289">
        <ele>55</ele>
        <time>2011-12-01T14:39:01Z</time>
      </trkpt>
      <trkpt lat="46.3327" lon="-0.53294">
        <ele>55</ele>
        <time>2011-12-01T14:39:06Z</time>
      </trkpt>
      <trkpt lat="46.33272" lon="-0.53302">
        <ele>54</ele>
        <time>2011-12-01T14:39:11Z</time>
      </trkpt>
      <trkpt lat="46.33275" lon="-0.53307">
        <ele>55</ele>
        <time>2011-12-01T14:39:16Z</time>
      </trkpt>
      <trkpt lat="46.33277" lon="-0.53318">
        <ele>56</ele>
        <time>2011-12-01T14:39:21Z</time>
      </trkpt>
      <trkpt lat="46.3328" lon="-0.53326">
        <ele>56</ele>
        <time>2011-12-01T14:39:26Z</time>
      </trkpt>
      <trkpt lat="46.33282" lon="-0.53333">
        <ele>57</ele>
        <time>2011-12-01T14:39:31Z</time>
      </trkpt>
      <trkpt lat="46.33284" lon="-0.53343">
        <ele>58</ele>
        <time>2011-12-01T14:39:36Z</time>
      </trkpt>
      <trkpt lat="46.33286" lon="-0.5335">
        <ele>60</ele>
        <time>2011-12-01T14:39:41Z</time>
      </trkpt>
      <trkpt lat="46.3329" lon="-0.53358">
        <ele>61</ele>
        <time>2011-12-01T14:39:46Z</time>
      </trkpt>
      <trkpt lat="46.33293" lon="-0.53362">
        <ele>61</ele>
        <time>2011-12-01T14:39:51Z</time>
      </trkpt>
      <trkpt lat="46.33296" lon="-0.53367">
        <ele>58</ele>
        <time>2011-12-01T14:39:56Z</time>
      </trkpt>
      <trkpt lat="46.33298" lon="-0.53374">
        <ele>58</ele>
        <time>2011-12-01T14:40:01Z</time>
      </trkpt>
      <trkpt lat="46.333" lon="-0.53382">
        <ele>59</ele>
        <time>2011-12-01T14:40:06Z</time>
      </trkpt>
      <trkpt lat="46.33302" lon="-0.53388">
        <ele>59</ele>
        <time>2011-12-01T14:40:11Z</time>
      </trkpt>
      <trkpt lat="46.33306" lon="-0.53393">
        <ele>60</ele>
        <time>2011-12-01T14:40:16Z</time>
      </trkpt>
      <trkpt lat="46.33309" lon="-0.53402">
        <ele>58</ele>
        <time>2011-12-01T14:40:21Z</time>
      </trkpt>
      <trkpt lat="46.33312" lon="-0.53411">
        <ele>59</ele>
        <time>2011-12-01T14:40:26Z</time>
      </trkpt>
      <trkpt lat="46.33311" lon="-0.53417">
        <ele>58</ele>
        <time>2011-12-01T14:40:31Z</time>
      </trkpt>
      <trkpt lat="46.33307" lon="-0.5342">
        <ele>57</ele>
        <time>2011-12-01T14:40:36Z</time>
      </trkpt>
      <trkpt lat="46.33304" lon="-0.53422">
        <ele>54</ele>
        <time>2011-12-01T14:40:41Z</time>
      </trkpt>
      <trkpt lat="46.333" lon="-0.53426">
        <ele>54</ele>
        <time>2011-12-01T14:40:46Z</time>
      </trkpt>
      <trkpt lat="46.33297" lon="-0.53428">
        <ele>54</ele>
        <time>2011-12-01T14:40:51Z</time>
      </trkpt>
      <trkpt lat="46.33293" lon="-0.5343">
        <ele>53</ele>
        <time>2011-12-01T14:40:56Z</time>
      </trkpt>
      <trkpt lat="46.33292" lon="-0.53433">
        <ele>52</ele>
        <time>2011-12-01T14:41:01Z</time>
      </trkpt>
      <trkpt lat="46.33288" lon="-0.53434">
        <ele>51</ele>
        <time>2011-12-01T14:41:06Z</time>
      </trkpt>
      <trkpt lat="46.33283" lon="-0.53437">
        <ele>51</ele>
        <time>2011-12-01T14:41:11Z</time>
      </trkpt>
      <trkpt lat="46.33278" lon="-0.53439">
        <ele>52</ele>
        <time>2011-12-01T14:41:16Z</time>
      </trkpt>
      <trkpt lat="46.33273" lon="-0.53441">
        <ele>52</ele>
        <time>2011-12-01T14:41:21Z</time>
      </trkpt>
      <trkpt lat="46.33268" lon="-0.53444">
        <ele>51</ele>
        <time>2011-12-01T14:41:26Z</time>
      </trkpt>
      <trkpt lat="46.33263" lon="-0.53446">
        <ele>51</ele>
        <time>2011-12-01T14:41:31Z</time>
      </trkpt>
      <trkpt lat="46.3326" lon="-0.53451">
        <ele>50</ele>
        <time>2011-12-01T14:41:36Z</time>
      </trkpt>
      <trkpt lat="46.33255" lon="-0.53454">
        <ele>48</ele>
        <time>2011-12-01T14:41:41Z</time>
      </trkpt>
      <trkpt lat="46.33251" lon="-0.53458">
        <ele>47</ele>
        <time>2011-12-01T14:41:46Z</time>
      </trkpt>
      <trkpt lat="46.33244" lon="-0.53459">
        <ele>47</ele>
        <time>2011-12-01T14:41:51Z</time>
      </trkpt>
      <trkpt lat="46.33238" lon="-0.53461">
        <ele>47</ele>
        <time>2011-12-01T14:41:56Z</time>
      </trkpt>
      <trkpt lat="46.33231" lon="-0.53463">
        <ele>48</ele>
        <time>2011-12-01T14:42:01Z</time>
      </trkpt>
      <trkpt lat="46.33225" lon="-0.53469">
        <ele>49</ele>
        <time>2011-12-01T14:42:06Z</time>
      </trkpt>
      <trkpt lat="46.33225" lon="-0.53469">
        <ele>49</ele>
        <time>2011-12-01T14:42:11Z</time>
      </trkpt>
      <trkpt lat="46.33225" lon="-0.53469">
        <ele>48</ele>
        <time>2011-12-01T14:42:16Z</time>
      </trkpt>
      <trkpt lat="46.33224" lon="-0.5347">
        <ele>49</ele>
        <time>2011-12-01T14:42:21Z</time>
      </trkpt>
      <trkpt lat="46.33225" lon="-0.5347">
        <ele>49</ele>
        <time>2011-12-01T14:42:26Z</time>
      </trkpt>
      <trkpt lat="46.33224" lon="-0.53469">
        <ele>49</ele>
        <time>2011-12-01T14:42:31Z</time>
      </trkpt>
      <trkpt lat="46.33221" lon="-0.5347">
        <ele>52</ele>
        <time>2011-12-01T14:42:41Z</time>
      </trkpt>
      <trkpt lat="46.33216" lon="-0.53472">
        <ele>49</ele>
        <time>2011-12-01T14:42:46Z</time>
      </trkpt>
      <trkpt lat="46.33214" lon="-0.53472">
        <ele>50</ele>
        <time>2011-12-01T14:42:51Z</time>
      </trkpt>
      <trkpt lat="46.33212" lon="-0.53473">
        <ele>50</ele>
        <time>2011-12-01T14:42:56Z</time>
      </trkpt>
      <trkpt lat="46.33212" lon="-0.53473">
        <ele>51</ele>
        <time>2011-12-01T14:43:01Z</time>
      </trkpt>
      <trkpt lat="46.33211" lon="-0.53473">
        <ele>50</ele>
        <time>2011-12-01T14:43:06Z</time>
      </trkpt>
      <trkpt lat="46.33208" lon="-0.53477">
        <ele>47</ele>
        <time>2011-12-01T14:43:11Z</time>
      </trkpt>
      <trkpt lat="46.33202" lon="-0.53482">
        <ele>48</ele>
        <time>2011-12-01T14:43:16Z</time>
      </trkpt>
      <trkpt lat="46.33198" lon="-0.53485">
        <ele>48</ele>
        <time>2011-12-01T14:43:21Z</time>
      </trkpt>
      <trkpt lat="46.33194" lon="-0.53488">
        <ele>49</ele>
        <time>2011-12-01T14:43:26Z</time>
      </trkpt>
      <trkpt lat="46.33188" lon="-0.53491">
        <ele>50</ele>
        <time>2011-12-01T14:43:31Z</time>
      </trkpt>
      <trkpt lat="46.33183" lon="-0.53494">
        <ele>51</ele>
        <time>2011-12-01T14:43:36Z</time>
      </trkpt>
      <trkpt lat="46.33178" lon="-0.53497">
        <ele>50</ele>
        <time>2011-12-01T14:43:41Z</time>
      </trkpt>
      <trkpt lat="46.33172" lon="-0.53501">
        <ele>49</ele>
        <time>2011-12-01T14:43:46Z</time>
      </trkpt>
      <trkpt lat="46.33167" lon="-0.53503">
        <ele>51</ele>
        <time>2011-12-01T14:43:51Z</time>
      </trkpt>
      <trkpt lat="46.33162" lon="-0.53505">
        <ele>52</ele>
        <time>2011-12-01T14:43:56Z</time>
      </trkpt>
      <trkpt lat="46.33158" lon="-0.53508">
        <ele>51</ele>
        <time>2011-12-01T14:44:01Z</time>
      </trkpt>
      <trkpt lat="46.33151" lon="-0.53508">
        <ele>51</ele>
        <time>2011-12-01T14:44:06Z</time>
      </trkpt>
      <trkpt lat="46.33147" lon="-0.53512">
        <ele>54</ele>
        <time>2011-12-01T14:44:11Z</time>
      </trkpt>
      <trkpt lat="46.33141" lon="-0.53515">
        <ele>56</ele>
        <time>2011-12-01T14:44:16Z</time>
      </trkpt>
      <trkpt lat="46.33136" lon="-0.53519">
        <ele>54</ele>
        <time>2011-12-01T14:44:21Z</time>
      </trkpt>
      <trkpt lat="46.33131" lon="-0.53526">
        <ele>54</ele>
        <time>2011-12-01T14:44:26Z</time>
      </trkpt>
      <trkpt lat="46.33128" lon="-0.53529">
        <ele>54</ele>
        <time>2011-12-01T14:44:31Z</time>
      </trkpt>
      <trkpt lat="46.33122" lon="-0.53532">
        <ele>53</ele>
        <time>2011-12-01T14:44:36Z</time>
      </trkpt>
      <trkpt lat="46.33116" lon="-0.53536">
        <ele>54</ele>
        <time>2011-12-01T14:44:41Z</time>
      </trkpt>
      <trkpt lat="46.33111" lon="-0.53538">
        <ele>52</ele>
        <time>2011-12-01T14:44:46Z</time>
      </trkpt>
      <trkpt lat="46.33105" lon="-0.53541">
        <ele>52</ele>
        <time>2011-12-01T14:44:51Z</time>
      </trkpt>
      <trkpt lat="46.33101" lon="-0.53542">
        <ele>51</ele>
        <time>2011-12-01T14:44:56Z</time>
      </trkpt>
      <trkpt lat="46.33099" lon="-0.53545">
        <ele>52</ele>
        <time>2011-12-01T14:45:01Z</time>
      </trkpt>
      <trkpt lat="46.33091" lon="-0.53545">
        <ele>53</ele>
        <time>2011-12-01T14:45:06Z</time>
      </trkpt>
      <trkpt lat="46.33087" lon="-0.53545">
        <ele>52</ele>
        <time>2011-12-01T14:45:11Z</time>
      </trkpt>
      <trkpt lat="46.33083" lon="-0.53544">
        <ele>52</ele>
        <time>2011-12-01T14:45:16Z</time>
      </trkpt>
      <trkpt lat="46.33079" lon="-0.53542">
        <ele>52</ele>
        <time>2011-12-01T14:45:21Z</time>
      </trkpt>
      <trkpt lat="46.33072" lon="-0.5354">
        <ele>52</ele>
        <time>2011-12-01T14:45:26Z</time>
      </trkpt>
      <trkpt lat="46.33068" lon="-0.53536">
        <ele>51</ele>
        <time>2011-12-01T14:45:31Z</time>
      </trkpt>
      <trkpt lat="46.33064" lon="-0.53536">
        <ele>51</ele>
        <time>2011-12-01T14:45:36Z</time>
      </trkpt>
      <trkpt lat="46.33057" lon="-0.53537">
        <ele>53</ele>
        <time>2011-12-01T14:45:41Z</time>
      </trkpt>
      <trkpt lat="46.33053" lon="-0.53537">
        <ele>54</ele>
        <time>2011-12-01T14:45:46Z</time>
      </trkpt>
      <trkpt lat="46.33048" lon="-0.53539">
        <ele>54</ele>
        <time>2011-12-01T14:45:51Z</time>
      </trkpt>
      <trkpt lat="46.33043" lon="-0.5354">
        <ele>54</ele>
        <time>2011-12-01T14:45:56Z</time>
      </trkpt>
      <trkpt lat="46.3304" lon="-0.53543">
        <ele>53</ele>
        <time>2011-12-01T14:46:01Z</time>
      </trkpt>
      <trkpt lat="46.33036" lon="-0.53545">
        <ele>53</ele>
        <time>2011-12-01T14:46:06Z</time>
      </trkpt>
      <trkpt lat="46.3303" lon="-0.53546">
        <ele>54</ele>
        <time>2011-12-01T14:46:11Z</time>
      </trkpt>
      <trkpt lat="46.33021" lon="-0.5355">
        <ele>57</ele>
        <time>2011-12-01T14:46:16Z</time>
      </trkpt>
      <trkpt lat="46.33016" lon="-0.53551">
        <ele>57</ele>
        <time>2011-12-01T14:46:21Z</time>
      </trkpt>
      <trkpt lat="46.33009" lon="-0.53554">
        <ele>57</ele>
        <time>2011-12-01T14:46:26Z</time>
      </trkpt>
      <trkpt lat="46.33005" lon="-0.53554">
        <ele>56</ele>
        <time>2011-12-01T14:46:31Z</time>
      </trkpt>
      <trkpt lat="46.32999" lon="-0.53557">
        <ele>56</ele>
        <time>2011-12-01T14:46:36Z</time>
      </trkpt>
      <trkpt lat="46.32995" lon="-0.53558">
        <ele>55</ele>
        <time>2011-12-01T14:46:41Z</time>
      </trkpt>
      <trkpt lat="46.32991" lon="-0.5356">
        <ele>54</ele>
        <time>2011-12-01T14:46:46Z</time>
      </trkpt>
      <trkpt lat="46.32987" lon="-0.53563">
        <ele>54</ele>
        <time>2011-12-01T14:46:51Z</time>
      </trkpt>
      <trkpt lat="46.32981" lon="-0.53566">
        <ele>55</ele>
        <time>2011-12-01T14:46:56Z</time>
      </trkpt>
      <trkpt lat="46.32977" lon="-0.53569">
        <ele>54</ele>
        <time>2011-12-01T14:47:01Z</time>
      </trkpt>
      <trkpt lat="46.32973" lon="-0.53572">
        <ele>54</ele>
        <time>2011-12-01T14:47:06Z</time>
      </trkpt>
      <trkpt lat="46.3297" lon="-0.53573">
        <ele>55</ele>
        <time>2011-12-01T14:47:11Z</time>
      </trkpt>
      <trkpt lat="46.32966" lon="-0.53576">
        <ele>55</ele>
        <time>2011-12-01T14:47:16Z</time>
      </trkpt>
      <trkpt lat="46.32961" lon="-0.53581">
        <ele>53</ele>
        <time>2011-12-01T14:47:21Z</time>
      </trkpt>
      <trkpt lat="46.3296" lon="-0.53583">
        <ele>51</ele>
        <time>2011-12-01T14:47:26Z</time>
      </trkpt>
      <trkpt lat="46.32955" lon="-0.53588">
        <ele>51</ele>
        <time>2011-12-01T14:47:31Z</time>
      </trkpt>
      <trkpt lat="46.32952" lon="-0.5359">
        <ele>50</ele>
        <time>2011-12-01T14:47:36Z</time>
      </trkpt>
      <trkpt lat="46.32944" lon="-0.53598">
        <ele>56</ele>
        <time>2011-12-01T14:47:41Z</time>
      </trkpt>
      <trkpt lat="46.32941" lon="-0.53599">
        <ele>54</ele>
        <time>2011-12-01T14:47:46Z</time>
      </trkpt>
      <trkpt lat="46.32937" lon="-0.53602">
        <ele>54</ele>
        <time>2011-12-01T14:47:51Z</time>
      </trkpt>
      <trkpt lat="46.3293" lon="-0.53606">
        <ele>56</ele>
        <time>2011-12-01T14:47:56Z</time>
      </trkpt>
      <trkpt lat="46.32927" lon="-0.5361">
        <ele>53</ele>
        <time>2011-12-01T14:48:01Z</time>
      </trkpt>
      <trkpt lat="46.32924" lon="-0.53614">
        <ele>52</ele>
        <time>2011-12-01T14:48:06Z</time>
      </trkpt>
      <trkpt lat="46.32921" lon="-0.53619">
        <ele>51</ele>
        <time>2011-12-01T14:48:11Z</time>
      </trkpt>
      <trkpt lat="46.32916" lon="-0.53623">
        <ele>51</ele>
        <time>2011-12-01T14:48:16Z</time>
      </trkpt>
      <trkpt lat="46.32913" lon="-0.53628">
        <ele>52</ele>
        <time>2011-12-01T14:48:21Z</time>
      </trkpt>
      <trkpt lat="46.32908" lon="-0.53636">
        <ele>51</ele>
        <time>2011-12-01T14:48:26Z</time>
      </trkpt>
      <trkpt lat="46.32908" lon="-0.53639">
        <ele>52</ele>
        <time>2011-12-01T14:48:31Z</time>
      </trkpt>
      <trkpt lat="46.32904" lon="-0.53643">
        <ele>52</ele>
        <time>2011-12-01T14:48:36Z</time>
      </trkpt>
      <trkpt lat="46.32902" lon="-0.53651">
        <ele>52</ele>
        <time>2011-12-01T14:48:41Z</time>
      </trkpt>
      <trkpt lat="46.32895" lon="-0.53655">
        <ele>53</ele>
        <time>2011-12-01T14:48:46Z</time>
      </trkpt>
      <trkpt lat="46.32894" lon="-0.53665">
        <ele>53</ele>
        <time>2011-12-01T14:48:51Z</time>
      </trkpt>
      <trkpt lat="46.32891" lon="-0.5367">
        <ele>54</ele>
        <time>2011-12-01T14:48:56Z</time>
      </trkpt>
      <trkpt lat="46.32888" lon="-0.53676">
        <ele>54</ele>
        <time>2011-12-01T14:49:01Z</time>
      </trkpt>
      <trkpt lat="46.32882" lon="-0.53684">
        <ele>55</ele>
        <time>2011-12-01T14:49:06Z</time>
      </trkpt>
      <trkpt lat="46.32879" lon="-0.53689">
        <ele>55</ele>
        <time>2011-12-01T14:49:11Z</time>
      </trkpt>
      <trkpt lat="46.32877" lon="-0.53694">
        <ele>55</ele>
        <time>2011-12-01T14:49:16Z</time>
      </trkpt>
      <trkpt lat="46.32873" lon="-0.53703">
        <ele>54</ele>
        <time>2011-12-01T14:49:21Z</time>
      </trkpt>
      <trkpt lat="46.32872" lon="-0.53711">
        <ele>54</ele>
        <time>2011-12-01T14:49:26Z</time>
      </trkpt>
      <trkpt lat="46.32872" lon="-0.53719">
        <ele>52</ele>
        <time>2011-12-01T14:49:31Z</time>
      </trkpt>
      <trkpt lat="46.32873" lon="-0.53727">
        <ele>52</ele>
        <time>2011-12-01T14:49:36Z</time>
      </trkpt>
      <trkpt lat="46.32873" lon="-0.53736">
        <ele>52</ele>
        <time>2011-12-01T14:49:41Z</time>
      </trkpt>
      <trkpt lat="46.32873" lon="-0.53747">
        <ele>51</ele>
        <time>2011-12-01T14:49:46Z</time>
      </trkpt>
      <trkpt lat="46.32872" lon="-0.5375">
        <ele>51</ele>
        <time>2011-12-01T14:49:51Z</time>
      </trkpt>
      <trkpt lat="46.32874" lon="-0.5376">
        <ele>51</ele>
        <time>2011-12-01T14:49:56Z</time>
      </trkpt>
      <trkpt lat="46.32874" lon="-0.53769">
        <ele>55</ele>
        <time>2011-12-01T14:50:01Z</time>
      </trkpt>
      <trkpt lat="46.32878" lon="-0.53775">
        <ele>56</ele>
        <time>2011-12-01T14:50:06Z</time>
      </trkpt>
      <trkpt lat="46.32879" lon="-0.53778">
        <ele>54</ele>
        <time>2011-12-01T14:50:11Z</time>
      </trkpt>
      <trkpt lat="46.32879" lon="-0.53788">
        <ele>54</ele>
        <time>2011-12-01T14:50:16Z</time>
      </trkpt>
      <trkpt lat="46.32879" lon="-0.53799">
        <ele>57</ele>
        <time>2011-12-01T14:50:21Z</time>
      </trkpt>
      <trkpt lat="46.3288" lon="-0.53805">
        <ele>58</ele>
        <time>2011-12-01T14:50:26Z</time>
      </trkpt>
      <trkpt lat="46.32882" lon="-0.53809">
        <ele>58</ele>
        <time>2011-12-01T14:50:31Z</time>
      </trkpt>
      <trkpt lat="46.32881" lon="-0.53817">
        <ele>60</ele>
        <time>2011-12-01T14:50:36Z</time>
      </trkpt>
      <trkpt lat="46.32881" lon="-0.53825">
        <ele>60</ele>
        <time>2011-12-01T14:50:41Z</time>
      </trkpt>
      <trkpt lat="46.32881" lon="-0.53834">
        <ele>60</ele>
        <time>2011-12-01T14:50:46Z</time>
      </trkpt>
      <trkpt lat="46.32883" lon="-0.53842">
        <ele>59</ele>
        <time>2011-12-01T14:50:51Z</time>
      </trkpt>
      <trkpt lat="46.32883" lon="-0.53851">
        <ele>62</ele>
        <time>2011-12-01T14:50:56Z</time>
      </trkpt>
      <trkpt lat="46.32885" lon="-0.53857">
        <ele>62</ele>
        <time>2011-12-01T14:51:01Z</time>
      </trkpt>
      <trkpt lat="46.32885" lon="-0.53865">
        <ele>61</ele>
        <time>2011-12-01T14:51:06Z</time>
      </trkpt>
      <trkpt lat="46.32886" lon="-0.53872">
        <ele>59</ele>
        <time>2011-12-01T14:51:11Z</time>
      </trkpt>
      <trkpt lat="46.32887" lon="-0.53879">
        <ele>59</ele>
        <time>2011-12-01T14:51:16Z</time>
      </trkpt>
      <trkpt lat="46.32887" lon="-0.53888">
        <ele>58</ele>
        <time>2011-12-01T14:51:21Z</time>
      </trkpt>
      <trkpt lat="46.32888" lon="-0.53896">
        <ele>58</ele>
        <time>2011-12-01T14:51:26Z</time>
      </trkpt>
      <trkpt lat="46.3289" lon="-0.53902">
        <ele>58</ele>
        <time>2011-12-01T14:51:31Z</time>
      </trkpt>
      <trkpt lat="46.32891" lon="-0.53909">
        <ele>58</ele>
        <time>2011-12-01T14:51:36Z</time>
      </trkpt>
      <trkpt lat="46.32888" lon="-0.53918">
        <ele>59</ele>
        <time>2011-12-01T14:51:41Z</time>
      </trkpt>
      <trkpt lat="46.32888" lon="-0.53927">
        <ele>58</ele>
        <time>2011-12-01T14:51:46Z</time>
      </trkpt>
      <trkpt lat="46.3289" lon="-0.53934">
        <ele>56</ele>
        <time>2011-12-01T14:51:51Z</time>
      </trkpt>
      <trkpt lat="46.3289" lon="-0.53943">
        <ele>55</ele>
        <time>2011-12-01T14:51:56Z</time>
      </trkpt>
      <trkpt lat="46.32891" lon="-0.53949">
        <ele>53</ele>
        <time>2011-12-01T14:52:01Z</time>
      </trkpt>
      <trkpt lat="46.32893" lon="-0.53959">
        <ele>55</ele>
        <time>2011-12-01T14:52:06Z</time>
      </trkpt>
      <trkpt lat="46.32894" lon="-0.53969">
        <ele>56</ele>
        <time>2011-12-01T14:52:11Z</time>
      </trkpt>
      <trkpt lat="46.32897" lon="-0.53976">
        <ele>56</ele>
        <time>2011-12-01T14:52:16Z</time>
      </trkpt>
      <trkpt lat="46.32897" lon="-0.53982">
        <ele>57</ele>
        <time>2011-12-01T14:52:21Z</time>
      </trkpt>
      <trkpt lat="46.32898" lon="-0.53991">
        <ele>56</ele>
        <time>2011-12-01T14:52:26Z</time>
      </trkpt>
      <trkpt lat="46.32898" lon="-0.53998">
        <ele>54</ele>
        <time>2011-12-01T14:52:31Z</time>
      </trkpt>
      <trkpt lat="46.329" lon="-0.54007">
        <ele>55</ele>
        <time>2011-12-01T14:52:36Z</time>
      </trkpt>
      <trkpt lat="46.32902" lon="-0.54014">
        <ele>55</ele>
        <time>2011-12-01T14:52:41Z</time>
      </trkpt>
      <trkpt lat="46.32901" lon="-0.54021">
        <ele>55</ele>
        <time>2011-12-01T14:52:46Z</time>
      </trkpt>
      <trkpt lat="46.32901" lon="-0.54027">
        <ele>55</ele>
        <time>2011-12-01T14:52:51Z</time>
      </trkpt>
      <trkpt lat="46.32903" lon="-0.54035">
        <ele>54</ele>
        <time>2011-12-01T14:52:56Z</time>
      </trkpt>
      <trkpt lat="46.32905" lon="-0.54042">
        <ele>55</ele>
        <time>2011-12-01T14:53:01Z</time>
      </trkpt>
      <trkpt lat="46.32905" lon="-0.54048">
        <ele>54</ele>
        <time>2011-12-01T14:53:06Z</time>
      </trkpt>
      <trkpt lat="46.32906" lon="-0.54056">
        <ele>54</ele>
        <time>2011-12-01T14:53:11Z</time>
      </trkpt>
      <trkpt lat="46.32907" lon="-0.54064">
        <ele>53</ele>
        <time>2011-12-01T14:53:16Z</time>
      </trkpt>
      <trkpt lat="46.32909" lon="-0.54071">
        <ele>52</ele>
        <time>2011-12-01T14:53:21Z</time>
      </trkpt>
      <trkpt lat="46.32908" lon="-0.54079">
        <ele>53</ele>
        <time>2011-12-01T14:53:26Z</time>
      </trkpt>
      <trkpt lat="46.32908" lon="-0.54088">
        <ele>52</ele>
        <time>2011-12-01T14:53:31Z</time>
      </trkpt>
      <trkpt lat="46.32908" lon="-0.54097">
        <ele>55</ele>
        <time>2011-12-01T14:53:36Z</time>
      </trkpt>
      <trkpt lat="46.32911" lon="-0.54101">
        <ele>56</ele>
        <time>2011-12-01T14:53:41Z</time>
      </trkpt>
      <trkpt lat="46.32913" lon="-0.54105">
        <ele>54</ele>
        <time>2011-12-01T14:53:46Z</time>
      </trkpt>
      <trkpt lat="46.32913" lon="-0.54115">
        <ele>53</ele>
        <time>2011-12-01T14:53:51Z</time>
      </trkpt>
      <trkpt lat="46.32916" lon="-0.54123">
        <ele>55</ele>
        <time>2011-12-01T14:53:56Z</time>
      </trkpt>
      <trkpt lat="46.32916" lon="-0.54128">
        <ele>56</ele>
        <time>2011-12-01T14:54:01Z</time>
      </trkpt>
      <trkpt lat="46.32917" lon="-0.54127">
        <ele>55</ele>
        <time>2011-12-01T14:54:06Z</time>
      </trkpt>
      <trkpt lat="46.32918" lon="-0.54138">
        <ele>56</ele>
        <time>2011-12-01T14:54:11Z</time>
      </trkpt>
      <trkpt lat="46.32918" lon="-0.54145">
        <ele>56</ele>
        <time>2011-12-01T14:54:16Z</time>
      </trkpt>
      <trkpt lat="46.32919" lon="-0.54149">
        <ele>56</ele>
        <time>2011-12-01T14:54:21Z</time>
      </trkpt>
      <trkpt lat="46.32917" lon="-0.54155">
        <ele>55</ele>
        <time>2011-12-01T14:54:26Z</time>
      </trkpt>
      <trkpt lat="46.32921" lon="-0.54162">
        <ele>54</ele>
        <time>2011-12-01T14:54:31Z</time>
      </trkpt>
      <trkpt lat="46.32921" lon="-0.54168">
        <ele>56</ele>
        <time>2011-12-01T14:54:36Z</time>
      </trkpt>
      <trkpt lat="46.32923" lon="-0.54172">
        <ele>55</ele>
        <time>2011-12-01T14:54:41Z</time>
      </trkpt>
      <trkpt lat="46.32924" lon="-0.54177">
        <ele>54</ele>
        <time>2011-12-01T14:54:46Z</time>
      </trkpt>
      <trkpt lat="46.32927" lon="-0.54183">
        <ele>53</ele>
        <time>2011-12-01T14:54:51Z</time>
      </trkpt>
      <trkpt lat="46.32928" lon="-0.5419">
        <ele>53</ele>
        <time>2011-12-01T14:54:56Z</time>
      </trkpt>
      <trkpt lat="46.32931" lon="-0.54196">
        <ele>55</ele>
        <time>2011-12-01T14:55:01Z</time>
      </trkpt>
      <trkpt lat="46.32933" lon="-0.54202">
        <ele>56</ele>
        <time>2011-12-01T14:55:06Z</time>
      </trkpt>
      <trkpt lat="46.32935" lon="-0.54208">
        <ele>56</ele>
        <time>2011-12-01T14:55:11Z</time>
      </trkpt>
      <trkpt lat="46.32938" lon="-0.54212">
        <ele>56</ele>
        <time>2011-12-01T14:55:16Z</time>
      </trkpt>
      <trkpt lat="46.32937" lon="-0.54212">
        <ele>55</ele>
        <time>2011-12-01T14:55:21Z</time>
      </trkpt>
      <trkpt lat="46.32938" lon="-0.54213">
        <ele>55</ele>
        <time>2011-12-01T14:55:26Z</time>
      </trkpt>
      <trkpt lat="46.32939" lon="-0.54215">
        <ele>56</ele>
        <time>2011-12-01T14:55:31Z</time>
      </trkpt>
      <trkpt lat="46.3294" lon="-0.54222">
        <ele>55</ele>
        <time>2011-12-01T14:55:36Z</time>
      </trkpt>
      <trkpt lat="46.32942" lon="-0.54231">
        <ele>56</ele>
        <time>2011-12-01T14:55:41Z</time>
      </trkpt>
      <trkpt lat="46.32946" lon="-0.54236">
        <ele>57</ele>
        <time>2011-12-01T14:55:46Z</time>
      </trkpt>
      <trkpt lat="46.3295" lon="-0.54243">
        <ele>56</ele>
        <time>2011-12-01T14:55:51Z</time>
      </trkpt>
      <trkpt lat="46.32953" lon="-0.54248">
        <ele>56</ele>
        <time>2011-12-01T14:55:56Z</time>
      </trkpt>
      <trkpt lat="46.32955" lon="-0.54248">
        <ele>56</ele>
        <time>2011-12-01T14:56:06Z</time>
      </trkpt>
      <trkpt lat="46.32959" lon="-0.54254">
        <ele>56</ele>
        <time>2011-12-01T14:56:11Z</time>
      </trkpt>
      <trkpt lat="46.32965" lon="-0.54257">
        <ele>56</ele>
        <time>2011-12-01T14:56:16Z</time>
      </trkpt>
      <trkpt lat="46.3297" lon="-0.54261">
        <ele>56</ele>
        <time>2011-12-01T14:56:21Z</time>
      </trkpt>
      <trkpt lat="46.32975" lon="-0.54264">
        <ele>57</ele>
        <time>2011-12-01T14:56:26Z</time>
      </trkpt>
      <trkpt lat="46.32979" lon="-0.54266">
        <ele>56</ele>
        <time>2011-12-01T14:56:31Z</time>
      </trkpt>
      <trkpt lat="46.32986" lon="-0.54266">
        <ele>55</ele>
        <time>2011-12-01T14:56:36Z</time>
      </trkpt>
      <trkpt lat="46.32993" lon="-0.54267">
        <ele>55</ele>
        <time>2011-12-01T14:56:41Z</time>
      </trkpt>
      <trkpt lat="46.32998" lon="-0.5427">
        <ele>56</ele>
        <time>2011-12-01T14:56:46Z</time>
      </trkpt>
      <trkpt lat="46.33003" lon="-0.54273">
        <ele>57</ele>
        <time>2011-12-01T14:56:51Z</time>
      </trkpt>
      <trkpt lat="46.33009" lon="-0.54271">
        <ele>55</ele>
        <time>2011-12-01T14:56:56Z</time>
      </trkpt>
      <trkpt lat="46.33016" lon="-0.54269">
        <ele>55</ele>
        <time>2011-12-01T14:57:01Z</time>
      </trkpt>
      <trkpt lat="46.33023" lon="-0.5427">
        <ele>55</ele>
        <time>2011-12-01T14:57:06Z</time>
      </trkpt>
      <trkpt lat="46.33029" lon="-0.5427">
        <ele>54</ele>
        <time>2011-12-01T14:57:11Z</time>
      </trkpt>
      <trkpt lat="46.33033" lon="-0.54271">
        <ele>54</ele>
        <time>2011-12-01T14:57:16Z</time>
      </trkpt>
      <trkpt lat="46.33039" lon="-0.54272">
        <ele>52</ele>
        <time>2011-12-01T14:57:21Z</time>
      </trkpt>
      <trkpt lat="46.33045" lon="-0.54272">
        <ele>53</ele>
        <time>2011-12-01T14:57:26Z</time>
      </trkpt>
      <trkpt lat="46.33051" lon="-0.54272">
        <ele>53</ele>
        <time>2011-12-01T14:57:31Z</time>
      </trkpt>
      <trkpt lat="46.33056" lon="-0.54273">
        <ele>55</ele>
        <time>2011-12-01T14:57:36Z</time>
      </trkpt>
      <trkpt lat="46.33062" lon="-0.54273">
        <ele>55</ele>
        <time>2011-12-01T14:57:41Z</time>
      </trkpt>
      <trkpt lat="46.33067" lon="-0.54276">
        <ele>56</ele>
        <time>2011-12-01T14:57:46Z</time>
      </trkpt>
      <trkpt lat="46.33072" lon="-0.54278">
        <ele>58</ele>
        <time>2011-12-01T14:57:51Z</time>
      </trkpt>
      <trkpt lat="46.33078" lon="-0.54279">
        <ele>58</ele>
        <time>2011-12-01T14:57:56Z</time>
      </trkpt>
      <trkpt lat="46.33085" lon="-0.54281">
        <ele>56</ele>
        <time>2011-12-01T14:58:01Z</time>
      </trkpt>
      <trkpt lat="46.33089" lon="-0.54285">
        <ele>56</ele>
        <time>2011-12-01T14:58:06Z</time>
      </trkpt>
      <trkpt lat="46.33093" lon="-0.54292">
        <ele>57</ele>
        <time>2011-12-01T14:58:11Z</time>
      </trkpt>
      <trkpt lat="46.33098" lon="-0.54294">
        <ele>56</ele>
        <time>2011-12-01T14:58:16Z</time>
      </trkpt>
      <trkpt lat="46.33101" lon="-0.54301">
        <ele>58</ele>
        <time>2011-12-01T14:58:21Z</time>
      </trkpt>
      <trkpt lat="46.33105" lon="-0.54306">
        <ele>61</ele>
        <time>2011-12-01T14:58:26Z</time>
      </trkpt>
      <trkpt lat="46.33108" lon="-0.5431">
        <ele>60</ele>
        <time>2011-12-01T14:58:31Z</time>
      </trkpt>
      <trkpt lat="46.33114" lon="-0.54316">
        <ele>60</ele>
        <time>2011-12-01T14:58:36Z</time>
      </trkpt>
      <trkpt lat="46.3312" lon="-0.54318">
        <ele>57</ele>
        <time>2011-12-01T14:58:41Z</time>
      </trkpt>
      <trkpt lat="46.33126" lon="-0.54321">
        <ele>56</ele>
        <time>2011-12-01T14:58:46Z</time>
      </trkpt>
      <trkpt lat="46.3313" lon="-0.54325">
        <ele>57</ele>
        <time>2011-12-01T14:58:51Z</time>
      </trkpt>
      <trkpt lat="46.3313" lon="-0.54327">
        <ele>57</ele>
        <time>2011-12-01T14:58:56Z</time>
      </trkpt>
      <trkpt lat="46.33135" lon="-0.54334">
        <ele>57</ele>
        <time>2011-12-01T14:59:01Z</time>
      </trkpt>
      <trkpt lat="46.33138" lon="-0.54337">
        <ele>54</ele>
        <time>2011-12-01T14:59:06Z</time>
      </trkpt>
      <trkpt lat="46.33139" lon="-0.54339">
        <ele>53</ele>
        <time>2011-12-01T14:59:11Z</time>
      </trkpt>
      <trkpt lat="46.33145" lon="-0.54344">
        <ele>51</ele>
        <time>2011-12-01T14:59:16Z</time>
      </trkpt>
      <trkpt lat="46.33149" lon="-0.54347">
        <ele>50</ele>
        <time>2011-12-01T14:59:21Z</time>
      </trkpt>
      <trkpt lat="46.33152" lon="-0.54354">
        <ele>50</ele>
        <time>2011-12-01T14:59:26Z</time>
      </trkpt>
      <trkpt lat="46.33156" lon="-0.54361">
        <ele>49</ele>
        <time>2011-12-01T14:59:31Z</time>
      </trkpt>
      <trkpt lat="46.3316" lon="-0.54367">
        <ele>49</ele>
        <time>2011-12-01T14:59:36Z</time>
      </trkpt>
      <trkpt lat="46.33161" lon="-0.54373">
        <ele>52</ele>
        <time>2011-12-01T14:59:41Z</time>
      </trkpt>
      <trkpt lat="46.33165" lon="-0.54379">
        <ele>51</ele>
        <time>2011-12-01T14:59:46Z</time>
      </trkpt>
      <trkpt lat="46.33168" lon="-0.54382">
        <ele>49</ele>
        <time>2011-12-01T14:59:51Z</time>
      </trkpt>
      <trkpt lat="46.33172" lon="-0.54387">
        <ele>50</ele>
        <time>2011-12-01T14:59:56Z</time>
      </trkpt>
      <trkpt lat="46.33176" lon="-0.54394">
        <ele>54</ele>
        <time>2011-12-01T15:00:01Z</time>
      </trkpt>
      <trkpt lat="46.33178" lon="-0.54398">
        <ele>54</ele>
        <time>2011-12-01T15:00:06Z</time>
      </trkpt>
      <trkpt lat="46.33181" lon="-0.54398">
        <ele>51</ele>
        <time>2011-12-01T15:00:11Z</time>
      </trkpt>
      <trkpt lat="46.33183" lon="-0.54397">
        <ele>49</ele>
        <time>2011-12-01T15:00:16Z</time>
      </trkpt>
      <trkpt lat="46.33185" lon="-0.54406">
        <ele>50</ele>
        <time>2011-12-01T15:00:21Z</time>
      </trkpt>
      <trkpt lat="46.33188" lon="-0.54411">
        <ele>50</ele>
        <time>2011-12-01T15:00:26Z</time>
      </trkpt>
      <trkpt lat="46.33192" lon="-0.54416">
        <ele>51</ele>
        <time>2011-12-01T15:00:31Z</time>
      </trkpt>
      <trkpt lat="46.33195" lon="-0.54421">
        <ele>52</ele>
        <time>2011-12-01T15:00:36Z</time>
      </trkpt>
      <trkpt lat="46.33197" lon="-0.54427">
        <ele>53</ele>
        <time>2011-12-01T15:00:41Z</time>
      </trkpt>
      <trkpt lat="46.33201" lon="-0.54433">
        <ele>54</ele>
        <time>2011-12-01T15:00:46Z</time>
      </trkpt>
      <trkpt lat="46.33204" lon="-0.54437">
        <ele>53</ele>
        <time>2011-12-01T15:00:51Z</time>
      </trkpt>
      <trkpt lat="46.33207" lon="-0.54442">
        <ele>54</ele>
        <time>2011-12-01T15:00:56Z</time>
      </trkpt>
      <trkpt lat="46.33209" lon="-0.54446">
        <ele>53</ele>
        <time>2011-12-01T15:01:01Z</time>
      </trkpt>
      <trkpt lat="46.33213" lon="-0.5445">
        <ele>54</ele>
        <time>2011-12-01T15:01:06Z</time>
      </trkpt>
      <trkpt lat="46.33217" lon="-0.54456">
        <ele>54</ele>
        <time>2011-12-01T15:01:11Z</time>
      </trkpt>
      <trkpt lat="46.3322" lon="-0.54461">
        <ele>54</ele>
        <time>2011-12-01T15:01:16Z</time>
      </trkpt>
      <trkpt lat="46.33224" lon="-0.54465">
        <ele>54</ele>
        <time>2011-12-01T15:01:21Z</time>
      </trkpt>
      <trkpt lat="46.33227" lon="-0.5447">
        <ele>55</ele>
        <time>2011-12-01T15:01:26Z</time>
      </trkpt>
      <trkpt lat="46.33231" lon="-0.54475">
        <ele>55</ele>
        <time>2011-12-01T15:01:31Z</time>
      </trkpt>
      <trkpt lat="46.33234" lon="-0.54479">
        <ele>54</ele>
        <time>2011-12-01T15:01:36Z</time>
      </trkpt>
      <trkpt lat="46.33237" lon="-0.54484">
        <ele>55</ele>
        <time>2011-12-01T15:01:41Z</time>
      </trkpt>
      <trkpt lat="46.33239" lon="-0.54486">
        <ele>56</ele>
        <time>2011-12-01T15:01:46Z</time>
      </trkpt>
      <trkpt lat="46.33239" lon="-0.54486">
        <ele>56</ele>
        <time>2011-12-01T15:01:51Z</time>
      </trkpt>
      <trkpt lat="46.3324" lon="-0.54487">
        <ele>56</ele>
        <time>2011-12-01T15:02:41Z</time>
      </trkpt>
      <trkpt lat="46.3324" lon="-0.54488">
        <ele>56</ele>
        <time>2011-12-01T15:02:46Z</time>
      </trkpt>
      <trkpt lat="46.33243" lon="-0.54489">
        <ele>57</ele>
        <time>2011-12-01T15:02:51Z</time>
      </trkpt>
      <trkpt lat="46.33247" lon="-0.54491">
        <ele>56</ele>
        <time>2011-12-01T15:02:56Z</time>
      </trkpt>
      <trkpt lat="46.3325" lon="-0.54493">
        <ele>56</ele>
        <time>2011-12-01T15:03:01Z</time>
      </trkpt>
      <trkpt lat="46.33253" lon="-0.54499">
        <ele>55</ele>
        <time>2011-12-01T15:03:06Z</time>
      </trkpt>
      <trkpt lat="46.33258" lon="-0.54503">
        <ele>55</ele>
        <time>2011-12-01T15:03:11Z</time>
      </trkpt>
      <trkpt lat="46.3326" lon="-0.54512">
        <ele>55</ele>
        <time>2011-12-01T15:03:16Z</time>
      </trkpt>
      <trkpt lat="46.33263" lon="-0.54514">
        <ele>55</ele>
        <time>2011-12-01T15:03:21Z</time>
      </trkpt>
      <trkpt lat="46.33268" lon="-0.54522">
        <ele>55</ele>
        <time>2011-12-01T15:03:26Z</time>
      </trkpt>
      <trkpt lat="46.33273" lon="-0.54525">
        <ele>55</ele>
        <time>2011-12-01T15:03:31Z</time>
      </trkpt>
      <trkpt lat="46.33275" lon="-0.54529">
        <ele>55</ele>
        <time>2011-12-01T15:03:36Z</time>
      </trkpt>
      <trkpt lat="46.33277" lon="-0.5453">
        <ele>55</ele>
        <time>2011-12-01T15:03:41Z</time>
      </trkpt>
      <trkpt lat="46.33281" lon="-0.54533">
        <ele>56</ele>
        <time>2011-12-01T15:03:46Z</time>
      </trkpt>
      <trkpt lat="46.33285" lon="-0.54537">
        <ele>55</ele>
        <time>2011-12-01T15:03:51Z</time>
      </trkpt>
      <trkpt lat="46.3329" lon="-0.54544">
        <ele>55</ele>
        <time>2011-12-01T15:03:56Z</time>
      </trkpt>
      <trkpt lat="46.33293" lon="-0.54548">
        <ele>55</ele>
        <time>2011-12-01T15:04:01Z</time>
      </trkpt>
      <trkpt lat="46.33297" lon="-0.54551">
        <ele>54</ele>
        <time>2011-12-01T15:04:06Z</time>
      </trkpt>
      <trkpt lat="46.333" lon="-0.54556">
        <ele>55</ele>
        <time>2011-12-01T15:04:11Z</time>
      </trkpt>
      <trkpt lat="46.33304" lon="-0.5456">
        <ele>53</ele>
        <time>2011-12-01T15:04:16Z</time>
      </trkpt>
      <trkpt lat="46.33308" lon="-0.54564">
        <ele>52</ele>
        <time>2011-12-01T15:04:21Z</time>
      </trkpt>
      <trkpt lat="46.33312" lon="-0.54568">
        <ele>52</ele>
        <time>2011-12-01T15:04:26Z</time>
      </trkpt>
      <trkpt lat="46.33315" lon="-0.54573">
        <ele>52</ele>
        <time>2011-12-01T15:04:31Z</time>
      </trkpt>
      <trkpt lat="46.33319" lon="-0.54577">
        <ele>52</ele>
        <time>2011-12-01T15:04:36Z</time>
      </trkpt>
      <trkpt lat="46.33323" lon="-0.54582">
        <ele>53</ele>
        <time>2011-12-01T15:04:41Z</time>
      </trkpt>
      <trkpt lat="46.33326" lon="-0.54587">
        <ele>52</ele>
        <time>2011-12-01T15:04:46Z</time>
      </trkpt>
      <trkpt lat="46.33329" lon="-0.54591">
        <ele>53</ele>
        <time>2011-12-01T15:04:51Z</time>
      </trkpt>
      <trkpt lat="46.33333" lon="-0.54598">
        <ele>52</ele>
        <time>2011-12-01T15:04:56Z</time>
      </trkpt>
      <trkpt lat="46.33336" lon="-0.54601">
        <ele>53</ele>
        <time>2011-12-01T15:05:01Z</time>
      </trkpt>
      <trkpt lat="46.33341" lon="-0.54603">
        <ele>53</ele>
        <time>2011-12-01T15:05:06Z</time>
      </trkpt>
      <trkpt lat="46.33343" lon="-0.54606">
        <ele>53</ele>
        <time>2011-12-01T15:05:11Z</time>
      </trkpt>
      <trkpt lat="46.33349" lon="-0.54608">
        <ele>53</ele>
        <time>2011-12-01T15:05:16Z</time>
      </trkpt>
      <trkpt lat="46.33355" lon="-0.54615">
        <ele>54</ele>
        <time>2011-12-01T15:05:21Z</time>
      </trkpt>
      <trkpt lat="46.33356" lon="-0.54621">
        <ele>54</ele>
        <time>2011-12-01T15:05:26Z</time>
      </trkpt>
      <trkpt lat="46.33361" lon="-0.54624">
        <ele>53</ele>
        <time>2011-12-01T15:05:31Z</time>
      </trkpt>
      <trkpt lat="46.33364" lon="-0.54626">
        <ele>52</ele>
        <time>2011-12-01T15:05:36Z</time>
      </trkpt>
      <trkpt lat="46.33367" lon="-0.54633">
        <ele>53</ele>
        <time>2011-12-01T15:05:41Z</time>
      </trkpt>
      <trkpt lat="46.33371" lon="-0.54637">
        <ele>53</ele>
        <time>2011-12-01T15:05:46Z</time>
      </trkpt>
      <trkpt lat="46.33374" lon="-0.5464">
        <ele>52</ele>
        <time>2011-12-01T15:05:51Z</time>
      </trkpt>
      <trkpt lat="46.33379" lon="-0.54645">
        <ele>53</ele>
        <time>2011-12-01T15:05:56Z</time>
      </trkpt>
      <trkpt lat="46.33381" lon="-0.54649">
        <ele>53</ele>
        <time>2011-12-01T15:06:01Z</time>
      </trkpt>
      <trkpt lat="46.33386" lon="-0.54654">
        <ele>53</ele>
        <time>2011-12-01T15:06:06Z</time>
      </trkpt>
      <trkpt lat="46.33389" lon="-0.54658">
        <ele>52</ele>
        <time>2011-12-01T15:06:11Z</time>
      </trkpt>
      <trkpt lat="46.33394" lon="-0.54664">
        <ele>54</ele>
        <time>2011-12-01T15:06:16Z</time>
      </trkpt>
      <trkpt lat="46.33399" lon="-0.54668">
        <ele>54</ele>
        <time>2011-12-01T15:06:21Z</time>
      </trkpt>
      <trkpt lat="46.33403" lon="-0.54672">
        <ele>54</ele>
        <time>2011-12-01T15:06:26Z</time>
      </trkpt>
      <trkpt lat="46.33407" lon="-0.54676">
        <ele>54</ele>
        <time>2011-12-01T15:06:31Z</time>
      </trkpt>
      <trkpt lat="46.3341" lon="-0.5468">
        <ele>54</ele>
        <time>2011-12-01T15:06:36Z</time>
      </trkpt>
      <trkpt lat="46.33414" lon="-0.54684">
        <ele>54</ele>
        <time>2011-12-01T15:06:41Z</time>
      </trkpt>
      <trkpt lat="46.33418" lon="-0.54689">
        <ele>54</ele>
        <time>2011-12-01T15:06:46Z</time>
      </trkpt>
      <trkpt lat="46.33422" lon="-0.54693">
        <ele>56</ele>
        <time>2011-12-01T15:06:51Z</time>
      </trkpt>
      <trkpt lat="46.33426" lon="-0.54699">
        <ele>55</ele>
        <time>2011-12-01T15:06:56Z</time>
      </trkpt>
      <trkpt lat="46.33429" lon="-0.54703">
        <ele>54</ele>
        <time>2011-12-01T15:07:01Z</time>
      </trkpt>
      <trkpt lat="46.33433" lon="-0.54707">
        <ele>54</ele>
        <time>2011-12-01T15:07:06Z</time>
      </trkpt>
      <trkpt lat="46.33439" lon="-0.54712">
        <ele>56</ele>
        <time>2011-12-01T15:07:11Z</time>
      </trkpt>
      <trkpt lat="46.33441" lon="-0.54718">
        <ele>56</ele>
        <time>2011-12-01T15:07:16Z</time>
      </trkpt>
      <trkpt lat="46.33445" lon="-0.54718">
        <ele>56</ele>
        <time>2011-12-01T15:07:21Z</time>
      </trkpt>
      <trkpt lat="46.3345" lon="-0.5472">
        <ele>55</ele>
        <time>2011-12-01T15:07:26Z</time>
      </trkpt>
      <trkpt lat="46.33455" lon="-0.54723">
        <ele>55</ele>
        <time>2011-12-01T15:07:31Z</time>
      </trkpt>
      <trkpt lat="46.3346" lon="-0.54725">
        <ele>53</ele>
        <time>2011-12-01T15:07:36Z</time>
      </trkpt>
      <trkpt lat="46.33465" lon="-0.54725">
        <ele>52</ele>
        <time>2011-12-01T15:07:41Z</time>
      </trkpt>
      <trkpt lat="46.33468" lon="-0.54728">
        <ele>51</ele>
        <time>2011-12-01T15:07:46Z</time>
      </trkpt>
      <trkpt lat="46.33473" lon="-0.54732">
        <ele>51</ele>
        <time>2011-12-01T15:07:51Z</time>
      </trkpt>
      <trkpt lat="46.33477" lon="-0.54734">
        <ele>50</ele>
        <time>2011-12-01T15:07:56Z</time>
      </trkpt>
      <trkpt lat="46.33483" lon="-0.5474">
        <ele>52</ele>
        <time>2011-12-01T15:08:01Z</time>
      </trkpt>
      <trkpt lat="46.33487" lon="-0.54743">
        <ele>52</ele>
        <time>2011-12-01T15:08:06Z</time>
      </trkpt>
      <trkpt lat="46.33489" lon="-0.54748">
        <ele>51</ele>
        <time>2011-12-01T15:08:11Z</time>
      </trkpt>
      <trkpt lat="46.33494" lon="-0.54752">
        <ele>53</ele>
        <time>2011-12-01T15:08:16Z</time>
      </trkpt>
      <trkpt lat="46.33499" lon="-0.54755">
        <ele>53</ele>
        <time>2011-12-01T15:08:21Z</time>
      </trkpt>
      <trkpt lat="46.33504" lon="-0.54759">
        <ele>52</ele>
        <time>2011-12-01T15:08:26Z</time>
      </trkpt>
      <trkpt lat="46.33508" lon="-0.5476">
        <ele>52</ele>
        <time>2011-12-01T15:08:31Z</time>
      </trkpt>
      <trkpt lat="46.33512" lon="-0.54764">
        <ele>53</ele>
        <time>2011-12-01T15:08:36Z</time>
      </trkpt>
      <trkpt lat="46.33516" lon="-0.5477">
        <ele>52</ele>
        <time>2011-12-01T15:08:41Z</time>
      </trkpt>
      <trkpt lat="46.3352" lon="-0.54774">
        <ele>53</ele>
        <time>2011-12-01T15:08:46Z</time>
      </trkpt>
      <trkpt lat="46.33525" lon="-0.5478">
        <ele>54</ele>
        <time>2011-12-01T15:08:51Z</time>
      </trkpt>
      <trkpt lat="46.33529" lon="-0.54782">
        <ele>53</ele>
        <time>2011-12-01T15:08:56Z</time>
      </trkpt>
      <trkpt lat="46.33532" lon="-0.54787">
        <ele>54</ele>
        <time>2011-12-01T15:09:01Z</time>
      </trkpt>
      <trkpt lat="46.33539" lon="-0.54786">
        <ele>52</ele>
        <time>2011-12-01T15:09:06Z</time>
      </trkpt>
      <trkpt lat="46.33543" lon="-0.54788">
        <ele>52</ele>
        <time>2011-12-01T15:09:11Z</time>
      </trkpt>
      <trkpt lat="46.33547" lon="-0.54792">
        <ele>51</ele>
        <time>2011-12-01T15:09:16Z</time>
      </trkpt>
      <trkpt lat="46.3355" lon="-0.54796">
        <ele>51</ele>
        <time>2011-12-01T15:09:21Z</time>
      </trkpt>
      <trkpt lat="46.33555" lon="-0.54803">
        <ele>52</ele>
        <time>2011-12-01T15:09:26Z</time>
      </trkpt>
      <trkpt lat="46.3356" lon="-0.54809">
        <ele>55</ele>
        <time>2011-12-01T15:09:31Z</time>
      </trkpt>
      <trkpt lat="46.33565" lon="-0.54812">
        <ele>55</ele>
        <time>2011-12-01T15:09:36Z</time>
      </trkpt>
      <trkpt lat="46.33568" lon="-0.54817">
        <ele>55</ele>
        <time>2011-12-01T15:09:41Z</time>
      </trkpt>
      <trkpt lat="46.33575" lon="-0.54817">
        <ele>55</ele>
        <time>2011-12-01T15:09:46Z</time>
      </trkpt>
      <trkpt lat="46.33579" lon="-0.5482">
        <ele>56</ele>
        <time>2011-12-01T15:09:51Z</time>
      </trkpt>
      <trkpt lat="46.33584" lon="-0.54821">
        <ele>55</ele>
        <time>2011-12-01T15:09:56Z</time>
      </trkpt>
      <trkpt lat="46.33588" lon="-0.5483">
        <ele>59</ele>
        <time>2011-12-01T15:10:01Z</time>
      </trkpt>
      <trkpt lat="46.33591" lon="-0.54833">
        <ele>58</ele>
        <time>2011-12-01T15:10:06Z</time>
      </trkpt>
      <trkpt lat="46.33593" lon="-0.54835">
        <ele>58</ele>
        <time>2011-12-01T15:10:11Z</time>
      </trkpt>
      <trkpt lat="46.33597" lon="-0.54835">
        <ele>56</ele>
        <time>2011-12-01T15:10:16Z</time>
      </trkpt>
      <trkpt lat="46.336" lon="-0.5484">
        <ele>57</ele>
        <time>2011-12-01T15:10:21Z</time>
      </trkpt>
      <trkpt lat="46.33601" lon="-0.54842">
        <ele>58</ele>
        <time>2011-12-01T15:10:26Z</time>
      </trkpt>
      <trkpt lat="46.33608" lon="-0.54847">
        <ele>58</ele>
        <time>2011-12-01T15:10:31Z</time>
      </trkpt>
      <trkpt lat="46.33612" lon="-0.54849">
        <ele>58</ele>
        <time>2011-12-01T15:10:36Z</time>
      </trkpt>
      <trkpt lat="46.33617" lon="-0.54854">
        <ele>58</ele>
        <time>2011-12-01T15:10:41Z</time>
      </trkpt>
      <trkpt lat="46.3362" lon="-0.54858">
        <ele>58</ele>
        <time>2011-12-01T15:10:46Z</time>
      </trkpt>
      <trkpt lat="46.33623" lon="-0.54862">
        <ele>58</ele>
        <time>2011-12-01T15:10:51Z</time>
      </trkpt>
      <trkpt lat="46.33627" lon="-0.54861">
        <ele>58</ele>
        <time>2011-12-01T15:10:56Z</time>
      </trkpt>
      <trkpt lat="46.33631" lon="-0.5487">
        <ele>58</ele>
        <time>2011-12-01T15:11:01Z</time>
      </trkpt>
      <trkpt lat="46.33637" lon="-0.54869">
        <ele>57</ele>
        <time>2011-12-01T15:11:06Z</time>
      </trkpt>
      <trkpt lat="46.33642" lon="-0.54866">
        <ele>56</ele>
        <time>2011-12-01T15:11:11Z</time>
      </trkpt>
      <trkpt lat="46.33646" lon="-0.54868">
        <ele>56</ele>
        <time>2011-12-01T15:11:16Z</time>
      </trkpt>
      <trkpt lat="46.33651" lon="-0.54869">
        <ele>57</ele>
        <time>2011-12-01T15:11:21Z</time>
      </trkpt>
      <trkpt lat="46.33655" lon="-0.54869">
        <ele>57</ele>
        <time>2011-12-01T15:11:26Z</time>
      </trkpt>
      <trkpt lat="46.33659" lon="-0.54872">
        <ele>57</ele>
        <time>2011-12-01T15:11:31Z</time>
      </trkpt>
      <trkpt lat="46.33663" lon="-0.54874">
        <ele>56</ele>
        <time>2011-12-01T15:11:36Z</time>
      </trkpt>
      <trkpt lat="46.33668" lon="-0.54876">
        <ele>56</ele>
        <time>2011-12-01T15:11:41Z</time>
      </trkpt>
      <trkpt lat="46.33673" lon="-0.54876">
        <ele>57</ele>
        <time>2011-12-01T15:11:46Z</time>
      </trkpt>
      <trkpt lat="46.33679" lon="-0.54877">
        <ele>56</ele>
        <time>2011-12-01T15:11:51Z</time>
      </trkpt>
      <trkpt lat="46.33683" lon="-0.54881">
        <ele>58</ele>
        <time>2011-12-01T15:11:56Z</time>
      </trkpt>
      <trkpt lat="46.33688" lon="-0.54882">
        <ele>59</ele>
        <time>2011-12-01T15:12:01Z</time>
      </trkpt>
      <trkpt lat="46.33693" lon="-0.54882">
        <ele>58</ele>
        <time>2011-12-01T15:12:06Z</time>
      </trkpt>
      <trkpt lat="46.33698" lon="-0.54883">
        <ele>58</ele>
        <time>2011-12-01T15:12:11Z</time>
      </trkpt>
      <trkpt lat="46.33703" lon="-0.54885">
        <ele>58</ele>
        <time>2011-12-01T15:12:16Z</time>
      </trkpt>
      <trkpt lat="46.33706" lon="-0.54886">
        <ele>57</ele>
        <time>2011-12-01T15:12:21Z</time>
      </trkpt>
      <trkpt lat="46.33712" lon="-0.54887">
        <ele>57</ele>
        <time>2011-12-01T15:12:26Z</time>
      </trkpt>
      <trkpt lat="46.33718" lon="-0.54889">
        <ele>58</ele>
        <time>2011-12-01T15:12:31Z</time>
      </trkpt>
      <trkpt lat="46.33723" lon="-0.54891">
        <ele>58</ele>
        <time>2011-12-01T15:12:36Z</time>
      </trkpt>
      <trkpt lat="46.33727" lon="-0.54892">
        <ele>58</ele>
        <time>2011-12-01T15:12:41Z</time>
      </trkpt>
      <trkpt lat="46.3373" lon="-0.54893">
        <ele>58</ele>
        <time>2011-12-01T15:12:46Z</time>
      </trkpt>
      <trkpt lat="46.33737" lon="-0.54893">
        <ele>57</ele>
        <time>2011-12-01T15:12:51Z</time>
      </trkpt>
      <trkpt lat="46.33743" lon="-0.54894">
        <ele>57</ele>
        <time>2011-12-01T15:12:56Z</time>
      </trkpt>
      <trkpt lat="46.33747" lon="-0.54896">
        <ele>57</ele>
        <time>2011-12-01T15:13:01Z</time>
      </trkpt>
      <trkpt lat="46.33751" lon="-0.54896">
        <ele>57</ele>
        <time>2011-12-01T15:13:06Z</time>
      </trkpt>
      <trkpt lat="46.33754" lon="-0.54896">
        <ele>56</ele>
        <time>2011-12-01T15:13:11Z</time>
      </trkpt>
      <trkpt lat="46.33754" lon="-0.54898">
        <ele>56</ele>
        <time>2011-12-01T15:13:16Z</time>
      </trkpt>
      <trkpt lat="46.33756" lon="-0.54899">
        <ele>57</ele>
        <time>2011-12-01T15:13:21Z</time>
      </trkpt>
      <trkpt lat="46.33759" lon="-0.54898">
        <ele>58</ele>
        <time>2011-12-01T15:13:26Z</time>
      </trkpt>
      <trkpt lat="46.33763" lon="-0.54899">
        <ele>59</ele>
        <time>2011-12-01T15:13:31Z</time>
      </trkpt>
      <trkpt lat="46.33767" lon="-0.54902">
        <ele>59</ele>
        <time>2011-12-01T15:13:36Z</time>
      </trkpt>
      <trkpt lat="46.33772" lon="-0.54909">
        <ele>61</ele>
        <time>2011-12-01T15:13:41Z</time>
      </trkpt>
      <trkpt lat="46.33777" lon="-0.54911">
        <ele>61</ele>
        <time>2011-12-01T15:13:46Z</time>
      </trkpt>
      <trkpt lat="46.3378" lon="-0.54916">
        <ele>61</ele>
        <time>2011-12-01T15:13:51Z</time>
      </trkpt>
      <trkpt lat="46.33786" lon="-0.54914">
        <ele>60</ele>
        <time>2011-12-01T15:13:56Z</time>
      </trkpt>
      <trkpt lat="46.33791" lon="-0.54916">
        <ele>61</ele>
        <time>2011-12-01T15:14:01Z</time>
      </trkpt>
      <trkpt lat="46.33794" lon="-0.54913">
        <ele>61</ele>
        <time>2011-12-01T15:14:06Z</time>
      </trkpt>
      <trkpt lat="46.33798" lon="-0.54908">
        <ele>61</ele>
        <time>2011-12-01T15:14:11Z</time>
      </trkpt>
      <trkpt lat="46.33799" lon="-0.54901">
        <ele>62</ele>
        <time>2011-12-01T15:14:16Z</time>
      </trkpt>
      <trkpt lat="46.33799" lon="-0.54894">
        <ele>61</ele>
        <time>2011-12-01T15:14:21Z</time>
      </trkpt>
      <trkpt lat="46.33801" lon="-0.54886">
        <ele>63</ele>
        <time>2011-12-01T15:14:26Z</time>
      </trkpt>
      <trkpt lat="46.33804" lon="-0.54879">
        <ele>63</ele>
        <time>2011-12-01T15:14:31Z</time>
      </trkpt>
      <trkpt lat="46.33807" lon="-0.54871">
        <ele>64</ele>
        <time>2011-12-01T15:14:36Z</time>
      </trkpt>
      <trkpt lat="46.3381" lon="-0.54865">
        <ele>63</ele>
        <time>2011-12-01T15:14:41Z</time>
      </trkpt>
      <trkpt lat="46.33812" lon="-0.54859">
        <ele>63</ele>
        <time>2011-12-01T15:14:46Z</time>
      </trkpt>
      <trkpt lat="46.33815" lon="-0.54853">
        <ele>63</ele>
        <time>2011-12-01T15:14:51Z</time>
      </trkpt>
      <trkpt lat="46.3382" lon="-0.54848">
        <ele>63</ele>
        <time>2011-12-01T15:14:56Z</time>
      </trkpt>
      <trkpt lat="46.33824" lon="-0.54844">
        <ele>64</ele>
        <time>2011-12-01T15:15:01Z</time>
      </trkpt>
      <trkpt lat="46.33827" lon="-0.5484">
        <ele>64</ele>
        <time>2011-12-01T15:15:06Z</time>
      </trkpt>
      <trkpt lat="46.33831" lon="-0.54835">
        <ele>64</ele>
        <time>2011-12-01T15:15:11Z</time>
      </trkpt>
      <trkpt lat="46.33834" lon="-0.54832">
        <ele>65</ele>
        <time>2011-12-01T15:15:16Z</time>
      </trkpt>
      <trkpt lat="46.33839" lon="-0.54829">
        <ele>65</ele>
        <time>2011-12-01T15:15:21Z</time>
      </trkpt>
      <trkpt lat="46.33843" lon="-0.54824">
        <ele>64</ele>
        <time>2011-12-01T15:15:26Z</time>
      </trkpt>
      <trkpt lat="46.33848" lon="-0.54819">
        <ele>64</ele>
        <time>2011-12-01T15:15:31Z</time>
      </trkpt>
      <trkpt lat="46.33851" lon="-0.54815">
        <ele>65</ele>
        <time>2011-12-01T15:15:36Z</time>
      </trkpt>
      <trkpt lat="46.33855" lon="-0.54811">
        <ele>65</ele>
        <time>2011-12-01T15:15:41Z</time>
      </trkpt>
      <trkpt lat="46.33858" lon="-0.54808">
        <ele>64</ele>
        <time>2011-12-01T15:15:46Z</time>
      </trkpt>
      <trkpt lat="46.33861" lon="-0.54804">
        <ele>63</ele>
        <time>2011-12-01T15:15:51Z</time>
      </trkpt>
      <trkpt lat="46.33866" lon="-0.54799">
        <ele>62</ele>
        <time>2011-12-01T15:15:56Z</time>
      </trkpt>
      <trkpt lat="46.3387" lon="-0.54794">
        <ele>62</ele>
        <time>2011-12-01T15:16:01Z</time>
      </trkpt>
      <trkpt lat="46.33871" lon="-0.5479">
        <ele>61</ele>
        <time>2011-12-01T15:16:06Z</time>
      </trkpt>
      <trkpt lat="46.33876" lon="-0.54785">
        <ele>62</ele>
        <time>2011-12-01T15:16:11Z</time>
      </trkpt>
      <trkpt lat="46.3388" lon="-0.5478">
        <ele>61</ele>
        <time>2011-12-01T15:16:16Z</time>
      </trkpt>
      <trkpt lat="46.33882" lon="-0.54775">
        <ele>60</ele>
        <time>2011-12-01T15:16:21Z</time>
      </trkpt>
      <trkpt lat="46.33886" lon="-0.54772">
        <ele>59</ele>
        <time>2011-12-01T15:16:26Z</time>
      </trkpt>
      <trkpt lat="46.3389" lon="-0.54767">
        <ele>59</ele>
        <time>2011-12-01T15:16:31Z</time>
      </trkpt>
      <trkpt lat="46.33894" lon="-0.54763">
        <ele>59</ele>
        <time>2011-12-01T15:16:36Z</time>
      </trkpt>
      <trkpt lat="46.33899" lon="-0.54759">
        <ele>59</ele>
        <time>2011-12-01T15:16:41Z</time>
      </trkpt>
      <trkpt lat="46.33902" lon="-0.54755">
        <ele>59</ele>
        <time>2011-12-01T15:16:46Z</time>
      </trkpt>
      <trkpt lat="46.33906" lon="-0.54751">
        <ele>59</ele>
        <time>2011-12-01T15:16:51Z</time>
      </trkpt>
      <trkpt lat="46.3391" lon="-0.54747">
        <ele>59</ele>
        <time>2011-12-01T15:16:56Z</time>
      </trkpt>
      <trkpt lat="46.33915" lon="-0.54743">
        <ele>60</ele>
        <time>2011-12-01T15:17:01Z</time>
      </trkpt>
      <trkpt lat="46.33919" lon="-0.5474">
        <ele>60</ele>
        <time>2011-12-01T15:17:06Z</time>
      </trkpt>
      <trkpt lat="46.33924" lon="-0.54735">
        <ele>61</ele>
        <time>2011-12-01T15:17:11Z</time>
      </trkpt>
      <trkpt lat="46.33928" lon="-0.5473">
        <ele>61</ele>
        <time>2011-12-01T15:17:16Z</time>
      </trkpt>
      <trkpt lat="46.33933" lon="-0.54727">
        <ele>62</ele>
        <time>2011-12-01T15:17:21Z</time>
      </trkpt>
      <trkpt lat="46.33936" lon="-0.54724">
        <ele>61</ele>
        <time>2011-12-01T15:17:26Z</time>
      </trkpt>
      <trkpt lat="46.3394" lon="-0.5472">
        <ele>62</ele>
        <time>2011-12-01T15:17:31Z</time>
      </trkpt>
      <trkpt lat="46.33945" lon="-0.54716">
        <ele>62</ele>
        <time>2011-12-01T15:17:36Z</time>
      </trkpt>
      <trkpt lat="46.33947" lon="-0.54711">
        <ele>63</ele>
        <time>2011-12-01T15:17:41Z</time>
      </trkpt>
      <trkpt lat="46.33951" lon="-0.54706">
        <ele>63</ele>
        <time>2011-12-01T15:17:46Z</time>
      </trkpt>
      <trkpt lat="46.33955" lon="-0.54702">
        <ele>64</ele>
        <time>2011-12-01T15:17:51Z</time>
      </trkpt>
      <trkpt lat="46.3396" lon="-0.547">
        <ele>65</ele>
        <time>2011-12-01T15:17:56Z</time>
      </trkpt>
      <trkpt lat="46.33961" lon="-0.54696">
        <ele>66</ele>
        <time>2011-12-01T15:18:01Z</time>
      </trkpt>
      <trkpt lat="46.33962" lon="-0.54695">
        <ele>66</ele>
        <time>2011-12-01T15:18:06Z</time>
      </trkpt>
      <trkpt lat="46.33966" lon="-0.54692">
        <ele>65</ele>
        <time>2011-12-01T15:18:11Z</time>
      </trkpt>
      <trkpt lat="46.33971" lon="-0.54688">
        <ele>65</ele>
        <time>2011-12-01T15:18:16Z</time>
      </trkpt>
      <trkpt lat="46.33975" lon="-0.54681">
        <ele>65</ele>
        <time>2011-12-01T15:18:21Z</time>
      </trkpt>
      <trkpt lat="46.33981" lon="-0.54676">
        <ele>64</ele>
        <time>2011-12-01T15:18:26Z</time>
      </trkpt>
      <trkpt lat="46.33985" lon="-0.54673">
        <ele>64</ele>
        <time>2011-12-01T15:18:31Z</time>
      </trkpt>
      <trkpt lat="46.33989" lon="-0.5467">
        <ele>62</ele>
        <time>2011-12-01T15:18:36Z</time>
      </trkpt>
      <trkpt lat="46.33992" lon="-0.54666">
        <ele>62</ele>
        <time>2011-12-01T15:18:41Z</time>
      </trkpt>
      <trkpt lat="46.33997" lon="-0.54663">
        <ele>63</ele>
        <time>2011-12-01T15:18:46Z</time>
      </trkpt>
      <trkpt lat="46.34002" lon="-0.54661">
        <ele>63</ele>
        <time>2011-12-01T15:18:51Z</time>
      </trkpt>
      <trkpt lat="46.34006" lon="-0.54656">
        <ele>64</ele>
        <time>2011-12-01T15:18:56Z</time>
      </trkpt>
      <trkpt lat="46.34011" lon="-0.54652">
        <ele>64</ele>
        <time>2011-12-01T15:19:01Z</time>
      </trkpt>
      <trkpt lat="46.34013" lon="-0.54649">
        <ele>65</ele>
        <time>2011-12-01T15:19:06Z</time>
      </trkpt>
      <trkpt lat="46.34017" lon="-0.54644">
        <ele>64</ele>
        <time>2011-12-01T15:19:11Z</time>
      </trkpt>
      <trkpt lat="46.34021" lon="-0.54638">
        <ele>65</ele>
        <time>2011-12-01T15:19:16Z</time>
      </trkpt>
      <trkpt lat="46.34024" lon="-0.54635">
        <ele>65</ele>
        <time>2011-12-01T15:19:21Z</time>
      </trkpt>
      <trkpt lat="46.34028" lon="-0.54631">
        <ele>66</ele>
        <time>2011-12-01T15:19:26Z</time>
      </trkpt>
      <trkpt lat="46.34032" lon="-0.54628">
        <ele>66</ele>
        <time>2011-12-01T15:19:31Z</time>
      </trkpt>
      <trkpt lat="46.34034" lon="-0.54624">
        <ele>65</ele>
        <time>2011-12-01T15:19:36Z</time>
      </trkpt>
      <trkpt lat="46.34039" lon="-0.54621">
        <ele>66</ele>
        <time>2011-12-01T15:19:41Z</time>
      </trkpt>
      <trkpt lat="46.34042" lon="-0.54617">
        <ele>65</ele>
        <time>2011-12-01T15:19:46Z</time>
      </trkpt>
      <trkpt lat="46.34046" lon="-0.54613">
        <ele>66</ele>
        <time>2011-12-01T15:19:51Z</time>
      </trkpt>
      <trkpt lat="46.34049" lon="-0.54609">
        <ele>66</ele>
        <time>2011-12-01T15:19:56Z</time>
      </trkpt>
      <trkpt lat="46.34053" lon="-0.54605">
        <ele>67</ele>
        <time>2011-12-01T15:20:01Z</time>
      </trkpt>
      <trkpt lat="46.34056" lon="-0.54601">
        <ele>66</ele>
        <time>2011-12-01T15:20:06Z</time>
      </trkpt>
      <trkpt lat="46.34061" lon="-0.54598">
        <ele>67</ele>
        <time>2011-12-01T15:20:11Z</time>
      </trkpt>
      <trkpt lat="46.34066" lon="-0.54595">
        <ele>67</ele>
        <time>2011-12-01T15:20:16Z</time>
      </trkpt>
      <trkpt lat="46.3407" lon="-0.5459">
        <ele>67</ele>
        <time>2011-12-01T15:20:21Z</time>
      </trkpt>
      <trkpt lat="46.34074" lon="-0.54586">
        <ele>67</ele>
        <time>2011-12-01T15:20:26Z</time>
      </trkpt>
      <trkpt lat="46.34076" lon="-0.54582">
        <ele>67</ele>
        <time>2011-12-01T15:20:31Z</time>
      </trkpt>
      <trkpt lat="46.34079" lon="-0.5458">
        <ele>67</ele>
        <time>2011-12-01T15:20:36Z</time>
      </trkpt>
      <trkpt lat="46.3408" lon="-0.54579">
        <ele>67</ele>
        <time>2011-12-01T15:20:41Z</time>
      </trkpt>
      <trkpt lat="46.34081" lon="-0.54579">
        <ele>68</ele>
        <time>2011-12-01T15:20:51Z</time>
      </trkpt>
      <trkpt lat="46.34086" lon="-0.54577">
        <ele>67</ele>
        <time>2011-12-01T15:20:56Z</time>
      </trkpt>
      <trkpt lat="46.34091" lon="-0.54575">
        <ele>66</ele>
        <time>2011-12-01T15:21:01Z</time>
      </trkpt>
      <trkpt lat="46.34092" lon="-0.54574">
        <ele>67</ele>
        <time>2011-12-01T15:21:06Z</time>
      </trkpt>
      <trkpt lat="46.34093" lon="-0.54574">
        <ele>68</ele>
        <time>2011-12-01T15:21:11Z</time>
      </trkpt>
      <trkpt lat="46.34093" lon="-0.54573">
        <ele>68</ele>
        <time>2011-12-01T15:21:21Z</time>
      </trkpt>
      <trkpt lat="46.34097" lon="-0.54568">
        <ele>68</ele>
        <time>2011-12-01T15:21:26Z</time>
      </trkpt>
      <trkpt lat="46.341" lon="-0.54567">
        <ele>69</ele>
        <time>2011-12-01T15:21:31Z</time>
      </trkpt>
      <trkpt lat="46.34105" lon="-0.54564">
        <ele>69</ele>
        <time>2011-12-01T15:21:36Z</time>
      </trkpt>
      <trkpt lat="46.34107" lon="-0.54556">
        <ele>69</ele>
        <time>2011-12-01T15:21:41Z</time>
      </trkpt>
      <trkpt lat="46.34106" lon="-0.54551">
        <ele>70</ele>
        <time>2011-12-01T15:21:46Z</time>
      </trkpt>
      <trkpt lat="46.34102" lon="-0.54547">
        <ele>71</ele>
        <time>2011-12-01T15:21:51Z</time>
      </trkpt>
      <trkpt lat="46.34099" lon="-0.54543">
        <ele>71</ele>
        <time>2011-12-01T15:21:56Z</time>
      </trkpt>
      <trkpt lat="46.34096" lon="-0.54538">
        <ele>72</ele>
        <time>2011-12-01T15:22:01Z</time>
      </trkpt>
      <trkpt lat="46.34093" lon="-0.54535">
        <ele>72</ele>
        <time>2011-12-01T15:22:06Z</time>
      </trkpt>
      <trkpt lat="46.3409" lon="-0.54531">
        <ele>71</ele>
        <time>2011-12-01T15:22:11Z</time>
      </trkpt>
      <trkpt lat="46.34086" lon="-0.54527">
        <ele>72</ele>
        <time>2011-12-01T15:22:16Z</time>
      </trkpt>
      <trkpt lat="46.34083" lon="-0.54522">
        <ele>73</ele>
        <time>2011-12-01T15:22:21Z</time>
      </trkpt>
      <trkpt lat="46.34079" lon="-0.54518">
        <ele>72</ele>
        <time>2011-12-01T15:22:26Z</time>
      </trkpt>
      <trkpt lat="46.34076" lon="-0.54513">
        <ele>73</ele>
        <time>2011-12-01T15:22:31Z</time>
      </trkpt>
      <trkpt lat="46.34071" lon="-0.54506">
        <ele>74</ele>
        <time>2011-12-01T15:22:36Z</time>
      </trkpt>
      <trkpt lat="46.34068" lon="-0.54501">
        <ele>74</ele>
        <time>2011-12-01T15:22:41Z</time>
      </trkpt>
      <trkpt lat="46.34065" lon="-0.54495">
        <ele>75</ele>
        <time>2011-12-01T15:22:46Z</time>
      </trkpt>
      <trkpt lat="46.34061" lon="-0.54489">
        <ele>74</ele>
        <time>2011-12-01T15:22:51Z</time>
      </trkpt>
      <trkpt lat="46.34057" lon="-0.54484">
        <ele>73</ele>
        <time>2011-12-01T15:22:56Z</time>
      </trkpt>
      <trkpt lat="46.34054" lon="-0.54478">
        <ele>73</ele>
        <time>2011-12-01T15:23:01Z</time>
      </trkpt>
      <trkpt lat="46.34051" lon="-0.54471">
        <ele>75</ele>
        <time>2011-12-01T15:23:06Z</time>
      </trkpt>
      <trkpt lat="46.34048" lon="-0.54467">
        <ele>75</ele>
        <time>2011-12-01T15:23:11Z</time>
      </trkpt>
      <trkpt lat="46.34045" lon="-0.54458">
        <ele>75</ele>
        <time>2011-12-01T15:23:16Z</time>
      </trkpt>
      <trkpt lat="46.34042" lon="-0.54452">
        <ele>77</ele>
        <time>2011-12-01T15:23:21Z</time>
      </trkpt>
      <trkpt lat="46.34039" lon="-0.54446">
        <ele>75</ele>
        <time>2011-12-01T15:23:26Z</time>
      </trkpt>
      <trkpt lat="46.34034" lon="-0.54441">
        <ele>75</ele>
        <time>2011-12-01T15:23:31Z</time>
      </trkpt>
      <trkpt lat="46.34033" lon="-0.54434">
        <ele>73</ele>
        <time>2011-12-01T15:23:36Z</time>
      </trkpt>
      <trkpt lat="46.34029" lon="-0.54428">
        <ele>74</ele>
        <time>2011-12-01T15:23:41Z</time>
      </trkpt>
      <trkpt lat="46.34025" lon="-0.54424">
        <ele>72</ele>
        <time>2011-12-01T15:23:46Z</time>
      </trkpt>
      <trkpt lat="46.34022" lon="-0.54418">
        <ele>71</ele>
        <time>2011-12-01T15:23:51Z</time>
      </trkpt>
      <trkpt lat="46.34019" lon="-0.54412">
        <ele>70</ele>
        <time>2011-12-01T15:23:56Z</time>
      </trkpt>
      <trkpt lat="46.34016" lon="-0.54407">
        <ele>69</ele>
        <time>2011-12-01T15:24:01Z</time>
      </trkpt>
      <trkpt lat="46.34013" lon="-0.54402">
        <ele>70</ele>
        <time>2011-12-01T15:24:06Z</time>
      </trkpt>
      <trkpt lat="46.3401" lon="-0.54397">
        <ele>69</ele>
        <time>2011-12-01T15:24:11Z</time>
      </trkpt>
      <trkpt lat="46.34006" lon="-0.54391">
        <ele>67</ele>
        <time>2011-12-01T15:24:16Z</time>
      </trkpt>
      <trkpt lat="46.34003" lon="-0.54386">
        <ele>67</ele>
        <time>2011-12-01T15:24:21Z</time>
      </trkpt>
      <trkpt lat="46.33999" lon="-0.54382">
        <ele>68</ele>
        <time>2011-12-01T15:24:26Z</time>
      </trkpt>
      <trkpt lat="46.33995" lon="-0.54378">
        <ele>67</ele>
        <time>2011-12-01T15:24:31Z</time>
      </trkpt>
      <trkpt lat="46.33991" lon="-0.54372">
        <ele>68</ele>
        <time>2011-12-01T15:24:36Z</time>
      </trkpt>
      <trkpt lat="46.33988" lon="-0.54366">
        <ele>67</ele>
        <time>2011-12-01T15:24:41Z</time>
      </trkpt>
      <trkpt lat="46.33984" lon="-0.54361">
        <ele>68</ele>
        <time>2011-12-01T15:24:46Z</time>
      </trkpt>
      <trkpt lat="46.33981" lon="-0.54353">
        <ele>65</ele>
        <time>2011-12-01T15:24:51Z</time>
      </trkpt>
      <trkpt lat="46.33978" lon="-0.54347">
        <ele>65</ele>
        <time>2011-12-01T15:24:56Z</time>
      </trkpt>
      <trkpt lat="46.33974" lon="-0.54343">
        <ele>66</ele>
        <time>2011-12-01T15:25:01Z</time>
      </trkpt>
      <trkpt lat="46.33972" lon="-0.54337">
        <ele>65</ele>
        <time>2011-12-01T15:25:06Z</time>
      </trkpt>
      <trkpt lat="46.33968" lon="-0.5433">
        <ele>64</ele>
        <time>2011-12-01T15:25:11Z</time>
      </trkpt>
      <trkpt lat="46.33965" lon="-0.54323">
        <ele>63</ele>
        <time>2011-12-01T15:25:16Z</time>
      </trkpt>
      <trkpt lat="46.33961" lon="-0.54318">
        <ele>62</ele>
        <time>2011-12-01T15:25:21Z</time>
      </trkpt>
      <trkpt lat="46.33959" lon="-0.54315">
        <ele>63</ele>
        <time>2011-12-01T15:25:26Z</time>
      </trkpt>
      <trkpt lat="46.33955" lon="-0.5431">
        <ele>63</ele>
        <time>2011-12-01T15:25:31Z</time>
      </trkpt>
      <trkpt lat="46.33953" lon="-0.54302">
        <ele>63</ele>
        <time>2011-12-01T15:25:36Z</time>
      </trkpt>
      <trkpt lat="46.33948" lon="-0.54296">
        <ele>64</ele>
        <time>2011-12-01T15:25:41Z</time>
      </trkpt>
      <trkpt lat="46.33944" lon="-0.5429">
        <ele>66</ele>
        <time>2011-12-01T15:25:46Z</time>
      </trkpt>
      <trkpt lat="46.33939" lon="-0.54285">
        <ele>67</ele>
        <time>2011-12-01T15:25:51Z</time>
      </trkpt>
      <trkpt lat="46.33936" lon="-0.54278">
        <ele>67</ele>
        <time>2011-12-01T15:25:56Z</time>
      </trkpt>
      <trkpt lat="46.33933" lon="-0.54272">
        <ele>67</ele>
        <time>2011-12-01T15:26:01Z</time>
      </trkpt>
      <trkpt lat="46.33931" lon="-0.54267">
        <ele>66</ele>
        <time>2011-12-01T15:26:06Z</time>
      </trkpt>
      <trkpt lat="46.33928" lon="-0.54261">
        <ele>66</ele>
        <time>2011-12-01T15:26:11Z</time>
      </trkpt>
      <trkpt lat="46.33924" lon="-0.54256">
        <ele>66</ele>
        <time>2011-12-01T15:26:16Z</time>
      </trkpt>
      <trkpt lat="46.33921" lon="-0.5425">
        <ele>64</ele>
        <time>2011-12-01T15:26:21Z</time>
      </trkpt>
      <trkpt lat="46.33917" lon="-0.54244">
        <ele>66</ele>
        <time>2011-12-01T15:26:26Z</time>
      </trkpt>
      <trkpt lat="46.33913" lon="-0.54238">
        <ele>67</ele>
        <time>2011-12-01T15:26:31Z</time>
      </trkpt>
      <trkpt lat="46.33909" lon="-0.54232">
        <ele>68</ele>
        <time>2011-12-01T15:26:36Z</time>
      </trkpt>
      <trkpt lat="46.33906" lon="-0.54226">
        <ele>67</ele>
        <time>2011-12-01T15:26:41Z</time>
      </trkpt>
      <trkpt lat="46.33902" lon="-0.5422">
        <ele>67</ele>
        <time>2011-12-01T15:26:46Z</time>
      </trkpt>
      <trkpt lat="46.33899" lon="-0.54213">
        <ele>68</ele>
        <time>2011-12-01T15:26:51Z</time>
      </trkpt>
      <trkpt lat="46.33896" lon="-0.54205">
        <ele>66</ele>
        <time>2011-12-01T15:26:56Z</time>
      </trkpt>
      <trkpt lat="46.33892" lon="-0.54198">
        <ele>66</ele>
        <time>2011-12-01T15:27:01Z</time>
      </trkpt>
      <trkpt lat="46.33888" lon="-0.54192">
        <ele>66</ele>
        <time>2011-12-01T15:27:06Z</time>
      </trkpt>
      <trkpt lat="46.33885" lon="-0.54187">
        <ele>63</ele>
        <time>2011-12-01T15:27:11Z</time>
      </trkpt>
      <trkpt lat="46.33881" lon="-0.5418">
        <ele>63</ele>
        <time>2011-12-01T15:27:16Z</time>
      </trkpt>
      <trkpt lat="46.33877" lon="-0.54174">
        <ele>64</ele>
        <time>2011-12-01T15:27:21Z</time>
      </trkpt>
      <trkpt lat="46.33873" lon="-0.54169">
        <ele>63</ele>
        <time>2011-12-01T15:27:26Z</time>
      </trkpt>
      <trkpt lat="46.3387" lon="-0.54163">
        <ele>62</ele>
        <time>2011-12-01T15:27:31Z</time>
      </trkpt>
      <trkpt lat="46.33867" lon="-0.54158">
        <ele>63</ele>
        <time>2011-12-01T15:27:36Z</time>
      </trkpt>
      <trkpt lat="46.33865" lon="-0.54153">
        <ele>61</ele>
        <time>2011-12-01T15:27:41Z</time>
      </trkpt>
      <trkpt lat="46.33859" lon="-0.54147">
        <ele>63</ele>
        <time>2011-12-01T15:27:46Z</time>
      </trkpt>
      <trkpt lat="46.33856" lon="-0.5414">
        <ele>64</ele>
        <time>2011-12-01T15:27:51Z</time>
      </trkpt>
      <trkpt lat="46.33853" lon="-0.54134">
        <ele>64</ele>
        <time>2011-12-01T15:27:56Z</time>
      </trkpt>
      <trkpt lat="46.33849" lon="-0.54127">
        <ele>67</ele>
        <time>2011-12-01T15:28:01Z</time>
      </trkpt>
      <trkpt lat="46.33845" lon="-0.54122">
        <ele>66</ele>
        <time>2011-12-01T15:28:06Z</time>
      </trkpt>
      <trkpt lat="46.33842" lon="-0.54116">
        <ele>65</ele>
        <time>2011-12-01T15:28:11Z</time>
      </trkpt>
      <trkpt lat="46.33837" lon="-0.54109">
        <ele>67</ele>
        <time>2011-12-01T15:28:16Z</time>
      </trkpt>
      <trkpt lat="46.33833" lon="-0.54106">
        <ele>68</ele>
        <time>2011-12-01T15:28:21Z</time>
      </trkpt>
      <trkpt lat="46.3383" lon="-0.54102">
        <ele>68</ele>
        <time>2011-12-01T15:28:26Z</time>
      </trkpt>
      <trkpt lat="46.33827" lon="-0.54096">
        <ele>69</ele>
        <time>2011-12-01T15:28:31Z</time>
      </trkpt>
      <trkpt lat="46.33823" lon="-0.54089">
        <ele>69</ele>
        <time>2011-12-01T15:28:36Z</time>
      </trkpt>
      <trkpt lat="46.33821" lon="-0.54084">
        <ele>68</ele>
        <time>2011-12-01T15:28:41Z</time>
      </trkpt>
      <trkpt lat="46.33817" lon="-0.54078">
        <ele>68</ele>
        <time>2011-12-01T15:28:46Z</time>
      </trkpt>
      <trkpt lat="46.33814" lon="-0.54072">
        <ele>68</ele>
        <time>2011-12-01T15:28:51Z</time>
      </trkpt>
      <trkpt lat="46.33812" lon="-0.54065">
        <ele>66</ele>
        <time>2011-12-01T15:28:56Z</time>
      </trkpt>
      <trkpt lat="46.3381" lon="-0.54058">
        <ele>66</ele>
        <time>2011-12-01T15:29:01Z</time>
      </trkpt>
      <trkpt lat="46.33808" lon="-0.54051">
        <ele>65</ele>
        <time>2011-12-01T15:29:06Z</time>
      </trkpt>
      <trkpt lat="46.33807" lon="-0.54045">
        <ele>64</ele>
        <time>2011-12-01T15:29:11Z</time>
      </trkpt>
      <trkpt lat="46.33807" lon="-0.54037">
        <ele>65</ele>
        <time>2011-12-01T15:29:16Z</time>
      </trkpt>
      <trkpt lat="46.33807" lon="-0.54028">
        <ele>65</ele>
        <time>2011-12-01T15:29:21Z</time>
      </trkpt>
      <trkpt lat="46.33808" lon="-0.54021">
        <ele>65</ele>
        <time>2011-12-01T15:29:26Z</time>
      </trkpt>
      <trkpt lat="46.33809" lon="-0.54015">
        <ele>66</ele>
        <time>2011-12-01T15:29:31Z</time>
      </trkpt>
      <trkpt lat="46.33808" lon="-0.54009">
        <ele>67</ele>
        <time>2011-12-01T15:29:36Z</time>
      </trkpt>
      <trkpt lat="46.33807" lon="-0.54004">
        <ele>67</ele>
        <time>2011-12-01T15:29:41Z</time>
      </trkpt>
      <trkpt lat="46.33807" lon="-0.53999">
        <ele>66</ele>
        <time>2011-12-01T15:29:46Z</time>
      </trkpt>
      <trkpt lat="46.33809" lon="-0.53996">
        <ele>66</ele>
        <time>2011-12-01T15:29:51Z</time>
      </trkpt>
      <trkpt lat="46.3381" lon="-0.53989">
        <ele>66</ele>
        <time>2011-12-01T15:29:56Z</time>
      </trkpt>
      <trkpt lat="46.33809" lon="-0.53985">
        <ele>66</ele>
        <time>2011-12-01T15:30:01Z</time>
      </trkpt>
      <trkpt lat="46.3381" lon="-0.5398">
        <ele>67</ele>
        <time>2011-12-01T15:30:06Z</time>
      </trkpt>
      <trkpt lat="46.3381" lon="-0.53975">
        <ele>68</ele>
        <time>2011-12-01T15:30:11Z</time>
      </trkpt>
      <trkpt lat="46.33809" lon="-0.53976">
        <ele>67</ele>
        <time>2011-12-01T15:30:16Z</time>
      </trkpt>
      <trkpt lat="46.33809" lon="-0.53974">
        <ele>66</ele>
        <time>2011-12-01T15:30:21Z</time>
      </trkpt>
      <trkpt lat="46.33809" lon="-0.53969">
        <ele>67</ele>
        <time>2011-12-01T15:30:26Z</time>
      </trkpt>
      <trkpt lat="46.33809" lon="-0.53963">
        <ele>67</ele>
        <time>2011-12-01T15:30:31Z</time>
      </trkpt>
      <trkpt lat="46.33809" lon="-0.53956">
        <ele>67</ele>
        <time>2011-12-01T15:30:36Z</time>
      </trkpt>
      <trkpt lat="46.3381" lon="-0.5395">
        <ele>67</ele>
        <time>2011-12-01T15:30:41Z</time>
      </trkpt>
      <trkpt lat="46.33808" lon="-0.53943">
        <ele>65</ele>
        <time>2011-12-01T15:30:46Z</time>
      </trkpt>
      <trkpt lat="46.33807" lon="-0.53935">
        <ele>66</ele>
        <time>2011-12-01T15:30:51Z</time>
      </trkpt>
      <trkpt lat="46.33811" lon="-0.53928">
        <ele>69</ele>
        <time>2011-12-01T15:30:56Z</time>
      </trkpt>
      <trkpt lat="46.3381" lon="-0.53927">
        <ele>68</ele>
        <time>2011-12-01T15:31:01Z</time>
      </trkpt>
      <trkpt lat="46.33808" lon="-0.53928">
        <ele>66</ele>
        <time>2011-12-01T15:31:06Z</time>
      </trkpt>
      <trkpt lat="46.33806" lon="-0.53927">
        <ele>63</ele>
        <time>2011-12-01T15:31:11Z</time>
      </trkpt>
      <trkpt lat="46.33806" lon="-0.53927">
        <ele>63</ele>
        <time>2011-12-01T15:31:26Z</time>
      </trkpt>
      <trkpt lat="46.33806" lon="-0.53928">
        <ele>63</ele>
        <time>2011-12-01T15:31:36Z</time>
      </trkpt>
      <trkpt lat="46.33806" lon="-0.53927">
        <ele>63</ele>
        <time>2011-12-01T15:32:26Z</time>
      </trkpt>
      <trkpt lat="46.33806" lon="-0.53927">
        <ele>63</ele>
        <time>2011-12-01T15:32:36Z</time>
      </trkpt>
      <trkpt lat="46.33806" lon="-0.53926">
        <ele>63</ele>
        <time>2011-12-01T15:32:41Z</time>
      </trkpt>
      <trkpt lat="46.33806" lon="-0.53926">
        <ele>63</ele>
        <time>2011-12-01T15:32:56Z</time>
      </trkpt>
      <trkpt lat="46.33806" lon="-0.53927">
        <ele>63</ele>
        <time>2011-12-01T15:33:01Z</time>
      </trkpt>
      <trkpt lat="46.33807" lon="-0.53927">
        <ele>62</ele>
        <time>2011-12-01T15:33:31Z</time>
      </trkpt>
      <trkpt lat="46.33808" lon="-0.53927">
        <ele>63</ele>
        <time>2011-12-01T15:33:36Z</time>
      </trkpt>
      <trkpt lat="46.33808" lon="-0.53926">
        <ele>63</ele>
        <time>2011-12-01T15:33:41Z</time>
      </trkpt>
      <trkpt lat="46.33807" lon="-0.53924">
        <ele>63</ele>
        <time>2011-12-01T15:34:16Z</time>
      </trkpt>
      <trkpt lat="46.33808" lon="-0.53922">
        <ele>62</ele>
        <time>2011-12-01T15:34:21Z</time>
      </trkpt>
      <trkpt lat="46.33808" lon="-0.53912">
        <ele>63</ele>
        <time>2011-12-01T15:34:26Z</time>
      </trkpt>
      <trkpt lat="46.33806" lon="-0.53907">
        <ele>63</ele>
        <time>2011-12-01T15:34:31Z</time>
      </trkpt>
      <trkpt lat="46.33806" lon="-0.53901">
        <ele>65</ele>
        <time>2011-12-01T15:34:36Z</time>
      </trkpt>
      <trkpt lat="46.33808" lon="-0.53908">
        <ele>59</ele>
        <time>2011-12-01T15:34:41Z</time>
      </trkpt>
      <trkpt lat="46.33807" lon="-0.53901">
        <ele>58</ele>
        <time>2011-12-01T15:34:46Z</time>
      </trkpt>
      <trkpt lat="46.33806" lon="-0.5389">
        <ele>60</ele>
        <time>2011-12-01T15:34:51Z</time>
      </trkpt>
      <trkpt lat="46.33805" lon="-0.53883">
        <ele>61</ele>
        <time>2011-12-01T15:34:56Z</time>
      </trkpt>
      <trkpt lat="46.33805" lon="-0.53881">
        <ele>61</ele>
        <time>2011-12-01T15:35:01Z</time>
      </trkpt>
      <trkpt lat="46.33805" lon="-0.5388">
        <ele>62</ele>
        <time>2011-12-01T15:35:06Z</time>
      </trkpt>
      <trkpt lat="46.33804" lon="-0.53873">
        <ele>61</ele>
        <time>2011-12-01T15:35:11Z</time>
      </trkpt>
      <trkpt lat="46.33804" lon="-0.53867">
        <ele>61</ele>
        <time>2011-12-01T15:35:16Z</time>
      </trkpt>
      <trkpt lat="46.33804" lon="-0.53859">
        <ele>61</ele>
        <time>2011-12-01T15:35:21Z</time>
      </trkpt>
      <trkpt lat="46.33802" lon="-0.5385">
        <ele>62</ele>
        <time>2011-12-01T15:35:26Z</time>
      </trkpt>
      <trkpt lat="46.33801" lon="-0.53842">
        <ele>62</ele>
        <time>2011-12-01T15:35:31Z</time>
      </trkpt>
      <trkpt lat="46.338" lon="-0.53836">
        <ele>63</ele>
        <time>2011-12-01T15:35:36Z</time>
      </trkpt>
      <trkpt lat="46.33799" lon="-0.5383">
        <ele>63</ele>
        <time>2011-12-01T15:35:41Z</time>
      </trkpt>
      <trkpt lat="46.33798" lon="-0.53823">
        <ele>63</ele>
        <time>2011-12-01T15:35:46Z</time>
      </trkpt>
      <trkpt lat="46.33795" lon="-0.53813">
        <ele>63</ele>
        <time>2011-12-01T15:35:51Z</time>
      </trkpt>
      <trkpt lat="46.33793" lon="-0.53805">
        <ele>64</ele>
        <time>2011-12-01T15:35:56Z</time>
      </trkpt>
      <trkpt lat="46.33796" lon="-0.538">
        <ele>65</ele>
        <time>2011-12-01T15:36:01Z</time>
      </trkpt>
      <trkpt lat="46.33794" lon="-0.53793">
        <ele>66</ele>
        <time>2011-12-01T15:36:06Z</time>
      </trkpt>
      <trkpt lat="46.33792" lon="-0.53784">
        <ele>66</ele>
        <time>2011-12-01T15:36:11Z</time>
      </trkpt>
      <trkpt lat="46.33793" lon="-0.53779">
        <ele>66</ele>
        <time>2011-12-01T15:36:16Z</time>
      </trkpt>
      <trkpt lat="46.3379" lon="-0.53768">
        <ele>67</ele>
        <time>2011-12-01T15:36:21Z</time>
      </trkpt>
      <trkpt lat="46.3379" lon="-0.53768">
        <ele>66</ele>
        <time>2011-12-01T15:36:26Z</time>
      </trkpt>
      <trkpt lat="46.33788" lon="-0.53758">
        <ele>66</ele>
        <time>2011-12-01T15:36:31Z</time>
      </trkpt>
      <trkpt lat="46.33786" lon="-0.53749">
        <ele>68</ele>
        <time>2011-12-01T15:36:36Z</time>
      </trkpt>
      <trkpt lat="46.33785" lon="-0.53742">
        <ele>68</ele>
        <time>2011-12-01T15:36:41Z</time>
      </trkpt>
      <trkpt lat="46.33784" lon="-0.53736">
        <ele>68</ele>
        <time>2011-12-01T15:36:46Z</time>
      </trkpt>
      <trkpt lat="46.33782" lon="-0.53727">
        <ele>71</ele>
        <time>2011-12-01T15:36:51Z</time>
      </trkpt>
      <trkpt lat="46.33782" lon="-0.5372">
        <ele>71</ele>
        <time>2011-12-01T15:36:56Z</time>
      </trkpt>
      <trkpt lat="46.3378" lon="-0.53713">
        <ele>70</ele>
        <time>2011-12-01T15:37:01Z</time>
      </trkpt>
      <trkpt lat="46.33778" lon="-0.53706">
        <ele>70</ele>
        <time>2011-12-01T15:37:06Z</time>
      </trkpt>
      <trkpt lat="46.33776" lon="-0.53699">
        <ele>69</ele>
        <time>2011-12-01T15:37:11Z</time>
      </trkpt>
      <trkpt lat="46.33775" lon="-0.53691">
        <ele>70</ele>
        <time>2011-12-01T15:37:16Z</time>
      </trkpt>
      <trkpt lat="46.33772" lon="-0.53686">
        <ele>68</ele>
        <time>2011-12-01T15:37:21Z</time>
      </trkpt>
      <trkpt lat="46.33771" lon="-0.5368">
        <ele>68</ele>
        <time>2011-12-01T15:37:26Z</time>
      </trkpt>
      <trkpt lat="46.33769" lon="-0.53672">
        <ele>69</ele>
        <time>2011-12-01T15:37:31Z</time>
      </trkpt>
      <trkpt lat="46.33767" lon="-0.53665">
        <ele>70</ele>
        <time>2011-12-01T15:37:36Z</time>
      </trkpt>
      <trkpt lat="46.33765" lon="-0.53658">
        <ele>70</ele>
        <time>2011-12-01T15:37:41Z</time>
      </trkpt>
      <trkpt lat="46.33764" lon="-0.53652">
        <ele>69</ele>
        <time>2011-12-01T15:37:46Z</time>
      </trkpt>
      <trkpt lat="46.33762" lon="-0.53646">
        <ele>69</ele>
        <time>2011-12-01T15:37:51Z</time>
      </trkpt>
      <trkpt lat="46.3376" lon="-0.53639">
        <ele>70</ele>
        <time>2011-12-01T15:37:56Z</time>
      </trkpt>
      <trkpt lat="46.33758" lon="-0.5363">
        <ele>70</ele>
        <time>2011-12-01T15:38:01Z</time>
      </trkpt>
      <trkpt lat="46.33756" lon="-0.53624">
        <ele>70</ele>
        <time>2011-12-01T15:38:06Z</time>
      </trkpt>
      <trkpt lat="46.33755" lon="-0.5362">
        <ele>68</ele>
        <time>2011-12-01T15:38:11Z</time>
      </trkpt>
      <trkpt lat="46.33752" lon="-0.53611">
        <ele>68</ele>
        <time>2011-12-01T15:38:16Z</time>
      </trkpt>
      <trkpt lat="46.3375" lon="-0.53606">
        <ele>67</ele>
        <time>2011-12-01T15:38:21Z</time>
      </trkpt>
      <trkpt lat="46.33749" lon="-0.536">
        <ele>67</ele>
        <time>2011-12-01T15:38:26Z</time>
      </trkpt>
      <trkpt lat="46.33747" lon="-0.53593">
        <ele>67</ele>
        <time>2011-12-01T15:38:31Z</time>
      </trkpt>
      <trkpt lat="46.33745" lon="-0.53586">
        <ele>66</ele>
        <time>2011-12-01T15:38:36Z</time>
      </trkpt>
      <trkpt lat="46.33743" lon="-0.53581">
        <ele>64</ele>
        <time>2011-12-01T15:38:41Z</time>
      </trkpt>
      <trkpt lat="46.33741" lon="-0.53574">
        <ele>64</ele>
        <time>2011-12-01T15:38:46Z</time>
      </trkpt>
      <trkpt lat="46.33739" lon="-0.53567">
        <ele>64</ele>
        <time>2011-12-01T15:38:51Z</time>
      </trkpt>
      <trkpt lat="46.33737" lon="-0.53561">
        <ele>64</ele>
        <time>2011-12-01T15:38:56Z</time>
      </trkpt>
      <trkpt lat="46.33735" lon="-0.53554">
        <ele>64</ele>
        <time>2011-12-01T15:39:01Z</time>
      </trkpt>
      <trkpt lat="46.33733" lon="-0.53548">
        <ele>63</ele>
        <time>2011-12-01T15:39:06Z</time>
      </trkpt>
      <trkpt lat="46.33731" lon="-0.53542">
        <ele>62</ele>
        <time>2011-12-01T15:39:11Z</time>
      </trkpt>
      <trkpt lat="46.33729" lon="-0.53536">
        <ele>61</ele>
        <time>2011-12-01T15:39:16Z</time>
      </trkpt>
      <trkpt lat="46.33727" lon="-0.5353">
        <ele>61</ele>
        <time>2011-12-01T15:39:21Z</time>
      </trkpt>
      <trkpt lat="46.33726" lon="-0.53525">
        <ele>59</ele>
        <time>2011-12-01T15:39:26Z</time>
      </trkpt>
      <trkpt lat="46.33724" lon="-0.53517">
        <ele>60</ele>
        <time>2011-12-01T15:39:31Z</time>
      </trkpt>
      <trkpt lat="46.33723" lon="-0.53512">
        <ele>60</ele>
        <time>2011-12-01T15:39:36Z</time>
      </trkpt>
      <trkpt lat="46.33721" lon="-0.53505">
        <ele>60</ele>
        <time>2011-12-01T15:39:41Z</time>
      </trkpt>
      <trkpt lat="46.33719" lon="-0.53498">
        <ele>59</ele>
        <time>2011-12-01T15:39:46Z</time>
      </trkpt>
      <trkpt lat="46.33716" lon="-0.5349">
        <ele>59</ele>
        <time>2011-12-01T15:39:51Z</time>
      </trkpt>
      <trkpt lat="46.33714" lon="-0.53482">
        <ele>59</ele>
        <time>2011-12-01T15:39:56Z</time>
      </trkpt>
      <trkpt lat="46.33713" lon="-0.53476">
        <ele>58</ele>
        <time>2011-12-01T15:40:01Z</time>
      </trkpt>
      <trkpt lat="46.33711" lon="-0.53468">
        <ele>59</ele>
        <time>2011-12-01T15:40:06Z</time>
      </trkpt>
      <trkpt lat="46.33709" lon="-0.53462">
        <ele>58</ele>
        <time>2011-12-01T15:40:11Z</time>
      </trkpt>
      <trkpt lat="46.33708" lon="-0.53456">
        <ele>57</ele>
        <time>2011-12-01T15:40:16Z</time>
      </trkpt>
      <trkpt lat="46.33705" lon="-0.53447">
        <ele>58</ele>
        <time>2011-12-01T15:40:21Z</time>
      </trkpt>
      <trkpt lat="46.33703" lon="-0.53439">
        <ele>57</ele>
        <time>2011-12-01T15:40:26Z</time>
      </trkpt>
      <trkpt lat="46.33701" lon="-0.53431">
        <ele>59</ele>
        <time>2011-12-01T15:40:31Z</time>
      </trkpt>
      <trkpt lat="46.337" lon="-0.53423">
        <ele>59</ele>
        <time>2011-12-01T15:40:36Z</time>
      </trkpt>
      <trkpt lat="46.33697" lon="-0.53415">
        <ele>60</ele>
        <time>2011-12-01T15:40:41Z</time>
      </trkpt>
      <trkpt lat="46.33696" lon="-0.53407">
        <ele>60</ele>
        <time>2011-12-01T15:40:46Z</time>
      </trkpt>
      <trkpt lat="46.33694" lon="-0.53396">
        <ele>62</ele>
        <time>2011-12-01T15:40:51Z</time>
      </trkpt>
      <trkpt lat="46.33692" lon="-0.53389">
        <ele>63</ele>
        <time>2011-12-01T15:40:56Z</time>
      </trkpt>
      <trkpt lat="46.3369" lon="-0.53382">
        <ele>62</ele>
        <time>2011-12-01T15:41:01Z</time>
      </trkpt>
      <trkpt lat="46.33688" lon="-0.53374">
        <ele>62</ele>
        <time>2011-12-01T15:41:06Z</time>
      </trkpt>
      <trkpt lat="46.33686" lon="-0.53365">
        <ele>63</ele>
        <time>2011-12-01T15:41:11Z</time>
      </trkpt>
      <trkpt lat="46.33685" lon="-0.5336">
        <ele>64</ele>
        <time>2011-12-01T15:41:16Z</time>
      </trkpt>
      <trkpt lat="46.33684" lon="-0.53351">
        <ele>64</ele>
        <time>2011-12-01T15:41:21Z</time>
      </trkpt>
      <trkpt lat="46.33681" lon="-0.53341">
        <ele>64</ele>
        <time>2011-12-01T15:41:26Z</time>
      </trkpt>
      <trkpt lat="46.3368" lon="-0.53335">
        <ele>64</ele>
        <time>2011-12-01T15:41:31Z</time>
      </trkpt>
      <trkpt lat="46.33679" lon="-0.5333">
        <ele>65</ele>
        <time>2011-12-01T15:41:36Z</time>
      </trkpt>
      <trkpt lat="46.33678" lon="-0.53324">
        <ele>65</ele>
        <time>2011-12-01T15:41:41Z</time>
      </trkpt>
      <trkpt lat="46.33677" lon="-0.5332">
        <ele>65</ele>
        <time>2011-12-01T15:41:46Z</time>
      </trkpt>
      <trkpt lat="46.33675" lon="-0.53315">
        <ele>65</ele>
        <time>2011-12-01T15:41:51Z</time>
      </trkpt>
      <trkpt lat="46.33674" lon="-0.53312">
        <ele>63</ele>
        <time>2011-12-01T15:41:56Z</time>
      </trkpt>
      <trkpt lat="46.33672" lon="-0.53305">
        <ele>63</ele>
        <time>2011-12-01T15:42:01Z</time>
      </trkpt>
      <trkpt lat="46.33671" lon="-0.53299">
        <ele>62</ele>
        <time>2011-12-01T15:42:06Z</time>
      </trkpt>
      <trkpt lat="46.33669" lon="-0.53292">
        <ele>62</ele>
        <time>2011-12-01T15:42:11Z</time>
      </trkpt>
      <trkpt lat="46.33667" lon="-0.53285">
        <ele>62</ele>
        <time>2011-12-01T15:42:16Z</time>
      </trkpt>
      <trkpt lat="46.33666" lon="-0.53277">
        <ele>63</ele>
        <time>2011-12-01T15:42:21Z</time>
      </trkpt>
      <trkpt lat="46.33664" lon="-0.53271">
        <ele>63</ele>
        <time>2011-12-01T15:42:26Z</time>
      </trkpt>
      <trkpt lat="46.33662" lon="-0.53265">
        <ele>63</ele>
        <time>2011-12-01T15:42:31Z</time>
      </trkpt>
      <trkpt lat="46.33659" lon="-0.5326">
        <ele>62</ele>
        <time>2011-12-01T15:42:36Z</time>
      </trkpt>
      <trkpt lat="46.33657" lon="-0.53256">
        <ele>63</ele>
        <time>2011-12-01T15:42:41Z</time>
      </trkpt>
      <trkpt lat="46.33657" lon="-0.53257">
        <ele>63</ele>
        <time>2011-12-01T15:42:46Z</time>
      </trkpt>
      <trkpt lat="46.33655" lon="-0.53253">
        <ele>63</ele>
        <time>2011-12-01T15:42:51Z</time>
      </trkpt>
      <trkpt lat="46.33651" lon="-0.53253">
        <ele>64</ele>
        <time>2011-12-01T15:42:56Z</time>
      </trkpt>
      <trkpt lat="46.33646" lon="-0.53255">
        <ele>64</ele>
        <time>2011-12-01T15:43:01Z</time>
      </trkpt>
      <trkpt lat="46.33642" lon="-0.53256">
        <ele>64</ele>
        <time>2011-12-01T15:43:06Z</time>
      </trkpt>
      <trkpt lat="46.33637" lon="-0.53257">
        <ele>63</ele>
        <time>2011-12-01T15:43:11Z</time>
      </trkpt>
      <trkpt lat="46.33632" lon="-0.53258">
        <ele>63</ele>
        <time>2011-12-01T15:43:16Z</time>
      </trkpt>
      <trkpt lat="46.3363" lon="-0.53259">
        <ele>62</ele>
        <time>2011-12-01T15:43:21Z</time>
      </trkpt>
      <trkpt lat="46.3363" lon="-0.53259">
        <ele>62</ele>
        <time>2011-12-01T15:43:26Z</time>
      </trkpt>
      <trkpt lat="46.3363" lon="-0.53253">
        <ele>62</ele>
        <time>2011-12-01T15:43:31Z</time>
      </trkpt>
      <trkpt lat="46.33629" lon="-0.53248">
        <ele>63</ele>
        <time>2011-12-01T15:43:36Z</time>
      </trkpt>
      <trkpt lat="46.33629" lon="-0.53249">
        <ele>63</ele>
        <time>2011-12-01T15:43:41Z</time>
      </trkpt>
      <trkpt lat="46.33629" lon="-0.53247">
        <ele>63</ele>
        <time>2011-12-01T15:44:01Z</time>
      </trkpt>
      <trkpt lat="46.33626" lon="-0.53244">
        <ele>62</ele>
        <time>2011-12-01T15:44:06Z</time>
      </trkpt>
      <trkpt lat="46.33626" lon="-0.5324">
        <ele>61</ele>
        <time>2011-12-01T15:44:11Z</time>
      </trkpt>
      <trkpt lat="46.33625" lon="-0.53238">
        <ele>61</ele>
        <time>2011-12-01T15:44:16Z</time>
      </trkpt>
      <trkpt lat="46.33625" lon="-0.53232">
        <ele>60</ele>
        <time>2011-12-01T15:44:21Z</time>
      </trkpt>
      <trkpt lat="46.33624" lon="-0.53229">
        <ele>61</ele>
        <time>2011-12-01T15:44:26Z</time>
      </trkpt>
      <trkpt lat="46.33624" lon="-0.53228">
        <ele>61</ele>
        <time>2011-12-01T15:44:31Z</time>
      </trkpt>
      <trkpt lat="46.33623" lon="-0.53227">
        <ele>61</ele>
        <time>2011-12-01T15:44:36Z</time>
      </trkpt>
      <trkpt lat="46.33621" lon="-0.53221">
        <ele>62</ele>
        <time>2011-12-01T15:44:41Z</time>
      </trkpt>
      <trkpt lat="46.33619" lon="-0.53213">
        <ele>61</ele>
        <time>2011-12-01T15:44:46Z</time>
      </trkpt>
      <trkpt lat="46.33616" lon="-0.53207">
        <ele>61</ele>
        <time>2011-12-01T15:44:51Z</time>
      </trkpt>
      <trkpt lat="46.33614" lon="-0.53201">
        <ele>62</ele>
        <time>2011-12-01T15:44:56Z</time>
      </trkpt>
      <trkpt lat="46.33612" lon="-0.53192">
        <ele>62</ele>
        <time>2011-12-01T15:45:01Z</time>
      </trkpt>
      <trkpt lat="46.33609" lon="-0.53187">
        <ele>62</ele>
        <time>2011-12-01T15:45:06Z</time>
      </trkpt>
      <trkpt lat="46.33607" lon="-0.53181">
        <ele>62</ele>
        <time>2011-12-01T15:45:11Z</time>
      </trkpt>
      <trkpt lat="46.33605" lon="-0.53175">
        <ele>62</ele>
        <time>2011-12-01T15:45:16Z</time>
      </trkpt>
      <trkpt lat="46.33604" lon="-0.53171">
        <ele>63</ele>
        <time>2011-12-01T15:45:21Z</time>
      </trkpt>
      <trkpt lat="46.33602" lon="-0.53163">
        <ele>62</ele>
        <time>2011-12-01T15:45:26Z</time>
      </trkpt>
      <trkpt lat="46.336" lon="-0.53156">
        <ele>62</ele>
        <time>2011-12-01T15:45:31Z</time>
      </trkpt>
      <trkpt lat="46.33598" lon="-0.5315">
        <ele>63</ele>
        <time>2011-12-01T15:45:36Z</time>
      </trkpt>
      <trkpt lat="46.33597" lon="-0.53148">
        <ele>64</ele>
        <time>2011-12-01T15:45:41Z</time>
      </trkpt>
      <trkpt lat="46.33595" lon="-0.53142">
        <ele>63</ele>
        <time>2011-12-01T15:45:46Z</time>
      </trkpt>
      <trkpt lat="46.33593" lon="-0.53136">
        <ele>63</ele>
        <time>2011-12-01T15:45:51Z</time>
      </trkpt>
      <trkpt lat="46.33593" lon="-0.53131">
        <ele>62</ele>
        <time>2011-12-01T15:45:56Z</time>
      </trkpt>
      <trkpt lat="46.33591" lon="-0.53126">
        <ele>62</ele>
        <time>2011-12-01T15:46:01Z</time>
      </trkpt>
      <trkpt lat="46.33591" lon="-0.53125">
        <ele>61</ele>
        <time>2011-12-01T15:46:06Z</time>
      </trkpt>
      <trkpt lat="46.33589" lon="-0.53121">
        <ele>61</ele>
        <time>2011-12-01T15:46:11Z</time>
      </trkpt>
      <trkpt lat="46.33587" lon="-0.53114">
        <ele>62</ele>
        <time>2011-12-01T15:46:16Z</time>
      </trkpt>
      <trkpt lat="46.33586" lon="-0.53109">
        <ele>62</ele>
        <time>2011-12-01T15:46:21Z</time>
      </trkpt>
      <trkpt lat="46.33584" lon="-0.53103">
        <ele>62</ele>
        <time>2011-12-01T15:46:26Z</time>
      </trkpt>
      <trkpt lat="46.33583" lon="-0.53101">
        <ele>61</ele>
        <time>2011-12-01T15:46:31Z</time>
      </trkpt>
      <trkpt lat="46.33583" lon="-0.53101">
        <ele>61</ele>
        <time>2011-12-01T15:46:36Z</time>
      </trkpt>
      <trkpt lat="46.33583" lon="-0.531">
        <ele>61</ele>
        <time>2011-12-01T15:46:41Z</time>
      </trkpt>
      <trkpt lat="46.33582" lon="-0.53097">
        <ele>60</ele>
        <time>2011-12-01T15:46:46Z</time>
      </trkpt>
      <trkpt lat="46.3358" lon="-0.53094">
        <ele>61</ele>
        <time>2011-12-01T15:46:51Z</time>
      </trkpt>
      <trkpt lat="46.33578" lon="-0.53091">
        <ele>60</ele>
        <time>2011-12-01T15:46:56Z</time>
      </trkpt>
      <trkpt lat="46.33576" lon="-0.53087">
        <ele>61</ele>
        <time>2011-12-01T15:47:01Z</time>
      </trkpt>
      <trkpt lat="46.33576" lon="-0.53086">
        <ele>60</ele>
        <time>2011-12-01T15:47:06Z</time>
      </trkpt>
      <trkpt lat="46.33575" lon="-0.53084">
        <ele>60</ele>
        <time>2011-12-01T15:47:11Z</time>
      </trkpt>
      <trkpt lat="46.33574" lon="-0.53083">
        <ele>61</ele>
        <time>2011-12-01T15:47:16Z</time>
      </trkpt>
      <trkpt lat="46.33574" lon="-0.53081">
        <ele>61</ele>
        <time>2011-12-01T15:47:26Z</time>
      </trkpt>
      <trkpt lat="46.33574" lon="-0.5308">
        <ele>61</ele>
        <time>2011-12-01T15:47:31Z</time>
      </trkpt>
      <trkpt lat="46.33573" lon="-0.53075">
        <ele>61</ele>
        <time>2011-12-01T15:47:36Z</time>
      </trkpt>
      <trkpt lat="46.33571" lon="-0.53071">
        <ele>61</ele>
        <time>2011-12-01T15:47:41Z</time>
      </trkpt>
      <trkpt lat="46.33569" lon="-0.53067">
        <ele>59</ele>
        <time>2011-12-01T15:47:46Z</time>
      </trkpt>
      <trkpt lat="46.33567" lon="-0.53064">
        <ele>60</ele>
        <time>2011-12-01T15:47:51Z</time>
      </trkpt>
      <trkpt lat="46.33565" lon="-0.53058">
        <ele>60</ele>
        <time>2011-12-01T15:47:56Z</time>
      </trkpt>
      <trkpt lat="46.33563" lon="-0.53053">
        <ele>60</ele>
        <time>2011-12-01T15:48:01Z</time>
      </trkpt>
      <trkpt lat="46.33562" lon="-0.53047">
        <ele>59</ele>
        <time>2011-12-01T15:48:06Z</time>
      </trkpt>
      <trkpt lat="46.3356" lon="-0.53042">
        <ele>59</ele>
        <time>2011-12-01T15:48:11Z</time>
      </trkpt>
      <trkpt lat="46.33558" lon="-0.53037">
        <ele>60</ele>
        <time>2011-12-01T15:48:16Z</time>
      </trkpt>
      <trkpt lat="46.33556" lon="-0.53032">
        <ele>60</ele>
        <time>2011-12-01T15:48:21Z</time>
      </trkpt>
      <trkpt lat="46.33554" lon="-0.53028">
        <ele>60</ele>
        <time>2011-12-01T15:48:26Z</time>
      </trkpt>
      <trkpt lat="46.33552" lon="-0.53023">
        <ele>59</ele>
        <time>2011-12-01T15:48:31Z</time>
      </trkpt>
      <trkpt lat="46.33551" lon="-0.53019">
        <ele>58</ele>
        <time>2011-12-01T15:48:36Z</time>
      </trkpt>
      <trkpt lat="46.33549" lon="-0.53013">
        <ele>58</ele>
        <time>2011-12-01T15:48:41Z</time>
      </trkpt>
      <trkpt lat="46.33547" lon="-0.53007">
        <ele>57</ele>
        <time>2011-12-01T15:48:46Z</time>
      </trkpt>
      <trkpt lat="46.33545" lon="-0.53">
        <ele>57</ele>
        <time>2011-12-01T15:48:51Z</time>
      </trkpt>
      <trkpt lat="46.33543" lon="-0.52993">
        <ele>57</ele>
        <time>2011-12-01T15:48:56Z</time>
      </trkpt>
      <trkpt lat="46.33542" lon="-0.5299">
        <ele>57</ele>
        <time>2011-12-01T15:49:01Z</time>
      </trkpt>
      <trkpt lat="46.33542" lon="-0.5299">
        <ele>58</ele>
        <time>2011-12-01T15:49:06Z</time>
      </trkpt>
      <trkpt lat="46.33542" lon="-0.52989">
        <ele>58</ele>
        <time>2011-12-01T15:49:31Z</time>
      </trkpt>
      <trkpt lat="46.33539" lon="-0.52987">
        <ele>59</ele>
        <time>2011-12-01T15:49:36Z</time>
      </trkpt>
      <trkpt lat="46.3354" lon="-0.52986">
        <ele>59</ele>
        <time>2011-12-01T15:49:41Z</time>
      </trkpt>
      <trkpt lat="46.33541" lon="-0.52987">
        <ele>59</ele>
        <time>2011-12-01T15:49:46Z</time>
      </trkpt>
      <trkpt lat="46.33542" lon="-0.52982">
        <ele>58</ele>
        <time>2011-12-01T15:49:51Z</time>
      </trkpt>
      <trkpt lat="46.33539" lon="-0.52978">
        <ele>58</ele>
        <time>2011-12-01T15:49:56Z</time>
      </trkpt>
      <trkpt lat="46.33538" lon="-0.52974">
        <ele>57</ele>
        <time>2011-12-01T15:50:01Z</time>
      </trkpt>
      <trkpt lat="46.33534" lon="-0.52968">
        <ele>56</ele>
        <time>2011-12-01T15:50:06Z</time>
      </trkpt>
      <trkpt lat="46.33532" lon="-0.52963">
        <ele>55</ele>
        <time>2011-12-01T15:50:11Z</time>
      </trkpt>
      <trkpt lat="46.3353" lon="-0.52957">
        <ele>55</ele>
        <time>2011-12-01T15:50:16Z</time>
      </trkpt>
      <trkpt lat="46.33529" lon="-0.52952">
        <ele>57</ele>
        <time>2011-12-01T15:50:21Z</time>
      </trkpt>
      <trkpt lat="46.33528" lon="-0.52946">
        <ele>57</ele>
        <time>2011-12-01T15:50:26Z</time>
      </trkpt>
      <trkpt lat="46.33526" lon="-0.52941">
        <ele>57</ele>
        <time>2011-12-01T15:50:31Z</time>
      </trkpt>
      <trkpt lat="46.33525" lon="-0.52936">
        <ele>57</ele>
        <time>2011-12-01T15:50:36Z</time>
      </trkpt>
      <trkpt lat="46.33523" lon="-0.5293">
        <ele>58</ele>
        <time>2011-12-01T15:50:41Z</time>
      </trkpt>
      <trkpt lat="46.33521" lon="-0.52924">
        <ele>58</ele>
        <time>2011-12-01T15:50:46Z</time>
      </trkpt>
      <trkpt lat="46.33519" lon="-0.52918">
        <ele>58</ele>
        <time>2011-12-01T15:50:51Z</time>
      </trkpt>
      <trkpt lat="46.33517" lon="-0.52915">
        <ele>58</ele>
        <time>2011-12-01T15:50:56Z</time>
      </trkpt>
      <trkpt lat="46.33514" lon="-0.52907">
        <ele>59</ele>
        <time>2011-12-01T15:51:01Z</time>
      </trkpt>
      <trkpt lat="46.33513" lon="-0.52902">
        <ele>60</ele>
        <time>2011-12-01T15:51:06Z</time>
      </trkpt>
      <trkpt lat="46.33511" lon="-0.52896">
        <ele>59</ele>
        <time>2011-12-01T15:51:11Z</time>
      </trkpt>
      <trkpt lat="46.3351" lon="-0.52892">
        <ele>59</ele>
        <time>2011-12-01T15:51:16Z</time>
      </trkpt>
      <trkpt lat="46.33507" lon="-0.52885">
        <ele>60</ele>
        <time>2011-12-01T15:51:21Z</time>
      </trkpt>
      <trkpt lat="46.33505" lon="-0.52879">
        <ele>59</ele>
        <time>2011-12-01T15:51:26Z</time>
      </trkpt>
      <trkpt lat="46.33504" lon="-0.52875">
        <ele>60</ele>
        <time>2011-12-01T15:51:31Z</time>
      </trkpt>
      <trkpt lat="46.33502" lon="-0.52867">
        <ele>61</ele>
        <time>2011-12-01T15:51:36Z</time>
      </trkpt>
      <trkpt lat="46.335" lon="-0.52861">
        <ele>61</ele>
        <time>2011-12-01T15:51:41Z</time>
      </trkpt>
      <trkpt lat="46.33497" lon="-0.52854">
        <ele>61</ele>
        <time>2011-12-01T15:51:46Z</time>
      </trkpt>
      <trkpt lat="46.33495" lon="-0.52849">
        <ele>61</ele>
        <time>2011-12-01T15:51:51Z</time>
      </trkpt>
      <trkpt lat="46.33493" lon="-0.52844">
        <ele>60</ele>
        <time>2011-12-01T15:51:56Z</time>
      </trkpt>
      <trkpt lat="46.33491" lon="-0.52837">
        <ele>61</ele>
        <time>2011-12-01T15:52:01Z</time>
      </trkpt>
      <trkpt lat="46.33489" lon="-0.5283">
        <ele>61</ele>
        <time>2011-12-01T15:52:06Z</time>
      </trkpt>
      <trkpt lat="46.33487" lon="-0.52825">
        <ele>61</ele>
        <time>2011-12-01T15:52:11Z</time>
      </trkpt>
      <trkpt lat="46.33485" lon="-0.5282">
        <ele>60</ele>
        <time>2011-12-01T15:52:16Z</time>
      </trkpt>
      <trkpt lat="46.33482" lon="-0.5281">
        <ele>61</ele>
        <time>2011-12-01T15:52:21Z</time>
      </trkpt>
      <trkpt lat="46.3348" lon="-0.52805">
        <ele>61</ele>
        <time>2011-12-01T15:52:26Z</time>
      </trkpt>
      <trkpt lat="46.33477" lon="-0.52798">
        <ele>61</ele>
        <time>2011-12-01T15:52:31Z</time>
      </trkpt>
      <trkpt lat="46.33475" lon="-0.52791">
        <ele>61</ele>
        <time>2011-12-01T15:52:36Z</time>
      </trkpt>
      <trkpt lat="46.33473" lon="-0.52784">
        <ele>61</ele>
        <time>2011-12-01T15:52:41Z</time>
      </trkpt>
      <trkpt lat="46.33469" lon="-0.52777">
        <ele>61</ele>
        <time>2011-12-01T15:52:46Z</time>
      </trkpt>
      <trkpt lat="46.33467" lon="-0.5277">
        <ele>61</ele>
        <time>2011-12-01T15:52:51Z</time>
      </trkpt>
      <trkpt lat="46.33466" lon="-0.52761">
        <ele>61</ele>
        <time>2011-12-01T15:52:56Z</time>
      </trkpt>
      <trkpt lat="46.33463" lon="-0.52755">
        <ele>62</ele>
        <time>2011-12-01T15:53:01Z</time>
      </trkpt>
      <trkpt lat="46.33462" lon="-0.52748">
        <ele>63</ele>
        <time>2011-12-01T15:53:06Z</time>
      </trkpt>
      <trkpt lat="46.3346" lon="-0.52742">
        <ele>63</ele>
        <time>2011-12-01T15:53:11Z</time>
      </trkpt>
      <trkpt lat="46.33458" lon="-0.52738">
        <ele>63</ele>
        <time>2011-12-01T15:53:16Z</time>
      </trkpt>
      <trkpt lat="46.33457" lon="-0.52733">
        <ele>61</ele>
        <time>2011-12-01T15:53:21Z</time>
      </trkpt>
      <trkpt lat="46.33453" lon="-0.52727">
        <ele>61</ele>
        <time>2011-12-01T15:53:26Z</time>
      </trkpt>
      <trkpt lat="46.33451" lon="-0.52721">
        <ele>62</ele>
        <time>2011-12-01T15:53:31Z</time>
      </trkpt>
      <trkpt lat="46.33449" lon="-0.52712">
        <ele>63</ele>
        <time>2011-12-01T15:53:36Z</time>
      </trkpt>
      <trkpt lat="46.33447" lon="-0.52706">
        <ele>63</ele>
        <time>2011-12-01T15:53:41Z</time>
      </trkpt>
      <trkpt lat="46.33444" lon="-0.52699">
        <ele>62</ele>
        <time>2011-12-01T15:53:46Z</time>
      </trkpt>
      <trkpt lat="46.33442" lon="-0.52693">
        <ele>61</ele>
        <time>2011-12-01T15:53:51Z</time>
      </trkpt>
      <trkpt lat="46.33438" lon="-0.52685">
        <ele>61</ele>
        <time>2011-12-01T15:53:56Z</time>
      </trkpt>
      <trkpt lat="46.33436" lon="-0.52678">
        <ele>61</ele>
        <time>2011-12-01T15:54:01Z</time>
      </trkpt>
      <trkpt lat="46.33433" lon="-0.52671">
        <ele>61</ele>
        <time>2011-12-01T15:54:06Z</time>
      </trkpt>
      <trkpt lat="46.33431" lon="-0.52664">
        <ele>61</ele>
        <time>2011-12-01T15:54:11Z</time>
      </trkpt>
      <trkpt lat="46.33429" lon="-0.52658">
        <ele>61</ele>
        <time>2011-12-01T15:54:16Z</time>
      </trkpt>
      <trkpt lat="46.33428" lon="-0.52651">
        <ele>61</ele>
        <time>2011-12-01T15:54:21Z</time>
      </trkpt>
      <trkpt lat="46.33425" lon="-0.52643">
        <ele>62</ele>
        <time>2011-12-01T15:54:26Z</time>
      </trkpt>
      <trkpt lat="46.33423" lon="-0.52637">
        <ele>63</ele>
        <time>2011-12-01T15:54:31Z</time>
      </trkpt>
      <trkpt lat="46.33421" lon="-0.5263">
        <ele>63</ele>
        <time>2011-12-01T15:54:36Z</time>
      </trkpt>
      <trkpt lat="46.33419" lon="-0.52626">
        <ele>61</ele>
        <time>2011-12-01T15:54:41Z</time>
      </trkpt>
      <trkpt lat="46.33418" lon="-0.52621">
        <ele>61</ele>
        <time>2011-12-01T15:54:46Z</time>
      </trkpt>
      <trkpt lat="46.33416" lon="-0.52614">
        <ele>62</ele>
        <time>2011-12-01T15:54:51Z</time>
      </trkpt>
      <trkpt lat="46.33414" lon="-0.52608">
        <ele>63</ele>
        <time>2011-12-01T15:54:56Z</time>
      </trkpt>
      <trkpt lat="46.33411" lon="-0.52602">
        <ele>63</ele>
        <time>2011-12-01T15:55:01Z</time>
      </trkpt>
      <trkpt lat="46.33409" lon="-0.52595">
        <ele>64</ele>
        <time>2011-12-01T15:55:06Z</time>
      </trkpt>
      <trkpt lat="46.33407" lon="-0.52587">
        <ele>65</ele>
        <time>2011-12-01T15:55:11Z</time>
      </trkpt>
      <trkpt lat="46.33404" lon="-0.52581">
        <ele>65</ele>
        <time>2011-12-01T15:55:16Z</time>
      </trkpt>
      <trkpt lat="46.33403" lon="-0.52575">
        <ele>66</ele>
        <time>2011-12-01T15:55:21Z</time>
      </trkpt>
      <trkpt lat="46.33401" lon="-0.52569">
        <ele>65</ele>
        <time>2011-12-01T15:55:26Z</time>
      </trkpt>
      <trkpt lat="46.33399" lon="-0.52563">
        <ele>65</ele>
        <time>2011-12-01T15:55:31Z</time>
      </trkpt>
      <trkpt lat="46.33398" lon="-0.52554">
        <ele>67</ele>
        <time>2011-12-01T15:55:36Z</time>
      </trkpt>
      <trkpt lat="46.33395" lon="-0.5255">
        <ele>66</ele>
        <time>2011-12-01T15:55:41Z</time>
      </trkpt>
      <trkpt lat="46.33393" lon="-0.52544">
        <ele>66</ele>
        <time>2011-12-01T15:55:46Z</time>
      </trkpt>
      <trkpt lat="46.33391" lon="-0.52539">
        <ele>65</ele>
        <time>2011-12-01T15:55:51Z</time>
      </trkpt>
      <trkpt lat="46.33388" lon="-0.52533">
        <ele>65</ele>
        <time>2011-12-01T15:55:56Z</time>
      </trkpt>
      <trkpt lat="46.33385" lon="-0.52528">
        <ele>63</ele>
        <time>2011-12-01T15:56:01Z</time>
      </trkpt>
      <trkpt lat="46.33383" lon="-0.52523">
        <ele>63</ele>
        <time>2011-12-01T15:56:06Z</time>
      </trkpt>
      <trkpt lat="46.33381" lon="-0.52518">
        <ele>63</ele>
        <time>2011-12-01T15:56:11Z</time>
      </trkpt>
      <trkpt lat="46.33382" lon="-0.5252">
        <ele>64</ele>
        <time>2011-12-01T15:56:16Z</time>
      </trkpt>
      <trkpt lat="46.33381" lon="-0.52518">
        <ele>65</ele>
        <time>2011-12-01T15:56:21Z</time>
      </trkpt>
      <trkpt lat="46.33379" lon="-0.5251">
        <ele>65</ele>
        <time>2011-12-01T15:56:26Z</time>
      </trkpt>
      <trkpt lat="46.33377" lon="-0.52503">
        <ele>65</ele>
        <time>2011-12-01T15:56:31Z</time>
      </trkpt>
      <trkpt lat="46.33374" lon="-0.52496">
        <ele>65</ele>
        <time>2011-12-01T15:56:36Z</time>
      </trkpt>
      <trkpt lat="46.33371" lon="-0.52491">
        <ele>64</ele>
        <time>2011-12-01T15:56:41Z</time>
      </trkpt>
      <trkpt lat="46.3337" lon="-0.52485">
        <ele>64</ele>
        <time>2011-12-01T15:56:46Z</time>
      </trkpt>
      <trkpt lat="46.33368" lon="-0.52477">
        <ele>64</ele>
        <time>2011-12-01T15:56:51Z</time>
      </trkpt>
      <trkpt lat="46.33365" lon="-0.5247">
        <ele>64</ele>
        <time>2011-12-01T15:56:56Z</time>
      </trkpt>
      <trkpt lat="46.33364" lon="-0.52464">
        <ele>65</ele>
        <time>2011-12-01T15:57:01Z</time>
      </trkpt>
      <trkpt lat="46.33362" lon="-0.52458">
        <ele>65</ele>
        <time>2011-12-01T15:57:06Z</time>
      </trkpt>
      <trkpt lat="46.33359" lon="-0.52448">
        <ele>66</ele>
        <time>2011-12-01T15:57:11Z</time>
      </trkpt>
      <trkpt lat="46.33357" lon="-0.52441">
        <ele>66</ele>
        <time>2011-12-01T15:57:16Z</time>
      </trkpt>
      <trkpt lat="46.33355" lon="-0.52435">
        <ele>66</ele>
        <time>2011-12-01T15:57:21Z</time>
      </trkpt>
      <trkpt lat="46.33353" lon="-0.52428">
        <ele>67</ele>
        <time>2011-12-01T15:57:26Z</time>
      </trkpt>
      <trkpt lat="46.33351" lon="-0.5242">
        <ele>67</ele>
        <time>2011-12-01T15:57:31Z</time>
      </trkpt>
      <trkpt lat="46.33348" lon="-0.52417">
        <ele>63</ele>
        <time>2011-12-01T15:57:36Z</time>
      </trkpt>
      <trkpt lat="46.33346" lon="-0.5241">
        <ele>64</ele>
        <time>2011-12-01T15:57:41Z</time>
      </trkpt>
      <trkpt lat="46.33343" lon="-0.52403">
        <ele>63</ele>
        <time>2011-12-01T15:57:46Z</time>
      </trkpt>
      <trkpt lat="46.33341" lon="-0.52396">
        <ele>63</ele>
        <time>2011-12-01T15:57:51Z</time>
      </trkpt>
      <trkpt lat="46.33339" lon="-0.5239">
        <ele>63</ele>
        <time>2011-12-01T15:57:56Z</time>
      </trkpt>
      <trkpt lat="46.33336" lon="-0.52383">
        <ele>63</ele>
        <time>2011-12-01T15:58:01Z</time>
      </trkpt>
      <trkpt lat="46.33334" lon="-0.52377">
        <ele>62</ele>
        <time>2011-12-01T15:58:06Z</time>
      </trkpt>
      <trkpt lat="46.33332" lon="-0.52369">
        <ele>62</ele>
        <time>2011-12-01T15:58:11Z</time>
      </trkpt>
      <trkpt lat="46.33329" lon="-0.52363">
        <ele>63</ele>
        <time>2011-12-01T15:58:16Z</time>
      </trkpt>
      <trkpt lat="46.33327" lon="-0.52356">
        <ele>63</ele>
        <time>2011-12-01T15:58:21Z</time>
      </trkpt>
      <trkpt lat="46.33326" lon="-0.52348">
        <ele>61</ele>
        <time>2011-12-01T15:58:26Z</time>
      </trkpt>
      <trkpt lat="46.33323" lon="-0.52341">
        <ele>62</ele>
        <time>2011-12-01T15:58:31Z</time>
      </trkpt>
      <trkpt lat="46.33321" lon="-0.52334">
        <ele>62</ele>
        <time>2011-12-01T15:58:36Z</time>
      </trkpt>
      <trkpt lat="46.33318" lon="-0.52327">
        <ele>62</ele>
        <time>2011-12-01T15:58:41Z</time>
      </trkpt>
      <trkpt lat="46.33316" lon="-0.52322">
        <ele>62</ele>
        <time>2011-12-01T15:58:46Z</time>
      </trkpt>
      <trkpt lat="46.33314" lon="-0.52316">
        <ele>62</ele>
        <time>2011-12-01T15:58:51Z</time>
      </trkpt>
      <trkpt lat="46.33312" lon="-0.52311">
        <ele>62</ele>
        <time>2011-12-01T15:58:56Z</time>
      </trkpt>
      <trkpt lat="46.33311" lon="-0.523">
        <ele>60</ele>
        <time>2011-12-01T15:59:01Z</time>
      </trkpt>
      <trkpt lat="46.33311" lon="-0.52296">
        <ele>63</ele>
        <time>2011-12-01T15:59:06Z</time>
      </trkpt>
      <trkpt lat="46.33308" lon="-0.5229">
        <ele>64</ele>
        <time>2011-12-01T15:59:11Z</time>
      </trkpt>
      <trkpt lat="46.33306" lon="-0.52281">
        <ele>65</ele>
        <time>2011-12-01T15:59:16Z</time>
      </trkpt>
      <trkpt lat="46.33304" lon="-0.52268">
        <ele>65</ele>
        <time>2011-12-01T15:59:21Z</time>
      </trkpt>
      <trkpt lat="46.33301" lon="-0.52265">
        <ele>63</ele>
        <time>2011-12-01T15:59:26Z</time>
      </trkpt>
      <trkpt lat="46.33299" lon="-0.52259">
        <ele>64</ele>
        <time>2011-12-01T15:59:31Z</time>
      </trkpt>
      <trkpt lat="46.33295" lon="-0.52254">
        <ele>64</ele>
        <time>2011-12-01T15:59:36Z</time>
      </trkpt>
      <trkpt lat="46.33293" lon="-0.5225">
        <ele>63</ele>
        <time>2011-12-01T15:59:41Z</time>
      </trkpt>
      <trkpt lat="46.33292" lon="-0.52245">
        <ele>63</ele>
        <time>2011-12-01T15:59:46Z</time>
      </trkpt>
      <trkpt lat="46.33288" lon="-0.52235">
        <ele>63</ele>
        <time>2011-12-01T15:59:51Z</time>
      </trkpt>
      <trkpt lat="46.33285" lon="-0.52227">
        <ele>64</ele>
        <time>2011-12-01T15:59:56Z</time>
      </trkpt>
      <trkpt lat="46.33284" lon="-0.5222">
        <ele>61</ele>
        <time>2011-12-01T16:00:01Z</time>
      </trkpt>
      <trkpt lat="46.33284" lon="-0.52214">
        <ele>59</ele>
        <time>2011-12-01T16:00:06Z</time>
      </trkpt>
      <trkpt lat="46.33282" lon="-0.52208">
        <ele>59</ele>
        <time>2011-12-01T16:00:11Z</time>
      </trkpt>
      <trkpt lat="46.33281" lon="-0.52207">
        <ele>60</ele>
        <time>2011-12-01T16:00:16Z</time>
      </trkpt>
      <trkpt lat="46.3328" lon="-0.52205">
        <ele>60</ele>
        <time>2011-12-01T16:00:21Z</time>
      </trkpt>
      <trkpt lat="46.33277" lon="-0.52202">
        <ele>60</ele>
        <time>2011-12-01T16:00:26Z</time>
      </trkpt>
      <trkpt lat="46.33273" lon="-0.52194">
        <ele>60</ele>
        <time>2011-12-01T16:00:31Z</time>
      </trkpt>
      <trkpt lat="46.3327" lon="-0.52191">
        <ele>61</ele>
        <time>2011-12-01T16:00:36Z</time>
      </trkpt>
      <trkpt lat="46.33267" lon="-0.52183">
        <ele>60</ele>
        <time>2011-12-01T16:00:41Z</time>
      </trkpt>
      <trkpt lat="46.33264" lon="-0.52176">
        <ele>60</ele>
        <time>2011-12-01T16:00:46Z</time>
      </trkpt>
      <trkpt lat="46.33262" lon="-0.52167">
        <ele>60</ele>
        <time>2011-12-01T16:00:51Z</time>
      </trkpt>
      <trkpt lat="46.33259" lon="-0.52159">
        <ele>60</ele>
        <time>2011-12-01T16:00:56Z</time>
      </trkpt>
      <trkpt lat="46.33257" lon="-0.52151">
        <ele>62</ele>
        <time>2011-12-01T16:01:01Z</time>
      </trkpt>
      <trkpt lat="46.33255" lon="-0.52143">
        <ele>62</ele>
        <time>2011-12-01T16:01:06Z</time>
      </trkpt>
      <trkpt lat="46.33253" lon="-0.52136">
        <ele>62</ele>
        <time>2011-12-01T16:01:11Z</time>
      </trkpt>
      <trkpt lat="46.33251" lon="-0.5213">
        <ele>64</ele>
        <time>2011-12-01T16:01:16Z</time>
      </trkpt>
      <trkpt lat="46.33248" lon="-0.52123">
        <ele>66</ele>
        <time>2011-12-01T16:01:21Z</time>
      </trkpt>
      <trkpt lat="46.33246" lon="-0.52115">
        <ele>66</ele>
        <time>2011-12-01T16:01:26Z</time>
      </trkpt>
      <trkpt lat="46.33243" lon="-0.52107">
        <ele>66</ele>
        <time>2011-12-01T16:01:31Z</time>
      </trkpt>
      <trkpt lat="46.3324" lon="-0.52099">
        <ele>67</ele>
        <time>2011-12-01T16:01:36Z</time>
      </trkpt>
      <trkpt lat="46.33238" lon="-0.52092">
        <ele>67</ele>
        <time>2011-12-01T16:01:41Z</time>
      </trkpt>
      <trkpt lat="46.33236" lon="-0.52085">
        <ele>68</ele>
        <time>2011-12-01T16:01:46Z</time>
      </trkpt>
      <trkpt lat="46.33234" lon="-0.52079">
        <ele>68</ele>
        <time>2011-12-01T16:01:51Z</time>
      </trkpt>
      <trkpt lat="46.33231" lon="-0.52073">
        <ele>67</ele>
        <time>2011-12-01T16:01:56Z</time>
      </trkpt>
      <trkpt lat="46.3323" lon="-0.52068">
        <ele>67</ele>
        <time>2011-12-01T16:02:01Z</time>
      </trkpt>
      <trkpt lat="46.33227" lon="-0.5206">
        <ele>68</ele>
        <time>2011-12-01T16:02:06Z</time>
      </trkpt>
      <trkpt lat="46.33224" lon="-0.52052">
        <ele>68</ele>
        <time>2011-12-01T16:02:11Z</time>
      </trkpt>
      <trkpt lat="46.33221" lon="-0.5205">
        <ele>67</ele>
        <time>2011-12-01T16:02:16Z</time>
      </trkpt>
      <trkpt lat="46.33217" lon="-0.52055">
        <ele>68</ele>
        <time>2011-12-01T16:02:21Z</time>
      </trkpt>
      <trkpt lat="46.3321" lon="-0.52057">
        <ele>69</ele>
        <time>2011-12-01T16:02:26Z</time>
      </trkpt>
      <trkpt lat="46.33205" lon="-0.52056">
        <ele>69</ele>
        <time>2011-12-01T16:02:31Z</time>
      </trkpt>
      <trkpt lat="46.332" lon="-0.52054">
        <ele>70</ele>
        <time>2011-12-01T16:02:36Z</time>
      </trkpt>
      <trkpt lat="46.33195" lon="-0.52058">
        <ele>71</ele>
        <time>2011-12-01T16:02:41Z</time>
      </trkpt>
      <trkpt lat="46.33189" lon="-0.52056">
        <ele>72</ele>
        <time>2011-12-01T16:02:46Z</time>
      </trkpt>
      <trkpt lat="46.33182" lon="-0.52054">
        <ele>73</ele>
        <time>2011-12-01T16:02:51Z</time>
      </trkpt>
      <trkpt lat="46.33177" lon="-0.52056">
        <ele>74</ele>
        <time>2011-12-01T16:02:56Z</time>
      </trkpt>
      <trkpt lat="46.3317" lon="-0.52055">
        <ele>74</ele>
        <time>2011-12-01T16:03:01Z</time>
      </trkpt>
      <trkpt lat="46.33164" lon="-0.52056">
        <ele>74</ele>
        <time>2011-12-01T16:03:06Z</time>
      </trkpt>
      <trkpt lat="46.33159" lon="-0.52061">
        <ele>76</ele>
        <time>2011-12-01T16:03:11Z</time>
      </trkpt>
      <trkpt lat="46.33155" lon="-0.52055">
        <ele>75</ele>
        <time>2011-12-01T16:03:16Z</time>
      </trkpt>
      <trkpt lat="46.33148" lon="-0.52052">
        <ele>77</ele>
        <time>2011-12-01T16:03:21Z</time>
      </trkpt>
      <trkpt lat="46.33142" lon="-0.52055">
        <ele>76</ele>
        <time>2011-12-01T16:03:26Z</time>
      </trkpt>
      <trkpt lat="46.33136" lon="-0.52056">
        <ele>77</ele>
        <time>2011-12-01T16:03:31Z</time>
      </trkpt>
      <trkpt lat="46.3313" lon="-0.52057">
        <ele>80</ele>
        <time>2011-12-01T16:03:36Z</time>
      </trkpt>
      <trkpt lat="46.33124" lon="-0.5206">
        <ele>80</ele>
        <time>2011-12-01T16:03:41Z</time>
      </trkpt>
      <trkpt lat="46.33119" lon="-0.5206">
        <ele>81</ele>
        <time>2011-12-01T16:03:46Z</time>
      </trkpt>
      <trkpt lat="46.33113" lon="-0.52058">
        <ele>82</ele>
        <time>2011-12-01T16:03:51Z</time>
      </trkpt>
      <trkpt lat="46.33107" lon="-0.52061">
        <ele>81</ele>
        <time>2011-12-01T16:03:56Z</time>
      </trkpt>
      <trkpt lat="46.33105" lon="-0.52062">
        <ele>80</ele>
        <time>2011-12-01T16:04:01Z</time>
      </trkpt>
      <trkpt lat="46.33104" lon="-0.52061">
        <ele>75</ele>
        <time>2011-12-01T16:04:06Z</time>
      </trkpt>
      <trkpt lat="46.33098" lon="-0.52061">
        <ele>75</ele>
        <time>2011-12-01T16:04:11Z</time>
      </trkpt>
      <trkpt lat="46.33093" lon="-0.52063">
        <ele>75</ele>
        <time>2011-12-01T16:04:16Z</time>
      </trkpt>
      <trkpt lat="46.33089" lon="-0.52063">
        <ele>73</ele>
        <time>2011-12-01T16:04:21Z</time>
      </trkpt>
      <trkpt lat="46.33085" lon="-0.52065">
        <ele>73</ele>
        <time>2011-12-01T16:04:26Z</time>
      </trkpt>
      <trkpt lat="46.3308" lon="-0.5207">
        <ele>72</ele>
        <time>2011-12-01T16:04:31Z</time>
      </trkpt>
      <trkpt lat="46.33075" lon="-0.52073">
        <ele>72</ele>
        <time>2011-12-01T16:04:36Z</time>
      </trkpt>
      <trkpt lat="46.3307" lon="-0.52075">
        <ele>73</ele>
        <time>2011-12-01T16:04:41Z</time>
      </trkpt>
      <trkpt lat="46.33063" lon="-0.52078">
        <ele>78</ele>
        <time>2011-12-01T16:04:46Z</time>
      </trkpt>
      <trkpt lat="46.33059" lon="-0.5208">
        <ele>78</ele>
        <time>2011-12-01T16:04:51Z</time>
      </trkpt>
      <trkpt lat="46.33054" lon="-0.52082">
        <ele>79</ele>
        <time>2011-12-01T16:04:56Z</time>
      </trkpt>
      <trkpt lat="46.33051" lon="-0.52083">
        <ele>77</ele>
        <time>2011-12-01T16:05:01Z</time>
      </trkpt>
      <trkpt lat="46.33045" lon="-0.52086">
        <ele>77</ele>
        <time>2011-12-01T16:05:06Z</time>
      </trkpt>
      <trkpt lat="46.33041" lon="-0.52091">
        <ele>75</ele>
        <time>2011-12-01T16:05:11Z</time>
      </trkpt>
      <trkpt lat="46.33034" lon="-0.52094">
        <ele>74</ele>
        <time>2011-12-01T16:05:16Z</time>
      </trkpt>
      <trkpt lat="46.3303" lon="-0.52099">
        <ele>74</ele>
        <time>2011-12-01T16:05:21Z</time>
      </trkpt>
      <trkpt lat="46.33027" lon="-0.52094">
        <ele>70</ele>
        <time>2011-12-01T16:05:26Z</time>
      </trkpt>
      <trkpt lat="46.33023" lon="-0.52101">
        <ele>71</ele>
        <time>2011-12-01T16:05:31Z</time>
      </trkpt>
      <trkpt lat="46.3302" lon="-0.52108">
        <ele>71</ele>
        <time>2011-12-01T16:05:36Z</time>
      </trkpt>
      <trkpt lat="46.33016" lon="-0.52113">
        <ele>71</ele>
        <time>2011-12-01T16:05:41Z</time>
      </trkpt>
      <trkpt lat="46.33015" lon="-0.52109">
        <ele>73</ele>
        <time>2011-12-01T16:05:46Z</time>
      </trkpt>
      <trkpt lat="46.33014" lon="-0.52106">
        <ele>74</ele>
        <time>2011-12-01T16:05:51Z</time>
      </trkpt>
      <trkpt lat="46.33012" lon="-0.52106">
        <ele>75</ele>
        <time>2011-12-01T16:05:56Z</time>
      </trkpt>
      <trkpt lat="46.33006" lon="-0.52107">
        <ele>75</ele>
        <time>2011-12-01T16:06:01Z</time>
      </trkpt>
      <trkpt lat="46.33003" lon="-0.52105">
        <ele>76</ele>
        <time>2011-12-01T16:06:06Z</time>
      </trkpt>
      <trkpt lat="46.33005" lon="-0.52102">
        <ele>74</ele>
        <time>2011-12-01T16:06:11Z</time>
      </trkpt>
      <trkpt lat="46.33001" lon="-0.52102">
        <ele>73</ele>
        <time>2011-12-01T16:06:16Z</time>
      </trkpt>
      <trkpt lat="46.32999" lon="-0.52105">
        <ele>74</ele>
        <time>2011-12-01T16:06:21Z</time>
      </trkpt>
      <trkpt lat="46.32999" lon="-0.52101">
        <ele>73</ele>
        <time>2011-12-01T16:06:26Z</time>
      </trkpt>
      <trkpt lat="46.32994" lon="-0.52098">
        <ele>72</ele>
        <time>2011-12-01T16:06:31Z</time>
      </trkpt>
      <trkpt lat="46.32988" lon="-0.52094">
        <ele>71</ele>
        <time>2011-12-01T16:06:36Z</time>
      </trkpt>
      <trkpt lat="46.32984" lon="-0.52089">
        <ele>71</ele>
        <time>2011-12-01T16:06:41Z</time>
      </trkpt>
      <trkpt lat="46.32979" lon="-0.52092">
        <ele>70</ele>
        <time>2011-12-01T16:06:46Z</time>
      </trkpt>
      <trkpt lat="46.32975" lon="-0.52089">
        <ele>68</ele>
        <time>2011-12-01T16:06:51Z</time>
      </trkpt>
      <trkpt lat="46.32969" lon="-0.5209">
        <ele>68</ele>
        <time>2011-12-01T16:06:56Z</time>
      </trkpt>
      <trkpt lat="46.32964" lon="-0.52087">
        <ele>68</ele>
        <time>2011-12-01T16:07:01Z</time>
      </trkpt>
      <trkpt lat="46.32959" lon="-0.52084">
        <ele>67</ele>
        <time>2011-12-01T16:07:06Z</time>
      </trkpt>
      <trkpt lat="46.32953" lon="-0.52082">
        <ele>67</ele>
        <time>2011-12-01T16:07:11Z</time>
      </trkpt>
      <trkpt lat="46.32948" lon="-0.52078">
        <ele>65</ele>
        <time>2011-12-01T16:07:16Z</time>
      </trkpt>
      <trkpt lat="46.32945" lon="-0.52076">
        <ele>65</ele>
        <time>2011-12-01T16:07:21Z</time>
      </trkpt>
      <trkpt lat="46.32943" lon="-0.52068">
        <ele>59</ele>
        <time>2011-12-01T16:07:26Z</time>
      </trkpt>
      <trkpt lat="46.32943" lon="-0.52069">
        <ele>60</ele>
        <time>2011-12-01T16:07:31Z</time>
      </trkpt>
      <trkpt lat="46.32943" lon="-0.52068">
        <ele>61</ele>
        <time>2011-12-01T16:07:36Z</time>
      </trkpt>
      <trkpt lat="46.32943" lon="-0.52068">
        <ele>62</ele>
        <time>2011-12-01T16:07:41Z</time>
      </trkpt>
      <trkpt lat="46.3294" lon="-0.52066">
        <ele>60</ele>
        <time>2011-12-01T16:07:46Z</time>
      </trkpt>
      <trkpt lat="46.32939" lon="-0.52065">
        <ele>59</ele>
        <time>2011-12-01T16:07:51Z</time>
      </trkpt>
      <trkpt lat="46.32939" lon="-0.52066">
        <ele>58</ele>
        <time>2011-12-01T16:07:56Z</time>
      </trkpt>
      <trkpt lat="46.32938" lon="-0.52067">
        <ele>58</ele>
        <time>2011-12-01T16:08:01Z</time>
      </trkpt>
      <trkpt lat="46.32935" lon="-0.52067">
        <ele>58</ele>
        <time>2011-12-01T16:08:06Z</time>
      </trkpt>
      <trkpt lat="46.3293" lon="-0.52064">
        <ele>58</ele>
        <time>2011-12-01T16:08:11Z</time>
      </trkpt>
      <trkpt lat="46.32926" lon="-0.52074">
        <ele>57</ele>
        <time>2011-12-01T16:08:16Z</time>
      </trkpt>
      <trkpt lat="46.32922" lon="-0.52072">
        <ele>59</ele>
        <time>2011-12-01T16:08:21Z</time>
      </trkpt>
      <trkpt lat="46.32916" lon="-0.52072">
        <ele>61</ele>
        <time>2011-12-01T16:08:26Z</time>
      </trkpt>
      <trkpt lat="46.32911" lon="-0.52072">
        <ele>59</ele>
        <time>2011-12-01T16:08:31Z</time>
      </trkpt>
      <trkpt lat="46.32902" lon="-0.5207">
        <ele>65</ele>
        <time>2011-12-01T16:08:36Z</time>
      </trkpt>
      <trkpt lat="46.32898" lon="-0.52068">
        <ele>64</ele>
        <time>2011-12-01T16:08:41Z</time>
      </trkpt>
      <trkpt lat="46.32888" lon="-0.52068">
        <ele>68</ele>
        <time>2011-12-01T16:08:46Z</time>
      </trkpt>
      <trkpt lat="46.32884" lon="-0.52069">
        <ele>68</ele>
        <time>2011-12-01T16:08:51Z</time>
      </trkpt>
      <trkpt lat="46.32878" lon="-0.52072">
        <ele>67</ele>
        <time>2011-12-01T16:08:56Z</time>
      </trkpt>
      <trkpt lat="46.32873" lon="-0.52073">
        <ele>66</ele>
        <time>2011-12-01T16:09:01Z</time>
      </trkpt>
      <trkpt lat="46.32869" lon="-0.52068">
        <ele>63</ele>
        <time>2011-12-01T16:09:06Z</time>
      </trkpt>
      <trkpt lat="46.3287" lon="-0.52055">
        <ele>60</ele>
        <time>2011-12-01T16:09:11Z</time>
      </trkpt>
      <trkpt lat="46.32869" lon="-0.5205">
        <ele>59</ele>
        <time>2011-12-01T16:09:16Z</time>
      </trkpt>
      <trkpt lat="46.32865" lon="-0.52045">
        <ele>59</ele>
        <time>2011-12-01T16:09:21Z</time>
      </trkpt>
      <trkpt lat="46.32863" lon="-0.52036">
        <ele>59</ele>
        <time>2011-12-01T16:09:26Z</time>
      </trkpt>
      <trkpt lat="46.32862" lon="-0.52033">
        <ele>59</ele>
        <time>2011-12-01T16:09:31Z</time>
      </trkpt>
      <trkpt lat="46.3286" lon="-0.52026">
        <ele>59</ele>
        <time>2011-12-01T16:09:36Z</time>
      </trkpt>
      <trkpt lat="46.32858" lon="-0.52017">
        <ele>58</ele>
        <time>2011-12-01T16:09:41Z</time>
      </trkpt>
      <trkpt lat="46.32855" lon="-0.52007">
        <ele>60</ele>
        <time>2011-12-01T16:09:46Z</time>
      </trkpt>
      <trkpt lat="46.32852" lon="-0.52002">
        <ele>58</ele>
        <time>2011-12-01T16:09:51Z</time>
      </trkpt>
      <trkpt lat="46.32852" lon="-0.51999">
        <ele>58</ele>
        <time>2011-12-01T16:09:56Z</time>
      </trkpt>
      <trkpt lat="46.32849" lon="-0.5199">
        <ele>57</ele>
        <time>2011-12-01T16:10:01Z</time>
      </trkpt>
      <trkpt lat="46.32846" lon="-0.51981">
        <ele>56</ele>
        <time>2011-12-01T16:10:06Z</time>
      </trkpt>
      <trkpt lat="46.32846" lon="-0.51974">
        <ele>56</ele>
        <time>2011-12-01T16:10:11Z</time>
      </trkpt>
      <trkpt lat="46.32844" lon="-0.51967">
        <ele>56</ele>
        <time>2011-12-01T16:10:16Z</time>
      </trkpt>
      <trkpt lat="46.32843" lon="-0.51961">
        <ele>57</ele>
        <time>2011-12-01T16:10:21Z</time>
      </trkpt>
      <trkpt lat="46.32841" lon="-0.51953">
        <ele>56</ele>
        <time>2011-12-01T16:10:26Z</time>
      </trkpt>
      <trkpt lat="46.32839" lon="-0.51945">
        <ele>58</ele>
        <time>2011-12-01T16:10:31Z</time>
      </trkpt>
      <trkpt lat="46.32837" lon="-0.51938">
        <ele>56</ele>
        <time>2011-12-01T16:10:36Z</time>
      </trkpt>
      <trkpt lat="46.32836" lon="-0.51931">
        <ele>56</ele>
        <time>2011-12-01T16:10:41Z</time>
      </trkpt>
      <trkpt lat="46.32835" lon="-0.51925">
        <ele>57</ele>
        <time>2011-12-01T16:10:46Z</time>
      </trkpt>
      <trkpt lat="46.32833" lon="-0.51919">
        <ele>58</ele>
        <time>2011-12-01T16:10:51Z</time>
      </trkpt>
      <trkpt lat="46.32831" lon="-0.51911">
        <ele>57</ele>
        <time>2011-12-01T16:10:56Z</time>
      </trkpt>
      <trkpt lat="46.32829" lon="-0.51904">
        <ele>56</ele>
        <time>2011-12-01T16:11:01Z</time>
      </trkpt>
      <trkpt lat="46.32827" lon="-0.51898">
        <ele>56</ele>
        <time>2011-12-01T16:11:06Z</time>
      </trkpt>
      <trkpt lat="46.32825" lon="-0.51889">
        <ele>57</ele>
        <time>2011-12-01T16:11:11Z</time>
      </trkpt>
      <trkpt lat="46.32823" lon="-0.51882">
        <ele>56</ele>
        <time>2011-12-01T16:11:16Z</time>
      </trkpt>
      <trkpt lat="46.32821" lon="-0.51876">
        <ele>55</ele>
        <time>2011-12-01T16:11:21Z</time>
      </trkpt>
      <trkpt lat="46.32819" lon="-0.51871">
        <ele>55</ele>
        <time>2011-12-01T16:11:26Z</time>
      </trkpt>
      <trkpt lat="46.32818" lon="-0.51861">
        <ele>55</ele>
        <time>2011-12-01T16:11:31Z</time>
      </trkpt>
      <trkpt lat="46.32815" lon="-0.51854">
        <ele>54</ele>
        <time>2011-12-01T16:11:36Z</time>
      </trkpt>
      <trkpt lat="46.32813" lon="-0.51845">
        <ele>55</ele>
        <time>2011-12-01T16:11:41Z</time>
      </trkpt>
      <trkpt lat="46.3281" lon="-0.51837">
        <ele>55</ele>
        <time>2011-12-01T16:11:46Z</time>
      </trkpt>
      <trkpt lat="46.32808" lon="-0.51828">
        <ele>55</ele>
        <time>2011-12-01T16:11:51Z</time>
      </trkpt>
      <trkpt lat="46.32806" lon="-0.51821">
        <ele>54</ele>
        <time>2011-12-01T16:11:56Z</time>
      </trkpt>
      <trkpt lat="46.32805" lon="-0.51815">
        <ele>53</ele>
        <time>2011-12-01T16:12:01Z</time>
      </trkpt>
      <trkpt lat="46.32803" lon="-0.5181">
        <ele>53</ele>
        <time>2011-12-01T16:12:06Z</time>
      </trkpt>
      <trkpt lat="46.32802" lon="-0.51804">
        <ele>52</ele>
        <time>2011-12-01T16:12:11Z</time>
      </trkpt>
      <trkpt lat="46.328" lon="-0.51798">
        <ele>53</ele>
        <time>2011-12-01T16:12:16Z</time>
      </trkpt>
      <trkpt lat="46.32799" lon="-0.51793">
        <ele>53</ele>
        <time>2011-12-01T16:12:21Z</time>
      </trkpt>
      <trkpt lat="46.32798" lon="-0.51785">
        <ele>54</ele>
        <time>2011-12-01T16:12:26Z</time>
      </trkpt>
      <trkpt lat="46.32796" lon="-0.51776">
        <ele>53</ele>
        <time>2011-12-01T16:12:31Z</time>
      </trkpt>
      <trkpt lat="46.32793" lon="-0.51768">
        <ele>53</ele>
        <time>2011-12-01T16:12:36Z</time>
      </trkpt>
      <trkpt lat="46.32791" lon="-0.51758">
        <ele>52</ele>
        <time>2011-12-01T16:12:41Z</time>
      </trkpt>
      <trkpt lat="46.32789" lon="-0.5175">
        <ele>52</ele>
        <time>2011-12-01T16:12:46Z</time>
      </trkpt>
      <trkpt lat="46.32787" lon="-0.5174">
        <ele>52</ele>
        <time>2011-12-01T16:12:51Z</time>
      </trkpt>
      <trkpt lat="46.32784" lon="-0.51734">
        <ele>50</ele>
        <time>2011-12-01T16:12:56Z</time>
      </trkpt>
      <trkpt lat="46.32783" lon="-0.51727">
        <ele>49</ele>
        <time>2011-12-01T16:13:01Z</time>
      </trkpt>
      <trkpt lat="46.32782" lon="-0.5172">
        <ele>50</ele>
        <time>2011-12-01T16:13:06Z</time>
      </trkpt>
      <trkpt lat="46.32782" lon="-0.51717">
        <ele>50</ele>
        <time>2011-12-01T16:13:11Z</time>
      </trkpt>
      <trkpt lat="46.3278" lon="-0.5171">
        <ele>50</ele>
        <time>2011-12-01T16:13:16Z</time>
      </trkpt>
      <trkpt lat="46.32778" lon="-0.51701">
        <ele>50</ele>
        <time>2011-12-01T16:13:21Z</time>
      </trkpt>
      <trkpt lat="46.32776" lon="-0.51693">
        <ele>52</ele>
        <time>2011-12-01T16:13:26Z</time>
      </trkpt>
      <trkpt lat="46.32774" lon="-0.51685">
        <ele>52</ele>
        <time>2011-12-01T16:13:31Z</time>
      </trkpt>
      <trkpt lat="46.32771" lon="-0.51678">
        <ele>51</ele>
        <time>2011-12-01T16:13:36Z</time>
      </trkpt>
      <trkpt lat="46.32771" lon="-0.51676">
        <ele>51</ele>
        <time>2011-12-01T16:13:41Z</time>
      </trkpt>
      <trkpt lat="46.32769" lon="-0.5167">
        <ele>52</ele>
        <time>2011-12-01T16:13:46Z</time>
      </trkpt>
      <trkpt lat="46.32767" lon="-0.51663">
        <ele>52</ele>
        <time>2011-12-01T16:13:51Z</time>
      </trkpt>
      <trkpt lat="46.32766" lon="-0.51657">
        <ele>53</ele>
        <time>2011-12-01T16:13:56Z</time>
      </trkpt>
      <trkpt lat="46.32765" lon="-0.51646">
        <ele>53</ele>
        <time>2011-12-01T16:14:01Z</time>
      </trkpt>
      <trkpt lat="46.32762" lon="-0.51635">
        <ele>52</ele>
        <time>2011-12-01T16:14:06Z</time>
      </trkpt>
      <trkpt lat="46.32762" lon="-0.51626">
        <ele>51</ele>
        <time>2011-12-01T16:14:11Z</time>
      </trkpt>
      <trkpt lat="46.32759" lon="-0.51618">
        <ele>49</ele>
        <time>2011-12-01T16:14:16Z</time>
      </trkpt>
      <trkpt lat="46.32758" lon="-0.51609">
        <ele>50</ele>
        <time>2011-12-01T16:14:21Z</time>
      </trkpt>
      <trkpt lat="46.32756" lon="-0.51601">
        <ele>50</ele>
        <time>2011-12-01T16:14:26Z</time>
      </trkpt>
      <trkpt lat="46.32754" lon="-0.51594">
        <ele>50</ele>
        <time>2011-12-01T16:14:31Z</time>
      </trkpt>
      <trkpt lat="46.32753" lon="-0.51586">
        <ele>50</ele>
        <time>2011-12-01T16:14:36Z</time>
      </trkpt>
      <trkpt lat="46.32752" lon="-0.51578">
        <ele>50</ele>
        <time>2011-12-01T16:14:41Z</time>
      </trkpt>
      <trkpt lat="46.32751" lon="-0.51572">
        <ele>50</ele>
        <time>2011-12-01T16:14:46Z</time>
      </trkpt>
      <trkpt lat="46.32751" lon="-0.51564">
        <ele>52</ele>
        <time>2011-12-01T16:14:51Z</time>
      </trkpt>
      <trkpt lat="46.32751" lon="-0.51553">
        <ele>53</ele>
        <time>2011-12-01T16:14:56Z</time>
      </trkpt>
      <trkpt lat="46.32751" lon="-0.5154">
        <ele>49</ele>
        <time>2011-12-01T16:15:01Z</time>
      </trkpt>
      <trkpt lat="46.32749" lon="-0.51532">
        <ele>49</ele>
        <time>2011-12-01T16:15:06Z</time>
      </trkpt>
      <trkpt lat="46.32747" lon="-0.51525">
        <ele>50</ele>
        <time>2011-12-01T16:15:11Z</time>
      </trkpt>
      <trkpt lat="46.32746" lon="-0.51518">
        <ele>52</ele>
        <time>2011-12-01T16:15:16Z</time>
      </trkpt>
      <trkpt lat="46.32744" lon="-0.51513">
        <ele>54</ele>
        <time>2011-12-01T16:15:21Z</time>
      </trkpt>
      <trkpt lat="46.3274" lon="-0.51508">
        <ele>53</ele>
        <time>2011-12-01T16:15:26Z</time>
      </trkpt>
      <trkpt lat="46.32734" lon="-0.51504">
        <ele>52</ele>
        <time>2011-12-01T16:15:31Z</time>
      </trkpt>
      <trkpt lat="46.32729" lon="-0.51504">
        <ele>51</ele>
        <time>2011-12-01T16:15:36Z</time>
      </trkpt>
      <trkpt lat="46.32724" lon="-0.51504">
        <ele>51</ele>
        <time>2011-12-01T16:15:41Z</time>
      </trkpt>
      <trkpt lat="46.32718" lon="-0.51501">
        <ele>53</ele>
        <time>2011-12-01T16:15:46Z</time>
      </trkpt>
      <trkpt lat="46.32715" lon="-0.515">
        <ele>48</ele>
        <time>2011-12-01T16:15:51Z</time>
      </trkpt>
      <trkpt lat="46.32709" lon="-0.51504">
        <ele>49</ele>
        <time>2011-12-01T16:15:56Z</time>
      </trkpt>
      <trkpt lat="46.32704" lon="-0.51508">
        <ele>52</ele>
        <time>2011-12-01T16:16:01Z</time>
      </trkpt>
      <trkpt lat="46.327" lon="-0.51509">
        <ele>49</ele>
        <time>2011-12-01T16:16:06Z</time>
      </trkpt>
      <trkpt lat="46.32695" lon="-0.5151">
        <ele>47</ele>
        <time>2011-12-01T16:16:11Z</time>
      </trkpt>
      <trkpt lat="46.3269" lon="-0.51511">
        <ele>48</ele>
        <time>2011-12-01T16:16:16Z</time>
      </trkpt>
      <trkpt lat="46.32686" lon="-0.51513">
        <ele>49</ele>
        <time>2011-12-01T16:16:21Z</time>
      </trkpt>
      <trkpt lat="46.32681" lon="-0.51515">
        <ele>49</ele>
        <time>2011-12-01T16:16:26Z</time>
      </trkpt>
      <trkpt lat="46.32673" lon="-0.5152">
        <ele>51</ele>
        <time>2011-12-01T16:16:31Z</time>
      </trkpt>
      <trkpt lat="46.32667" lon="-0.51522">
        <ele>52</ele>
        <time>2011-12-01T16:16:36Z</time>
      </trkpt>
      <trkpt lat="46.32662" lon="-0.51523">
        <ele>52</ele>
        <time>2011-12-01T16:16:41Z</time>
      </trkpt>
      <trkpt lat="46.32656" lon="-0.51523">
        <ele>54</ele>
        <time>2011-12-01T16:16:46Z</time>
      </trkpt>
      <trkpt lat="46.32651" lon="-0.51524">
        <ele>54</ele>
        <time>2011-12-01T16:16:51Z</time>
      </trkpt>
      <trkpt lat="46.32644" lon="-0.51524">
        <ele>55</ele>
        <time>2011-12-01T16:16:56Z</time>
      </trkpt>
      <trkpt lat="46.3264" lon="-0.51523">
        <ele>54</ele>
        <time>2011-12-01T16:17:01Z</time>
      </trkpt>
      <trkpt lat="46.32635" lon="-0.51522">
        <ele>54</ele>
        <time>2011-12-01T16:17:06Z</time>
      </trkpt>
      <trkpt lat="46.3263" lon="-0.51522">
        <ele>53</ele>
        <time>2011-12-01T16:17:11Z</time>
      </trkpt>
      <trkpt lat="46.32624" lon="-0.51523">
        <ele>55</ele>
        <time>2011-12-01T16:17:16Z</time>
      </trkpt>
      <trkpt lat="46.3262" lon="-0.51524">
        <ele>55</ele>
        <time>2011-12-01T16:17:21Z</time>
      </trkpt>
      <trkpt lat="46.32616" lon="-0.51523">
        <ele>53</ele>
        <time>2011-12-01T16:17:26Z</time>
      </trkpt>
      <trkpt lat="46.32611" lon="-0.5152">
        <ele>52</ele>
        <time>2011-12-01T16:17:31Z</time>
      </trkpt>
      <trkpt lat="46.32605" lon="-0.51518">
        <ele>50</ele>
        <time>2011-12-01T16:17:36Z</time>
      </trkpt>
      <trkpt lat="46.326" lon="-0.51519">
        <ele>50</ele>
        <time>2011-12-01T16:17:41Z</time>
      </trkpt>
      <trkpt lat="46.32595" lon="-0.51519">
        <ele>49</ele>
        <time>2011-12-01T16:17:46Z</time>
      </trkpt>
      <trkpt lat="46.3259" lon="-0.51518">
        <ele>50</ele>
        <time>2011-12-01T16:17:51Z</time>
      </trkpt>
      <trkpt lat="46.32586" lon="-0.51518">
        <ele>49</ele>
        <time>2011-12-01T16:17:56Z</time>
      </trkpt>
      <trkpt lat="46.3258" lon="-0.51518">
        <ele>50</ele>
        <time>2011-12-01T16:18:01Z</time>
      </trkpt>
      <trkpt lat="46.32575" lon="-0.51518">
        <ele>48</ele>
        <time>2011-12-01T16:18:06Z</time>
      </trkpt>
      <trkpt lat="46.32572" lon="-0.51519">
        <ele>49</ele>
        <time>2011-12-01T16:18:11Z</time>
      </trkpt>
      <trkpt lat="46.32566" lon="-0.51518">
        <ele>49</ele>
        <time>2011-12-01T16:18:16Z</time>
      </trkpt>
      <trkpt lat="46.32561" lon="-0.51516">
        <ele>50</ele>
        <time>2011-12-01T16:18:21Z</time>
      </trkpt>
      <trkpt lat="46.32556" lon="-0.51512">
        <ele>51</ele>
        <time>2011-12-01T16:18:26Z</time>
      </trkpt>
      <trkpt lat="46.32552" lon="-0.51513">
        <ele>52</ele>
        <time>2011-12-01T16:18:31Z</time>
      </trkpt>
      <trkpt lat="46.32547" lon="-0.51518">
        <ele>52</ele>
        <time>2011-12-01T16:18:36Z</time>
      </trkpt>
      <trkpt lat="46.32544" lon="-0.5152">
        <ele>50</ele>
        <time>2011-12-01T16:18:41Z</time>
      </trkpt>
      <trkpt lat="46.32539" lon="-0.5152">
        <ele>50</ele>
        <time>2011-12-01T16:18:46Z</time>
      </trkpt>
      <trkpt lat="46.32535" lon="-0.51519">
        <ele>52</ele>
        <time>2011-12-01T16:18:51Z</time>
      </trkpt>
      <trkpt lat="46.32532" lon="-0.51516">
        <ele>53</ele>
        <time>2011-12-01T16:18:56Z</time>
      </trkpt>
      <trkpt lat="46.32527" lon="-0.5151">
        <ele>58</ele>
        <time>2011-12-01T16:19:01Z</time>
      </trkpt>
      <trkpt lat="46.32527" lon="-0.5151">
        <ele>57</ele>
        <time>2011-12-01T16:19:06Z</time>
      </trkpt>
      <trkpt lat="46.32526" lon="-0.5151">
        <ele>56</ele>
        <time>2011-12-01T16:19:11Z</time>
      </trkpt>
      <trkpt lat="46.32525" lon="-0.5151">
        <ele>56</ele>
        <time>2011-12-01T16:19:16Z</time>
      </trkpt>
      <trkpt lat="46.3252" lon="-0.51513">
        <ele>53</ele>
        <time>2011-12-01T16:19:21Z</time>
      </trkpt>
      <trkpt lat="46.32512" lon="-0.5152">
        <ele>50</ele>
        <time>2011-12-01T16:19:26Z</time>
      </trkpt>
      <trkpt lat="46.32503" lon="-0.51518">
        <ele>56</ele>
        <time>2011-12-01T16:19:31Z</time>
      </trkpt>
      <trkpt lat="46.32496" lon="-0.51517">
        <ele>54</ele>
        <time>2011-12-01T16:19:36Z</time>
      </trkpt>
      <trkpt lat="46.3249" lon="-0.51519">
        <ele>55</ele>
        <time>2011-12-01T16:19:41Z</time>
      </trkpt>
      <trkpt lat="46.32486" lon="-0.51518">
        <ele>57</ele>
        <time>2011-12-01T16:19:46Z</time>
      </trkpt>
      <trkpt lat="46.32484" lon="-0.51515">
        <ele>57</ele>
        <time>2011-12-01T16:19:51Z</time>
      </trkpt>
      <trkpt lat="46.32483" lon="-0.51512">
        <ele>56</ele>
        <time>2011-12-01T16:19:56Z</time>
      </trkpt>
      <trkpt lat="46.3248" lon="-0.51504">
        <ele>59</ele>
        <time>2011-12-01T16:20:01Z</time>
      </trkpt>
      <trkpt lat="46.32478" lon="-0.51493">
        <ele>57</ele>
        <time>2011-12-01T16:20:06Z</time>
      </trkpt>
      <trkpt lat="46.32476" lon="-0.51487">
        <ele>55</ele>
        <time>2011-12-01T16:20:11Z</time>
      </trkpt>
      <trkpt lat="46.32476" lon="-0.51477">
        <ele>55</ele>
        <time>2011-12-01T16:20:16Z</time>
      </trkpt>
      <trkpt lat="46.32474" lon="-0.51468">
        <ele>56</ele>
        <time>2011-12-01T16:20:21Z</time>
      </trkpt>
      <trkpt lat="46.32472" lon="-0.51462">
        <ele>55</ele>
        <time>2011-12-01T16:20:26Z</time>
      </trkpt>
      <trkpt lat="46.3247" lon="-0.5146">
        <ele>56</ele>
        <time>2011-12-01T16:20:31Z</time>
      </trkpt>
      <trkpt lat="46.32469" lon="-0.5145">
        <ele>55</ele>
        <time>2011-12-01T16:20:36Z</time>
      </trkpt>
      <trkpt lat="46.32467" lon="-0.5144">
        <ele>55</ele>
        <time>2011-12-01T16:20:41Z</time>
      </trkpt>
      <trkpt lat="46.32464" lon="-0.51434">
        <ele>55</ele>
        <time>2011-12-01T16:20:46Z</time>
      </trkpt>
      <trkpt lat="46.32461" lon="-0.51432">
        <ele>55</ele>
        <time>2011-12-01T16:20:51Z</time>
      </trkpt>
      <trkpt lat="46.3246" lon="-0.51423">
        <ele>56</ele>
        <time>2011-12-01T16:20:56Z</time>
      </trkpt>
      <trkpt lat="46.32458" lon="-0.51416">
        <ele>59</ele>
        <time>2011-12-01T16:21:01Z</time>
      </trkpt>
      <trkpt lat="46.32454" lon="-0.51412">
        <ele>60</ele>
        <time>2011-12-01T16:21:06Z</time>
      </trkpt>
      <trkpt lat="46.32452" lon="-0.51407">
        <ele>63</ele>
        <time>2011-12-01T16:21:11Z</time>
      </trkpt>
      <trkpt lat="46.32449" lon="-0.514">
        <ele>63</ele>
        <time>2011-12-01T16:21:16Z</time>
      </trkpt>
      <trkpt lat="46.32446" lon="-0.51396">
        <ele>62</ele>
        <time>2011-12-01T16:21:21Z</time>
      </trkpt>
      <trkpt lat="46.32445" lon="-0.51389">
        <ele>62</ele>
        <time>2011-12-01T16:21:26Z</time>
      </trkpt>
      <trkpt lat="46.32444" lon="-0.51382">
        <ele>58</ele>
        <time>2011-12-01T16:21:31Z</time>
      </trkpt>
      <trkpt lat="46.32441" lon="-0.51377">
        <ele>58</ele>
        <time>2011-12-01T16:21:36Z</time>
      </trkpt>
      <trkpt lat="46.32438" lon="-0.51371">
        <ele>57</ele>
        <time>2011-12-01T16:21:41Z</time>
      </trkpt>
      <trkpt lat="46.32436" lon="-0.51366">
        <ele>57</ele>
        <time>2011-12-01T16:21:46Z</time>
      </trkpt>
      <trkpt lat="46.32433" lon="-0.51359">
        <ele>58</ele>
        <time>2011-12-01T16:21:51Z</time>
      </trkpt>
      <trkpt lat="46.32431" lon="-0.51349">
        <ele>57</ele>
        <time>2011-12-01T16:21:56Z</time>
      </trkpt>
      <trkpt lat="46.32429" lon="-0.51343">
        <ele>56</ele>
        <time>2011-12-01T16:22:01Z</time>
      </trkpt>
      <trkpt lat="46.32426" lon="-0.51334">
        <ele>56</ele>
        <time>2011-12-01T16:22:06Z</time>
      </trkpt>
      <trkpt lat="46.32423" lon="-0.5133">
        <ele>56</ele>
        <time>2011-12-01T16:22:11Z</time>
      </trkpt>
      <trkpt lat="46.32419" lon="-0.51326">
        <ele>56</ele>
        <time>2011-12-01T16:22:16Z</time>
      </trkpt>
      <trkpt lat="46.32417" lon="-0.51322">
        <ele>56</ele>
        <time>2011-12-01T16:22:21Z</time>
      </trkpt>
      <trkpt lat="46.32416" lon="-0.51324">
        <ele>57</ele>
        <time>2011-12-01T16:22:26Z</time>
      </trkpt>
      <trkpt lat="46.32414" lon="-0.51322">
        <ele>56</ele>
        <time>2011-12-01T16:22:31Z</time>
      </trkpt>
      <trkpt lat="46.3241" lon="-0.51317">
        <ele>55</ele>
        <time>2011-12-01T16:22:36Z</time>
      </trkpt>
      <trkpt lat="46.32405" lon="-0.51313">
        <ele>56</ele>
        <time>2011-12-01T16:22:41Z</time>
      </trkpt>
      <trkpt lat="46.324" lon="-0.51307">
        <ele>57</ele>
        <time>2011-12-01T16:22:46Z</time>
      </trkpt>
      <trkpt lat="46.32396" lon="-0.51304">
        <ele>60</ele>
        <time>2011-12-01T16:22:51Z</time>
      </trkpt>
      <trkpt lat="46.32392" lon="-0.51298">
        <ele>61</ele>
        <time>2011-12-01T16:22:56Z</time>
      </trkpt>
      <trkpt lat="46.32386" lon="-0.51298">
        <ele>62</ele>
        <time>2011-12-01T16:23:01Z</time>
      </trkpt>
      <trkpt lat="46.3238" lon="-0.51298">
        <ele>62</ele>
        <time>2011-12-01T16:23:06Z</time>
      </trkpt>
      <trkpt lat="46.32373" lon="-0.51295">
        <ele>63</ele>
        <time>2011-12-01T16:23:11Z</time>
      </trkpt>
      <trkpt lat="46.32369" lon="-0.51292">
        <ele>63</ele>
        <time>2011-12-01T16:23:16Z</time>
      </trkpt>
      <trkpt lat="46.32364" lon="-0.51291">
        <ele>64</ele>
        <time>2011-12-01T16:23:21Z</time>
      </trkpt>
      <trkpt lat="46.32358" lon="-0.51291">
        <ele>65</ele>
        <time>2011-12-01T16:23:26Z</time>
      </trkpt>
      <trkpt lat="46.32353" lon="-0.51278">
        <ele>65</ele>
        <time>2011-12-01T16:23:31Z</time>
      </trkpt>
      <trkpt lat="46.3235" lon="-0.51275">
        <ele>65</ele>
        <time>2011-12-01T16:23:36Z</time>
      </trkpt>
      <trkpt lat="46.32346" lon="-0.5127">
        <ele>65</ele>
        <time>2011-12-01T16:23:41Z</time>
      </trkpt>
      <trkpt lat="46.3234" lon="-0.51271">
        <ele>65</ele>
        <time>2011-12-01T16:23:46Z</time>
      </trkpt>
      <trkpt lat="46.32336" lon="-0.51274">
        <ele>65</ele>
        <time>2011-12-01T16:23:51Z</time>
      </trkpt>
      <trkpt lat="46.32333" lon="-0.51259">
        <ele>63</ele>
        <time>2011-12-01T16:23:56Z</time>
      </trkpt>
      <trkpt lat="46.3233" lon="-0.51254">
        <ele>62</ele>
        <time>2011-12-01T16:24:01Z</time>
      </trkpt>
      <trkpt lat="46.32325" lon="-0.51255">
        <ele>59</ele>
        <time>2011-12-01T16:24:06Z</time>
      </trkpt>
      <trkpt lat="46.32321" lon="-0.5125">
        <ele>57</ele>
        <time>2011-12-01T16:24:11Z</time>
      </trkpt>
      <trkpt lat="46.32317" lon="-0.51247">
        <ele>56</ele>
        <time>2011-12-01T16:24:16Z</time>
      </trkpt>
      <trkpt lat="46.32316" lon="-0.51239">
        <ele>57</ele>
        <time>2011-12-01T16:24:21Z</time>
      </trkpt>
      <trkpt lat="46.32321" lon="-0.51232">
        <ele>59</ele>
        <time>2011-12-01T16:24:26Z</time>
      </trkpt>
      <trkpt lat="46.32325" lon="-0.5123">
        <ele>59</ele>
        <time>2011-12-01T16:24:31Z</time>
      </trkpt>
      <trkpt lat="46.32328" lon="-0.51223">
        <ele>57</ele>
        <time>2011-12-01T16:24:36Z</time>
      </trkpt>
      <trkpt lat="46.32323" lon="-0.51217">
        <ele>59</ele>
        <time>2011-12-01T16:24:41Z</time>
      </trkpt>
      <trkpt lat="46.32321" lon="-0.51212">
        <ele>61</ele>
        <time>2011-12-01T16:24:46Z</time>
      </trkpt>
      <trkpt lat="46.32318" lon="-0.51207">
        <ele>62</ele>
        <time>2011-12-01T16:24:51Z</time>
      </trkpt>
      <trkpt lat="46.32314" lon="-0.51201">
        <ele>63</ele>
        <time>2011-12-01T16:24:56Z</time>
      </trkpt>
      <trkpt lat="46.32309" lon="-0.51197">
        <ele>62</ele>
        <time>2011-12-01T16:25:01Z</time>
      </trkpt>
      <trkpt lat="46.32304" lon="-0.51196">
        <ele>62</ele>
        <time>2011-12-01T16:25:06Z</time>
      </trkpt>
      <trkpt lat="46.32299" lon="-0.51198">
        <ele>61</ele>
        <time>2011-12-01T16:25:11Z</time>
      </trkpt>
      <trkpt lat="46.32294" lon="-0.512">
        <ele>62</ele>
        <time>2011-12-01T16:25:16Z</time>
      </trkpt>
      <trkpt lat="46.32289" lon="-0.51198">
        <ele>63</ele>
        <time>2011-12-01T16:25:21Z</time>
      </trkpt>
      <trkpt lat="46.32285" lon="-0.51192">
        <ele>62</ele>
        <time>2011-12-01T16:25:26Z</time>
      </trkpt>
      <trkpt lat="46.32285" lon="-0.51187">
        <ele>62</ele>
        <time>2011-12-01T16:25:31Z</time>
      </trkpt>
      <trkpt lat="46.32286" lon="-0.51181">
        <ele>62</ele>
        <time>2011-12-01T16:25:36Z</time>
      </trkpt>
      <trkpt lat="46.32284" lon="-0.51175">
        <ele>62</ele>
        <time>2011-12-01T16:25:41Z</time>
      </trkpt>
      <trkpt lat="46.32282" lon="-0.51172">
        <ele>61</ele>
        <time>2011-12-01T16:25:46Z</time>
      </trkpt>
    </trkseg>
  </trk>
</gpx>